GFSNGP_prec_cloud_003.txt.gz
Cloud_Cover
0 0 5 6 30 6 5 20 64 18 100 100 93 54 49 99 100 78 100 100 63 95 99 100 99 100 89 100 88 58 92 39 36 9 35 72 100 100 100 65 7 5 5 8
0 0 0 0 5 4 5 12 6 98 96 100 44 82 95 100 100 100 13 10 100 100 100 97 90 88 96 80 92 65 100 89 67 91 99 100 100 100 100 5 5 5 43 98
5 7 4 5 30 5 58 86 71 100 100 100 91 100 98 100 98 41 100 97 49 61 80 100 80 5 33 100 42 26 88 100 100 100 99 100 100 100 100 82 66 96 100 100
52 86 50 24 19 24 19 5 40 100 98 98 49 100 61 40 98 100 33 30 100 100 94 15 5 5 42 100 100 100 100 51 98 100 100 100 100 100 93 96 100 100 98 99
90 5 51 21 5 5 5 3 14 60 40 12 34 50 77 99 15 19 61 100 100 88 5 6 6 5 32 100 100 100 100 100 100 100 88 100 100 100 100 100 100 100 94 75
61 54 59 12 78 5 5 42 44 74 20 24 15 83 81 99 98 99 95 48 25 65 5 5 2 0 5 9 100 100 99 17 94 100 100 100 100 100 100 100 100 66 24 96
98 78 16 25 5 4 32 42 36 5 7 34 66 97 32 17 66 90 12 64 6 5 5 5 5 2 5 43 100 100 98 15 100 100 100 100 100 100 100 100 76 56 8 44
76 92 74 28 93 51 91 96 33 10 94 100 100 89 76 97 40 14 5 5 5 5 5 5 5 5 5 11 100 100 95 78 100 100 100 100 100 100 91 95 98 55 97 34
78 48 99 100 100 88 100 96 65 100 100 93 87 92 56 12 5 5 5 5 5 5 5 44 5 5 77 7 26 63 95 100 100 100 100 100 79 99 100 100 91 96 100 98
24 35 100 51 99 100 89 100 16 66 100 100 89 25 5 6 5 5 5 5 5 5 92 80 97 98 100 38 93 97 59 100 100 100 100 100 99 100 100 85 97 99 86 100
84 44 71 7 79 99 57 86 95 99 94 62 34 42 90 89 11 5 24 5 6 96 100 100 100 100 100 100 100 99 84 96 85 98 89 98 82 99 54 91 15 12 19 91
52 61 51 88 84 100 100 100 98 28 32 16 84 96 69 81 5 7 5 5 66 33 32 83 99 100 77 100 93 33 5 8 94 77 77 83 100 100 74 5 5 5 5 13
60 46 32 98 99 100 99 74 6 5 10 100 62 70 91 28 5 5 5 43 73 8 50 97 100 100 100 99 18 33 61 81 75 43 100 100 91 100 98 100 64 55 64 5
84 72 26 98 100 95 80 80 21 80 11 70 99 33 5 5 5 29 93 99 15 5 37 89 100 100 93 97 77 32 84 71 92 100 100 98 96 100 100 100 100 100 100 61
12 25 74 60 46 100 80 28 25 91 100 85 29 11 10 5 52 98 100 41 30 64 63 82 84 55 97 44 46 87 73 91 100 100 100 100 100 100 100 100 100 100 100 99
60 86 98 99 65 54 92 96 100 88 8 8 87 10 34 38 99 100 61 57 89 100 98 90 88 54 98 97 94 86 100 62 94 100 100 100 100 99 100 100 100 100 100 100
94 82 72 99 100 100 100 81 13 5 22 13 6 19 87 100 100 35 5 31 100 100 100 100 100 93 100 67 100 97 99 100 100 100 100 100 100 100 100 100 100 100 100 80
99 100 100 100 100 100 76 20 5 10 71 49 7 36 94 100 68 49 87 95 100 100 88 100 100 100 99 75 91 89 82 85 100 100 100 100 100 100 100 100 100 100 100 100
90 88 100 100 93 29 11 35 80 93 60 25 77 100 100 42 31 7 6 95 100 100 100 78 95 49 40 98 99 99 100 100 100 100 100 100 100 100 100 100 100 100 100 100
55 80 100 100 100 93 84 86 59 13 15 26 100 100 12 5 20 61 75 92 100 100 100 95 94 87 34 88 86 96 100 100 100 100 100 100 100 100 100 100 100 100 100 100
99 100 100 100 78 62 97 40 12 22 100 100 98 20 9 76 100 100 100 78 75 95 83 90 100 75 93 72 97 100 100 100 100 100 100 100 100 100 100 100 100 100 100 100
72 54 81 71 74 66 89 91 95 100 100 100 46 76 98 100 100 100 100 97 82 100 100 100 99 73 47 5 69 96 100 94 100 100 100 100 99 100 100 100 100 100 100 100
98 99 100 77 53 58 88 88 100 100 98 74 100 78 100 100 100 100 66 63 100 99 100 100 100 94 12 77 92 96 99 100 100 100 100 100 100 100 100 100 100 100 100 100
77 67 82 90 100 100 100 99 99 17 89 100 100 100 100 100 100 81 96 99 98 100 100 100 99 32 65 100 100 100 76 100 100 100 100 100 94 94 100 100 100 100 100 100
98 100 100 100 100 80 50 51 5 58 67 78 86 99 100 100 99 64 100 100 100 100 100 100 78 69 93 100 100 100 100 90 100 100 100 93 100 100 100 100 100 100 100 100
100 100 100 92 9 5 5 25 38 50 100 98 64 73 87 100 100 98 100 100 100 100 100 100 100 100 100 100 100 100 100 100 100 100 100 100 100 100 100 100 100 100 100 100
100 79 8 5 5 5 20 6 12 42 96 100 93 80 90 100 100 100 100 100 100 100 100 100 100 100 99 100 100 100 100 100 100 100 100 100 100 100 100 100 100 100 100 100

GFSNGP_prec_cloud_006.txt.gz
Cloud_Cover
0 0 0 0 0 0 5 12 80 6 68 96 73 47 63 5 5 7 39 50 66 75 5 5 6 44 95 62 33 6 36 50 6 3 10 3 5 2 5 5 5 5 4 5
0 0 0 0 0 0 0 13 7 27 48 100 82 5 5 8 43 42 12 5 37 6 5 31 73 10 5 5 10 72 14 5 4 77 100 100 86 37 5 51 18 5 12 58
4 1 1 3 5 5 4 81 6 77 40 77 6 6 12 99 47 6 8 49 5 13 85 84 8 5 5 5 5 47 100 29 5 94 100 100 75 22 91 76 44 59 100 81
8 40 20 5 5 4 5 37 21 92 100 64 43 74 25 66 54 48 93 8 50 58 36 70 5 5 10 5 3 1 8 97 52 26 30 100 62 8 99 100 99 100 99 78
74 5 5 1 6 6 2 0 4 6 6 5 5 11 6 74 59 77 32 8 24 69 28 94 69 6 1 0 2 28 48 24 82 26 100 100 100 23 100 100 85 100 5 25
26 9 5 1 64 5 5 5 38 6 6 6 5 6 18 55 97 86 67 95 14 5 10 54 5 5 1 5 5 56 5 4 81 100 100 100 14 68 53 68 43 5 4 4
85 90 10 0 5 0 4 5 5 12 56 5 7 18 42 70 36 5 30 67 27 5 5 5 5 4 5 5 80 69 5 5 13 94 100 27 48 92 98 70 11 5 5 4
51 87 33 5 35 10 20 38 48 34 25 23 30 16 5 23 5 24 75 5 5 5 5 5 5 6 51 35 7 1 1 30 65 48 11 7 84 67 30 5 5 5 5 5
4 0 22 95 40 6 5 53 65 100 50 64 5 5 51 50 74 88 77 5 5 5 5 5 95 100 100 12 5 5 3 5 21 83 90 74 77 15 5 16 5 3 5 5
5 2 4 11 100 44 79 87 100 100 96 81 37 55 15 9 97 45 62 5 8 7 7 72 8 96 65 5 5 5 38 28 36 93 41 16 5 40 5 5 5 5 5 5
5 5 10 86 24 9 6 100 100 100 80 83 58 54 94 65 20 8 8 41 7 5 27 15 54 59 5 5 5 5 5 5 19 8 53 5 5 27 79 5 5 5 5 5
5 42 100 90 30 11 62 94 100 100 100 99 94 53 40 23 19 11 8 5 5 5 50 95 70 5 40 88 5 5 5 5 5 5 5 5 17 24 5 5 5 5 5 5
80 100 90 12 7 5 17 96 89 86 99 95 66 58 8 18 65 11 5 5 5 29 75 62 5 5 87 79 66 5 5 5 5 5 46 62 31 5 55 92 62 5 72 5
100 96 40 7 21 18 72 84 73 87 85 48 56 5 48 25 5 5 5 8 5 71 91 17 6 86 100 73 98 44 5 5 5 56 94 72 74 100 100 100 99 92 100 84
65 11 5 37 92 87 59 77 58 57 24 59 43 48 11 5 5 18 91 10 30 31 5 92 99 64 71 92 81 55 6 92 5 5 100 100 100 100 100 100 100 97 100 100
6 38 100 85 57 11 8 14 9 8 55 94 25 71 55 49 89 98 64 34 21 5 5 100 100 100 100 98 100 78 6 98 68 24 100 100 100 100 100 100 100 100 99 89
74 71 100 58 38 59 51 73 67 100 46 85 98 99 91 100 87 99 79 72 5 5 68 100 100 100 100 100 100 86 64 90 27 100 100 100 100 100 100 100 100 100 99 96
84 100 76 93 71 72 96 97 74 59 100 68 79 78 99 46 25 68 69 8 77 58 89 100 100 100 100 100 87 100 82 27 56 100 100 100 100 100 100 100 100 100 99 98
97 94 100 90 87 98 91 93 88 99 94 64 100 69 29 68 82 43 74 100 100 98 52 67 100 98 64 31 6 95 59 93 100 92 100 100 98 100 100 100 100 100 97 100
96 100 100 100 100 97 99 100 98 84 99 98 38 26 24 70 39 100 89 100 100 100 87 91 100 79 61 5 10 30 10 96 96 99 99 100 99 100 100 100 100 100 100 100
100 98 100 100 97 100 100 100 97 98 97 46 53 51 61 100 100 93 100 100 10 89 99 100 100 75 18 23 40 7 5 41 92 96 100 100 100 100 100 100 100 100 100 100
100 100 100 100 100 100 100 100 100 99 86 69 88 33 42 92 73 100 100 97 81 91 100 100 100 59 50 85 91 81 5 92 93 84 100 100 100 100 100 100 100 100 100 100
100 100 100 100 100 100 100 84 64 89 97 100 100 99 57 99 100 100 75 56 82 100 100 100 100 100 100 100 95 99 80 32 100 96 98 100 100 100 100 100 100 100 100 100
100 100 100 100 100 100 88 100 100 97 91 100 100 97 98 99 98 91 97 100 88 100 100 100 100 100 100 99 98 96 100 47 67 99 99 100 100 97 99 100 100 100 100 100
100 100 99 100 100 100 100 100 85 13 83 5 14 34 43 100 100 93 100 100 100 100 100 99 92 100 100 100 100 100 100 100 99 83 96 97 96 97 100 100 100 100 100 100
100 100 100 100 100 75 5 5 5 5 5 5 5 5 8 98 100 100 100 100 100 100 100 100 100 100 100 100 100 100 99 100 100 100 100 100 100 100 100 100 100 100 100 100
100 100 100 18 4 1 0 4 6 31 11 32 8 5 76 90 91 95 100 100 100 100 100 100 100 100 100 100 99 100 100 100 100 100 100 100 100 100 100 100 100 100 100 100

GFSNGP_prec_cloud_012.txt.gz
Cloud_Cover
0 0 1 5 0 0 0 2 3 0 0 0 0 0 4 5 5 29 69 84 76 87 21 5 5 6 9 5 5 5 5 5 5 0 0 0 1 56 52 70 20 98 100 100
0 0 1 0 0 0 0 0 0 0 0 0 0 0 3 5 5 34 100 100 100 33 5 5 5 5 5 5 5 5 5 3 0 0 0 0 0 28 33 100 100 100 97 69
5 5 0 3 1 0 0 0 0 0 0 0 0 0 0 5 5 83 98 99 64 5 5 18 7 5 5 5 5 5 2 5 4 0 0 1 4 6 53 92 100 99 45 39
5 5 5 5 4 0 1 0 0 1 0 0 0 3 5 7 10 9 25 57 80 17 56 70 17 5 5 5 5 5 5 1 0 0 4 4 5 5 69 80 94 73 100 100
55 5 5 5 5 5 5 20 5 5 1 0 4 5 9 5 5 5 11 30 38 23 21 5 5 5 5 6 17 5 0 4 4 5 5 0 5 5 38 20 93 100 100 55
86 5 5 6 7 47 53 77 25 99 100 100 17 34 47 5 5 26 77 5 27 52 8 50 26 5 5 10 6 5 5 5 3 5 5 5 38 75 9 88 100 100 70 5
71 18 69 11 10 14 17 5 5 11 100 100 100 100 30 10 15 73 8 61 86 22 5 5 5 10 5 5 4 3 24 8 5 5 5 6 64 90 100 100 98 43 5 5
99 100 100 58 11 52 8 5 5 76 100 100 97 72 64 38 78 50 100 79 5 54 71 27 32 5 5 5 1 36 37 42 5 5 5 6 97 92 93 40 5 5 13 5
100 100 100 100 99 14 5 58 100 100 35 50 68 69 9 53 16 86 9 5 56 66 46 5 5 5 5 0 28 100 52 5 5 5 5 5 11 6 22 5 5 5 5 5
95 100 100 41 95 53 42 100 98 67 36 80 100 95 55 5 5 5 5 56 94 82 33 9 34 5 5 24 100 68 7 5 26 5 5 5 5 5 5 5 5 5 5 5
5 46 5 94 61 35 9 68 96 98 90 100 69 19 5 5 5 5 11 98 87 35 26 28 5 5 15 100 100 24 100 95 96 88 5 5 5 75 85 76 5 5 5 5
5 5 5 44 10 5 50 100 100 99 100 97 44 8 5 5 5 16 97 100 99 52 5 5 5 14 81 100 76 80 100 100 100 100 15 5 22 94 99 99 20 5 5 5
71 95 100 100 100 100 100 100 88 98 50 50 50 5 61 62 72 98 72 46 5 5 5 5 15 88 100 86 100 100 93 100 100 100 86 98 98 53 78 5 5 5 5 5
100 100 100 100 100 100 100 100 100 83 90 73 59 88 93 96 60 39 28 5 5 21 37 5 85 100 100 38 100 100 100 100 100 100 100 100 100 62 100 90 84 54 5 5
100 100 100 100 100 100 100 100 100 100 82 100 100 100 100 100 88 70 56 7 97 98 100 86 100 92 53 100 100 100 100 100 100 100 88 100 100 46 99 100 100 85 59 12
100 100 100 100 100 100 100 100 100 100 100 100 100 100 100 75 69 100 76 88 100 99 100 100 100 100 100 100 100 100 100 100 99 91 99 100 100 100 100 100 100 99 99 67
95 69 62 100 100 100 100 100 99 100 100 99 99 97 67 87 100 96 91 100 100 100 100 100 100 100 100 100 100 100 100 100 100 100 100 100 100 100 100 100 100 100 99 93
100 100 100 100 100 100 100 100 100 100 100 96 98 100 100 100 100 96 100 100 100 100 100 100 100 89 96 100 100 100 100 100 98 95 98 100 100 100 100 100 100 100 100 100
100 100 100 100 100 100 100 100 100 100 92 100 100 100 100 99 70 100 100 100 100 100 70 6 53 100 100 87 99 100 94 74 54 5 12 72 98 88 94 100 100 100 100 98
100 100 100 100 100 100 100 100 100 100 100 100 100 95 73 100 100 100 100 100 100 56 5 21 100 100 100 71 92 100 94 12 5 5 79 76 99 87 100 99 100 100 100 98
100 100 100 100 100 100 100 100 100 100 100 100 85 91 88 100 100 100 99 96 5 30 55 82 100 92 100 100 100 100 100 86 100 93 97 77 82 92 76 100 100 98 100 100
100 100 100 100 100 100 100 100 100 97 100 100 100 100 100 100 100 100 100 7 5 45 100 100 100 100 100 100 100 100 100 100 100 95 100 94 99 100 95 89 96 100 100 98
100 100 100 100 100 100 100 100 100 100 100 100 100 100 100 100 100 100 37 5 6 23 100 100 100 100 100 100 100 100 100 100 100 100 100 93 100 89 93 100 99 100 98 100
100 100 100 100 100 100 100 100 100 100 100 100 100 100 100 100 97 49 82 15 24 34 82 100 100 100 100 100 100 100 100 85 79 77 97 99 100 100 100 100 100 100 100 100
100 100 100 100 100 100 100 100 100 100 100 100 93 81 98 100 97 10 27 76 94 100 100 82 100 100 100 100 100 100 88 80 95 100 100 100 100 100 100 100 100 100 100 100
100 100 100 100 100 100 100 100 100 87 39 42 31 6 6 73 100 100 100 99 100 100 100 98 66 87 100 100 100 100 100 100 100 100 100 100 100 100 100 100 100 100 100 100
100 98 100 100 92 80 56 28 92 90 96 29 40 50 100 100 100 100 100 99 99 94 100 100 98 89 98 85 92 99 99 100 100 98 100 100 100 100 100 100 100 100 100 100

GFSNGP_prec_cloud_015.txt.gz
Cloud_Cover
0 1 0 1 0 0 0 4 4 5 5 0 0 0 0 0 0 4 5 5 84 32 55 100 100 72 14 5 5 5 5 5 5 5 5 0 0 0 3 74 100 26 10 71
5 0 0 0 0 3 5 5 5 5 5 5 5 2 0 0 2 5 9 86 100 100 100 99 40 5 5 5 5 5 5 5 5 5 3 0 0 5 5 5 5 86 41 95
5 5 5 5 5 5 5 5 5 5 9 5 5 5 5 5 5 5 82 100 100 39 5 5 10 5 5 5 5 5 16 11 5 5 5 0 5 3 5 5 14 21 5 6
5 5 54 19 27 5 5 5 5 27 6 5 5 5 5 7 6 27 93 81 32 6 5 36 7 5 5 28 94 12 33 5 5 4 2 7 24 5 5 5 18 10 25 99
8 10 9 99 85 5 5 52 5 5 5 29 25 5 57 5 22 69 84 94 76 26 5 5 5 27 78 100 59 71 94 12 0 0 5 95 5 5 25 21 93 58 98 100
78 5 6 100 79 9 5 98 81 27 16 99 100 75 90 55 82 9 20 100 96 36 5 5 19 86 100 85 97 88 3 0 4 5 100 5 5 5 100 90 99 99 69 34
85 16 96 100 100 93 99 100 100 100 100 100 100 100 98 100 83 34 80 97 80 7 6 42 99 90 67 90 64 4 0 0 5 88 62 5 5 62 72 89 75 92 93 5
98 100 100 100 100 87 100 100 68 100 100 100 100 82 95 96 97 100 100 74 56 81 100 100 70 55 96 10 5 0 0 5 86 97 91 5 5 5 43 96 100 59 23 5
100 100 100 98 16 97 89 10 58 89 100 100 100 100 100 100 100 100 72 58 70 79 100 55 31 54 6 4 0 2 5 53 100 99 70 10 5 5 5 5 5 82 5 34
100 100 100 12 94 100 63 100 38 100 100 100 100 100 100 100 84 17 29 57 95 100 98 56 24 5 5 4 5 9 86 100 100 97 100 79 23 5 6 81 100 94 14 31
87 95 5 90 100 100 100 77 100 100 100 100 100 100 100 98 91 91 80 68 100 99 58 16 6 5 5 5 5 99 100 100 97 99 100 95 64 48 100 100 100 87 5 5
5 5 8 96 100 98 76 100 84 77 94 97 100 100 100 100 100 99 86 93 99 77 74 32 5 5 5 6 93 100 100 97 96 94 98 100 63 71 98 100 100 8 5 11
5 65 97 87 54 54 80 98 100 100 93 100 100 100 100 100 100 100 100 83 98 98 46 37 5 5 6 29 99 100 100 100 60 99 100 96 97 100 100 89 100 70 5 5
72 68 58 100 82 100 100 100 100 100 100 100 100 100 100 100 100 100 100 100 100 99 78 5 9 77 28 100 100 100 100 100 99 100 100 100 100 100 99 79 100 53 38 5
100 100 100 100 100 100 100 100 100 100 100 100 100 100 100 100 100 100 100 100 100 88 29 34 96 53 100 98 100 100 100 100 100 100 100 100 100 100 100 100 100 100 75 17
100 100 100 100 100 100 100 100 99 100 100 100 100 100 100 100 100 100 100 100 100 100 94 100 92 100 100 100 100 100 100 100 100 100 100 100 100 100 100 100 100 100 92 77
100 100 100 100 100 92 100 100 100 100 99 100 100 100 100 100 100 100 100 100 100 99 100 72 100 100 100 100 100 100 100 100 100 100 99 91 46 82 92 99 100 100 72 90
85 79 100 100 100 100 100 100 100 100 100 100 100 100 100 100 100 100 100 100 100 100 100 100 100 73 100 100 99 100 99 100 100 100 100 97 70 91 100 99 94 100 69 100
100 100 100 100 100 100 100 100 100 100 100 100 100 100 100 100 100 100 100 100 100 100 100 100 53 22 10 24 96 100 100 100 100 100 82 54 94 90 94 99 74 100 100 98
100 100 100 100 100 100 100 100 100 100 100 100 100 100 100 100 100 88 100 100 100 100 100 37 72 100 100 99 100 100 100 100 100 100 81 84 90 81 93 83 98 100 100 100
100 100 100 100 100 100 100 100 100 100 100 100 100 100 100 100 100 100 100 100 100 87 5 19 88 100 100 100 100 100 100 100 100 100 100 100 98 99 95 85 87 98 100 100
100 100 100 100 100 100 100 100 100 100 100 100 100 100 100 100 100 100 100 68 17 12 10 5 5 66 100 100 100 100 100 100 100 100 100 100 100 96 100 100 100 100 100 100
100 100 100 100 100 100 100 100 100 100 100 100 100 100 100 100 100 100 100 16 75 56 15 51 73 56 90 100 98 100 100 100 100 100 100 100 100 100 100 100 100 100 100 100
100 100 100 100 100 100 100 100 100 100 100 100 100 100 85 26 45 100 92 39 81 72 100 100 99 87 98 100 100 100 97 100 100 100 100 100 98 100 100 100 100 100 100 100
100 100 100 100 100 100 100 100 94 82 25 3 2 5 6 68 100 28 78 84 90 100 100 72 100 88 72 100 98 100 100 100 95 82 91 93 94 98 98 100 100 100 100 100
47 21 17 4 5 5 5 5 8 7 24 84 19 5 18 97 82 64 94 87 100 99 86 91 58 72 79 100 100 100 100 98 82 94 100 100 100 98 92 97 100 100 100 100
13 17 16 6 6 15 27 91 100 100 100 100 100 88 48 65 92 89 96 100 100 100 100 96 87 75 100 100 100 100 100 100 95 100 100 92 96 100 100 97 99 100 100 100

GFSNGP_prec_cloud_018.txt.gz
Cloud_Cover
5 5 5 5 0 0 2 4 5 4 5 5 5 47 6 5 5 2 4 4 9 80 99 16 91 95 5 5 5 5 5 5 5 5 5 13 5 6 4 1 5 93 99 78
5 5 5 14 5 5 5 34 5 5 5 5 8 5 5 5 5 16 10 43 68 100 36 100 65 80 80 5 5 5 7 36 8 16 20 42 36 5 0 4 52 99 46 92
5 5 63 100 5 11 48 38 5 5 7 79 70 54 81 83 90 100 100 100 100 100 100 99 100 59 7 15 55 92 79 42 13 44 81 59 6 0 1 59 83 26 9 10
5 5 61 13 16 5 5 5 5 5 28 23 63 100 100 90 100 100 100 100 100 100 90 98 64 56 90 98 95 91 96 100 99 69 69 5 3 0 36 94 5 66 96 88
5 14 97 98 100 91 5 15 100 5 40 31 54 98 100 34 98 93 100 100 90 59 84 86 99 100 92 66 100 100 100 99 84 89 5 5 0 7 100 44 83 98 99 85
5 15 86 100 100 100 18 60 100 100 100 100 100 100 100 62 54 49 71 86 98 100 100 100 100 99 90 100 100 100 100 100 84 15 5 5 5 41 5 88 74 10 5 8
76 7 96 100 95 100 100 98 82 85 95 100 100 98 100 98 93 100 100 100 100 100 100 100 97 95 100 100 100 100 100 50 9 5 5 34 24 58 5 61 73 77 84 67
58 27 94 43 100 100 76 43 99 100 100 99 100 100 100 100 100 100 100 100 100 100 100 97 89 100 100 100 100 100 46 5 4 5 73 86 98 5 5 5 13 84 60 19
90 100 86 98 100 42 100 100 98 98 100 99 100 100 100 100 100 100 100 100 100 100 100 100 100 100 100 100 100 86 8 5 5 5 75 98 91 27 18 9 65 87 93 68
100 100 100 64 40 100 98 68 54 84 100 100 100 100 100 100 100 100 100 100 100 100 100 100 100 99 68 90 100 86 5 5 5 50 95 84 93 81 57 18 100 100 100 79
70 93 5 97 100 99 46 13 60 100 100 100 100 100 100 100 100 100 100 100 100 100 100 100 100 100 71 100 96 96 14 8 85 93 80 98 91 77 7 78 98 99 100 49
2 5 5 86 94 54 55 100 100 100 100 100 100 98 100 100 100 99 100 100 100 100 100 100 100 100 100 100 100 49 86 79 100 92 98 99 96 69 57 30 36 88 94 46
5 5 5 17 46 64 59 55 73 53 69 99 96 87 100 100 100 100 100 100 100 100 100 100 100 100 100 100 85 100 58 100 100 99 98 100 98 100 99 80 56 70 86 81
18 5 26 49 9 17 66 91 98 100 100 100 100 100 100 100 100 100 100 100 100 100 100 100 100 100 100 100 100 75 92 100 100 100 100 100 100 100 100 89 39 99 93 93
40 21 14 59 97 100 100 100 100 100 100 100 100 100 100 100 100 100 100 100 100 100 100 100 100 100 100 100 100 100 100 100 100 100 100 100 99 100 100 87 90 100 92 70
100 100 100 96 100 100 100 100 100 100 100 100 100 100 100 100 100 100 100 100 100 100 85 100 100 100 100 100 100 100 89 100 100 99 100 100 98 65 76 100 100 100 100 86
78 72 39 56 59 71 100 100 100 100 100 100 100 100 100 100 100 100 100 100 100 100 100 100 83 97 100 100 99 99 100 100 100 99 93 100 100 96 70 81 82 100 92 99
39 38 99 100 100 100 100 100 100 100 100 100 100 100 100 100 100 100 100 100 100 100 100 95 100 100 100 80 96 92 100 100 100 97 100 99 95 80 74 74 86 76 80 99
100 100 100 100 100 100 100 100 100 100 100 100 100 100 100 100 100 100 100 100 100 80 98 100 100 100 52 100 100 100 100 100 100 100 100 100 89 66 86 91 100 100 82 86
100 100 100 100 100 100 100 100 100 100 100 100 100 100 100 100 100 100 100 65 99 100 100 100 75 5 9 96 100 100 100 100 100 100 100 100 100 91 99 100 88 78 78 96
100 100 100 100 100 100 100 100 100 100 100 100 100 100 100 100 100 100 100 100 100 100 90 46 53 5 5 19 95 100 100 100 100 100 100 100 100 100 100 100 97 85 100 100
100 100 100 100 100 100 100 100 100 100 100 100 100 100 100 100 100 100 100 100 55 9 15 18 13 21 37 92 96 100 100 100 100 100 100 100 100 100 100 100 100 100 100 100
93 91 98 100 100 100 100 100 100 100 100 100 100 100 100 100 100 66 48 6 13 10 27 13 62 93 99 100 100 100 100 100 98 96 86 95 96 94 92 89 100 100 100 100
100 100 100 100 100 100 100 100 100 100 100 94 79 29 8 15 12 8 5 45 100 87 93 100 94 92 100 99 97 100 100 100 100 100 100 100 99 79 81 82 85 86 92 100
82 78 77 27 41 40 18 13 7 7 17 40 26 16 43 94 100 59 89 94 99 69 70 98 100 100 100 100 100 100 100 100 100 100 100 100 100 90 99 91 92 99 94 96
54 78 42 13 71 95 100 100 100 100 100 100 100 100 93 30 96 100 100 99 100 99 100 89 94 100 93 100 100 100 100 100 100 100 100 100 100 100 100 94 98 100 94 86
89 98 100 87 100 99 58 24 68 78 70 76 81 85 87 66 63 55 53 94 100 96 92 100 100 100 100 100 100 100 100 100 98 99 100 100 100 100 100 100 100 98 100 93

GFSNGP_prec_cloud_021.txt.gz
Cloud_Cover
2 5 5 5 5 4 4 0 5 30 51 5 10 10 5 5 5 67 97 88 62 5 80 100 100 51 96 100 16 5 5 5 5 24 69 68 6 96 89 5 5 1 6 5
5 38 8 84 23 5 5 5 5 5 38 3 5 5 5 22 5 18 16 8 48 52 100 100 62 100 100 30 5 5 5 18 52 100 98 100 100 100 7 30 4 5 5 5
79 10 53 100 30 5 5 5 5 5 7 5 5 38 75 55 46 95 57 27 32 86 100 100 100 92 60 78 17 32 57 83 100 100 100 100 100 38 100 25 0 16 5 5
57 5 77 88 98 9 4 5 5 5 4 8 93 100 100 100 100 100 96 82 60 84 100 100 100 100 93 69 31 83 100 100 100 100 100 99 48 34 14 0 1 6 5 5
5 5 67 100 92 99 5 9 4 4 23 100 100 74 77 66 100 100 99 98 100 100 100 100 100 100 100 76 97 100 100 100 100 100 97 28 50 5 5 4 4 5 5 5
5 9 71 100 100 7 5 32 25 99 100 100 95 61 100 98 37 91 100 100 100 100 100 100 100 100 100 100 100 100 100 100 100 92 33 49 72 25 5 5 5 5 15 56
46 16 78 64 5 8 84 93 100 100 98 92 100 91 81 30 58 86 100 100 100 100 100 100 100 100 100 100 100 100 100 100 90 100 91 100 97 5 5 5 5 5 15 42
21 10 5 5 22 79 76 95 66 9 5 5 25 99 71 24 91 100 100 100 100 100 100 100 100 100 100 100 100 100 98 86 99 96 100 78 5 5 5 5 5 5 61 74
54 10 1 5 5 56 100 100 18 5 5 5 16 20 24 65 99 100 99 100 100 100 100 100 100 100 100 100 100 100 100 99 100 100 21 6 37 20 5 5 5 57 94 54
24 99 97 100 100 77 5 5 5 5 5 5 29 55 85 88 100 100 100 100 100 100 100 100 99 93 100 100 100 100 100 100 100 5 47 78 88 75 55 41 5 5 41 77
100 100 98 86 35 5 5 7 10 5 15 51 22 9 26 96 100 100 100 100 100 100 100 100 100 100 100 100 99 100 100 100 100 8 65 58 94 71 70 48 5 71 86 69
65 48 5 8 8 19 26 40 26 22 29 29 29 98 100 100 100 100 100 100 100 100 100 100 100 100 100 88 94 100 100 100 91 88 56 74 83 56 60 9 5 5 5 6
5 5 5 5 5 5 5 6 75 70 49 100 100 100 100 100 100 100 100 100 100 100 100 100 100 100 100 100 100 100 100 100 100 64 98 98 88 82 82 85 11 5 5 23
5 5 5 5 6 19 30 40 47 46 51 91 100 100 100 100 100 100 100 100 100 100 100 100 100 100 98 100 100 99 97 100 66 74 100 100 100 97 97 100 100 59 5 32
10 5 5 5 5 8 8 38 69 98 100 100 100 100 100 100 100 100 100 100 100 100 100 100 100 100 100 100 81 92 100 94 98 100 100 96 99 100 71 75 81 31 43 76
88 59 43 32 36 58 98 100 100 100 100 100 100 100 100 100 100 100 100 100 100 100 100 100 100 100 100 100 100 100 92 99 100 98 100 97 100 100 54 52 66 82 97 82
72 77 97 100 100 100 100 100 100 100 100 100 100 100 100 100 100 100 100 100 100 100 100 100 100 100 100 100 100 100 100 100 98 100 100 99 99 100 90 53 79 78 90 67
100 100 100 100 100 100 100 100 99 100 100 100 100 100 100 100 100 100 100 100 100 100 100 100 100 100 100 100 100 100 100 100 100 98 99 100 100 100 94 19 52 74 84 69
100 100 100 100 100 100 100 100 100 100 100 100 100 100 100 100 100 100 100 100 100 100 100 100 100 100 100 100 100 99 100 97 96 96 100 97 100 100 96 73 54 68 85 99
92 97 97 89 90 91 89 97 100 100 100 100 100 100 100 100 100 100 100 100 100 100 100 100 100 100 97 86 28 80 100 100 99 100 100 99 100 100 100 77 86 81 98 100
98 100 100 99 100 100 100 100 100 100 100 100 100 100 100 100 100 100 100 100 100 100 91 26 62 93 86 97 71 100 100 100 92 94 98 96 100 100 100 100 100 98 99 100
81 84 96 100 100 100 100 100 100 100 97 100 100 100 100 97 80 46 40 46 5 8 8 42 92 81 20 75 100 100 99 96 100 99 97 100 100 100 100 98 99 89 92 92
94 99 94 99 100 100 100 100 67 5 7 17 7 17 61 81 91 97 82 43 81 96 100 100 100 98 93 100 100 88 98 100 100 100 100 100 100 100 100 100 100 99 95 89
62 57 32 8 5 8 25 31 23 27 62 74 100 70 91 100 86 55 33 35 81 99 100 100 100 82 99 97 97 88 90 100 98 100 100 100 100 100 100 100 100 100 100 99
48 54 39 21 67 79 80 51 49 6 17 5 9 8 50 71 91 76 86 82 84 98 100 100 100 100 100 100 92 84 88 99 100 100 100 100 100 100 100 100 100 100 100 98
67 80 87 92 89 93 6 5 55 37 42 95 89 77 78 71 93 100 100 98 100 98 100 100 100 100 100 100 100 94 100 100 100 100 100 100 100 100 100 100 100 100 100 100
32 5 7 13 58 70 20 17 70 63 95 100 100 78 36 31 31 76 99 72 90 100 100 100 100 100 100 100 100 100 100 100 100 100 100 100 100 100 100 100 100 100 100 100

GFSNGP_prec_cloud_024.txt.gz
Cloud_Cover
5 24 50 65 85 44 5 4 1 2 5 0 69 29 83 37 5 5 9 5 5 5 5 18 86 65 47 100 100 100 100 94 90 99 91 53 53 21 88 97 39 22 75 85
10 54 67 100 78 2 5 4 5 5 5 0 3 5 6 5 5 78 66 5 5 8 26 49 92 62 100 100 100 100 100 100 100 98 78 73 93 73 84 86 71 48 46 95
5 81 100 100 24 5 5 2 0 3 5 5 5 5 5 5 98 99 5 9 50 79 76 68 99 100 100 100 100 100 100 100 76 56 91 93 100 100 99 98 65 6 94 81
9 33 98 100 11 1 0 0 0 3 5 5 1 4 5 6 79 17 5 8 98 96 98 100 100 100 100 100 100 100 93 79 69 75 100 100 100 98 87 100 99 100 100 94
44 5 65 73 70 10 4 5 2 0 0 3 5 5 5 56 6 5 5 95 100 97 100 100 100 100 100 100 100 100 100 100 100 100 100 96 100 82 100 100 100 100 100 94
6 67 19 75 5 5 5 5 96 66 6 6 7 29 45 5 5 5 37 60 40 90 100 100 100 100 100 100 100 100 99 100 100 100 92 98 100 100 100 100 100 100 93 69
7 35 43 15 23 52 63 88 41 82 100 100 100 80 14 5 5 13 81 99 86 87 84 100 100 100 100 100 100 100 100 100 100 100 100 100 90 100 94 90 96 63 5 33
6 64 43 5 19 79 55 72 93 62 75 15 6 5 5 7 48 94 89 57 94 93 98 87 100 100 100 100 100 100 100 100 100 100 100 98 100 100 99 91 92 94 81 34
24 24 5 5 10 32 38 96 100 77 5 5 5 5 31 95 99 50 35 83 89 100 100 100 100 100 100 100 100 100 100 100 100 100 100 100 100 100 98 100 100 100 100 100
5 22 5 12 98 98 83 9 5 5 5 6 33 80 99 62 16 37 81 86 100 99 100 100 100 100 100 100 100 100 100 100 100 100 100 100 100 100 100 100 100 100 100 100
38 98 100 100 58 5 5 5 5 5 18 70 93 68 45 6 5 14 91 100 100 100 100 100 100 100 100 100 100 100 100 100 100 100 100 100 100 100 100 100 93 98 100 100
97 57 65 95 100 72 18 30 60 71 66 64 13 15 25 21 45 94 100 100 100 100 100 100 100 100 100 100 100 100 100 100 100 100 100 99 100 100 99 77 31 5 5 5
99 96 11 5 5 5 5 18 13 21 25 5 37 55 92 88 100 100 100 100 100 100 100 100 100 100 100 100 100 100 100 100 100 100 100 100 100 100 99 98 90 37 39 12
100 10 6 6 5 5 5 6 18 44 86 90 100 100 100 100 100 100 100 100 100 100 100 100 100 100 100 100 100 100 100 99 100 100 100 100 100 97 100 100 100 100 94 92
11 5 17 12 25 31 77 97 100 100 100 100 100 100 100 100 100 100 100 100 100 100 100 100 100 100 100 100 100 100 100 100 100 100 100 82 100 85 90 100 100 100 100 100
83 39 52 70 96 100 100 100 100 100 100 99 100 100 100 100 100 100 100 100 100 100 100 100 100 100 100 100 100 100 100 100 91 81 100 83 100 100 100 100 100 100 100 100
100 100 100 100 100 100 100 100 100 99 97 99 97 91 100 100 100 100 100 100 100 100 100 98 100 100 100 100 100 99 89 86 75 74 100 99 98 100 100 100 100 100 99 85
100 100 100 100 100 100 100 67 66 65 89 100 100 100 100 100 100 100 99 100 100 100 100 100 100 100 90 36 36 81 72 100 99 100 94 99 98 100 100 100 100 100 89 100
100 100 100 100 100 100 86 67 78 86 84 88 100 100 100 100 100 100 100 100 94 57 48 59 30 18 5 12 83 87 100 97 89 88 100 98 93 100 100 100 100 98 100 100
100 100 100 100 63 55 93 100 90 80 42 47 64 88 98 74 100 70 72 58 5 4 4 5 5 5 29 5 63 16 84 100 100 93 100 100 100 100 100 100 100 100 100 97
100 97 64 93 96 64 35 53 85 88 60 22 44 23 16 34 5 26 75 5 5 19 7 5 5 5 47 66 67 80 99 100 98 100 100 100 100 100 100 100 100 100 100 100
64 36 20 36 71 67 35 5 5 7 5 6 16 37 85 43 99 85 79 88 91 99 100 100 100 100 84 89 88 77 99 98 87 94 100 100 100 100 100 100 100 100 100 100
43 14 11 15 6 23 16 5 5 10 16 21 39 60 33 69 93 100 90 57 92 81 96 100 100 98 100 100 100 98 100 99 95 100 100 100 100 100 100 100 100 100 100 100
19 13 17 7 5 5 0 0 0 4 5 5 5 5 58 8 10 64 89 11 56 100 100 95 92 98 100 100 100 100 100 100 100 100 100 100 100 100 100 100 100 100 100 100
41 7 5 5 5 5 1 0 0 5 5 5 5 5 6 48 72 11 25 17 62 94 86 74 93 99 100 100 100 100 100 100 100 100 100 100 100 100 100 100 100 100 100 100
5 5 5 5 5 5 5 5 5 4 5 5 5 57 81 95 98 97 90 97 90 97 100 100 99 100 100 100 100 100 100 100 100 100 100 100 100 100 100 100 100 100 100 100
5 5 5 5 5 5 5 5 5 5 26 87 72 98 100 100 100 100 100 100 99 100 100 100 100 100 100 100 100 100 100 100 100 100 100 100 100 100 100 100 100 100 100 100

GFSNGP_prec_cloud_027.txt.gz
Cloud_Cover
2 2 1 0 5 36 5 5 5 1 5 0 5 6 8 5 5 3 4 2 3 84 100 81 5 5 87 100 98 96 84 100 100 87 92 82 100 71 91 100 100 58 63 50
0 0 0 5 5 5 5 5 5 5 12 0 2 5 5 5 5 5 5 2 5 70 10 6 25 5 51 78 99 85 100 100 90 88 100 100 100 100 100 100 100 100 77 97
4 5 5 16 5 5 5 2 0 5 5 5 4 3 3 4 5 5 5 20 10 5 5 20 92 86 96 58 96 100 100 99 94 100 100 100 100 100 100 100 77 43 76 99
13 5 46 7 5 5 5 5 0 5 5 5 5 5 5 5 5 5 49 22 6 16 7 33 69 91 40 100 100 100 100 100 100 100 96 100 100 100 100 100 93 97 100 100
19 0 5 5 22 5 5 3 5 5 5 5 5 5 3 5 5 5 5 5 5 11 80 70 33 49 87 100 100 100 100 100 100 100 100 100 100 100 100 100 100 100 100 100
5 66 68 45 5 5 5 5 8 5 5 5 5 1 2 5 5 5 5 12 34 19 8 36 26 29 99 100 100 100 100 100 98 99 100 100 100 100 100 100 100 100 100 100
5 35 5 5 5 5 5 6 5 5 5 5 5 61 100 77 5 10 21 55 14 58 72 5 16 90 100 100 100 100 100 100 100 100 100 100 100 100 100 100 100 94 100 77
27 63 63 11 36 33 6 5 19 5 5 71 100 65 6 42 86 93 69 100 100 100 94 81 84 94 100 100 100 100 100 100 100 100 100 100 100 100 100 100 100 100 100 95
5 5 7 7 5 5 68 8 29 32 100 49 6 5 12 85 77 89 90 95 39 50 5 17 78 100 100 100 100 100 100 100 100 100 100 100 100 100 100 100 100 100 100 100
7 60 5 5 4 5 5 12 36 13 52 58 24 23 58 60 86 68 40 37 6 9 79 91 100 100 100 100 100 100 100 100 100 100 100 100 100 100 100 100 100 100 100 100
52 8 5 5 40 99 24 5 89 76 5 6 5 5 17 92 67 82 30 13 64 85 100 100 100 100 100 100 100 100 100 100 100 100 100 100 100 100 100 93 94 99 100 100
5 83 100 100 57 5 15 95 11 5 5 5 9 37 32 41 31 63 96 100 100 100 100 100 100 100 100 100 100 100 100 100 100 100 100 100 99 89 81 100 100 81 8 5
100 100 90 61 5 45 78 81 37 61 55 67 71 20 22 55 98 100 100 100 100 100 100 100 100 100 100 100 100 100 100 100 100 100 95 92 99 100 100 100 93 6 5 7
100 48 64 33 26 18 54 73 52 80 86 85 84 76 99 100 100 100 100 100 100 100 100 100 100 100 100 100 100 100 98 93 100 98 100 100 99 100 100 98 79 67 84 52
11 5 5 26 63 100 87 88 80 61 90 65 92 82 94 86 89 88 94 99 100 100 100 100 100 100 100 100 100 77 92 100 100 100 85 96 100 100 91 98 100 94 98 96
78 98 89 75 97 97 89 91 51 48 90 100 59 52 52 49 30 8 16 64 80 99 99 100 100 52 68 100 62 27 83 91 98 89 89 100 100 88 96 100 100 100 100 100
97 100 98 88 68 88 76 79 100 99 100 100 74 22 47 12 5 9 5 5 36 100 100 64 88 33 4 5 5 60 82 89 100 100 100 91 99 100 100 100 100 100 100 100
99 64 98 93 100 100 100 92 96 100 100 100 97 99 100 100 80 11 5 5 100 100 7 4 4 5 5 5 6 22 44 94 100 100 88 44 26 98 100 100 98 100 100 100
97 100 100 100 100 100 100 100 100 100 100 96 93 100 98 100 33 25 48 86 99 58 4 5 14 5 12 6 7 50 100 98 91 100 60 12 8 99 100 100 100 100 100 100
100 100 100 100 100 100 100 100 100 100 93 74 100 100 70 56 96 99 100 100 17 83 100 100 100 98 87 76 76 100 92 96 83 100 100 23 81 98 100 100 100 100 100 100
100 100 100 100 100 100 100 100 93 24 14 5 11 26 23 5 5 5 5 5 5 36 94 96 89 63 9 66 72 99 100 93 100 100 41 51 76 99 100 100 100 100 100 100
100 100 100 100 100 99 58 5 5 5 5 5 5 5 5 5 5 5 28 42 48 44 38 44 52 43 86 91 92 99 99 100 100 100 53 89 88 82 100 100 100 100 100 100
91 79 88 55 17 41 5 0 5 5 5 5 5 5 5 5 5 5 5 44 9 5 17 33 93 19 76 28 72 92 89 92 100 100 100 100 100 100 100 100 100 100 100 100
51 54 35 6 3 0 0 0 0 2 5 5 5 5 5 5 42 69 87 24 78 90 67 41 99 88 26 67 100 100 100 100 100 100 100 100 100 100 100 100 100 100 100 100
46 5 4 2 5 5 0 0 2 5 5 5 6 9 42 87 94 93 99 100 100 99 100 100 100 100 93 100 100 100 100 100 100 100 100 100 100 100 100 100 100 100 100 100
5 5 5 4 5 5 5 18 62 8 5 36 58 92 100 100 100 100 100 100 100 100 100 100 100 100 100 100 100 100 100 100 100 100 100 100 100 100 100 100 100 100 100 100
45 5 5 20 74 60 44 50 42 41 77 100 89 95 100 100 100 100 100 100 100 100 100 100 100 100 100 100 100 100 100 100 100 100 100 100 100 100 100 100 100 100 100 100

GFSNGP_prec_cloud_030.txt.gz
Cloud_Cover
0 28 57 19 13 5 3 0 0 0 0 0 1 24 17 16 0 5 3 3 5 5 86 100 99 59 71 100 100 51 9 80 100 100 100 100 97 100 100 100 100 100 100 100
0 0 2 0 0 0 0 0 2 0 5 0 5 5 5 2 5 5 5 5 5 5 5 14 98 100 100 100 100 27 57 100 100 100 100 99 97 100 100 87 100 100 100 100
0 0 0 0 0 0 0 5 1 7 50 5 0 0 31 0 5 5 5 6 5 5 5 5 60 100 100 100 100 39 100 100 100 100 100 100 100 100 100 100 100 100 100 100
0 0 1 0 0 0 3 0 0 5 29 10 4 2 0 5 5 5 5 11 43 59 14 5 28 45 97 100 100 100 100 100 100 100 94 100 98 93 100 100 100 100 100 100
43 0 0 0 0 0 3 0 9 97 7 3 5 5 5 5 5 5 19 100 51 5 5 5 5 61 82 92 69 85 68 100 100 100 100 100 100 100 100 100 100 100 100 100
0 0 5 0 0 0 0 0 15 6 5 5 5 5 5 5 5 53 100 24 6 5 5 5 5 5 5 5 42 51 87 94 97 100 99 100 100 100 100 100 100 100 100 100
5 33 5 5 3 5 5 6 5 35 5 5 5 28 5 5 62 98 5 5 9 6 19 93 100 86 77 89 98 100 100 100 100 100 100 100 100 100 100 100 100 100 100 100
6 78 63 6 11 42 5 5 35 5 5 5 5 64 23 81 43 75 10 29 93 96 99 100 65 26 55 94 70 95 100 100 100 100 100 100 100 100 100 100 100 100 100 100
5 5 5 24 55 5 59 99 5 5 6 5 65 99 86 59 77 100 75 74 61 100 75 70 96 100 90 99 100 100 100 100 100 100 100 100 100 100 100 100 100 100 100 100
73 17 5 7 5 72 77 5 63 73 98 100 100 22 73 63 95 99 87 93 78 55 89 100 100 100 100 100 100 100 100 100 100 100 100 100 100 100 100 100 100 100 94 88
100 76 45 0 8 28 7 54 100 100 51 92 7 13 27 33 90 99 89 81 100 100 100 100 100 100 100 100 100 100 100 100 100 100 100 100 100 100 100 89 72 93 79 82
52 37 53 3 6 11 93 100 100 97 25 5 5 6 51 50 72 65 100 100 100 100 99 79 65 65 65 76 78 89 100 100 100 100 100 100 96 88 85 5 5 26 51 70
5 5 5 7 93 100 100 100 97 14 5 5 5 39 72 52 100 60 69 11 42 79 18 5 15 63 88 100 100 100 100 100 100 100 99 97 100 42 46 5 5 54 84 100
60 5 37 46 100 100 100 84 5 6 7 13 17 69 53 76 82 87 97 100 75 14 31 22 5 5 5 6 4 4 21 83 78 57 20 9 5 5 22 6 12 5 60 99
73 6 20 90 100 71 42 39 21 61 90 99 82 57 62 99 100 100 100 98 49 54 5 5 5 0 3 3 25 5 5 5 16 34 81 9 36 78 97 47 47 53 97 89
56 93 98 50 54 78 49 78 77 92 100 98 100 100 100 100 100 100 100 100 71 5 5 56 53 4 4 4 2 5 5 5 8 60 39 100 100 100 81 74 78 86 93 99
6 37 80 89 56 100 99 99 94 100 100 100 100 100 100 100 100 100 100 38 30 100 99 52 14 5 5 5 5 7 8 20 6 96 99 49 99 62 39 73 84 100 83 72
100 93 95 100 100 100 100 90 94 95 100 100 100 100 100 100 100 99 82 67 100 100 8 88 64 81 100 92 94 72 25 20 11 61 96 98 65 21 8 23 46 98 87 99
100 100 100 100 100 100 97 92 98 100 100 100 100 100 100 99 96 99 38 20 33 44 85 58 71 47 28 6 60 36 97 100 99 100 91 80 98 45 11 32 30 73 100 100
100 96 100 100 100 100 100 100 100 100 100 100 100 100 55 10 10 5 5 5 17 89 73 9 5 5 5 35 40 5 5 7 46 48 98 100 100 100 66 16 24 79 100 100
100 100 100 100 100 100 100 100 100 100 100 100 48 6 5 5 5 5 5 5 67 5 5 5 5 67 76 6 5 5 9 9 91 82 82 100 100 100 89 97 51 100 100 100
100 100 100 100 100 100 100 100 100 100 94 41 40 5 5 1 3 5 5 26 5 5 5 9 100 62 5 5 45 87 89 100 100 98 84 50 100 100 100 100 95 94 100 100
100 100 100 100 100 100 100 100 94 58 37 11 5 5 5 5 5 5 82 78 47 20 27 95 63 5 5 98 100 100 98 99 100 100 100 100 100 100 100 100 100 100 100 100
100 100 100 100 100 100 100 65 31 5 5 2 5 5 5 5 12 47 17 26 82 43 87 100 65 7 38 99 100 100 100 100 100 100 100 100 100 100 100 100 100 100 100 100
100 100 100 100 100 100 86 10 5 5 5 5 8 9 13 20 71 55 56 95 96 100 100 100 100 64 100 100 100 99 100 100 100 100 100 100 100 100 100 100 100 100 100 100
100 100 100 100 99 60 33 59 76 23 5 26 64 9 49 84 66 74 100 100 100 100 100 100 100 100 99 100 100 100 100 100 100 100 100 100 100 100 100 100 100 100 100 100
100 100 91 90 100 100 91 44 67 63 56 91 79 5 90 95 97 99 99 97 100 100 100 100 100 98 100 100 100 100 100 100 100 100 100 100 100 100 100 100 100 100 100 100

GFSNGP_prec_cloud_033.txt.gz
Cloud_Cover
5 3 5 21 66 5 18 1 1 0 0 0 4 5 0 0 0 1 14 10 0 0 5 5 7 13 9 25 75 100 100 100 100 100 100 100 98 96 100 99 100 97 100 100
0 0 0 5 2 7 4 0 0 0 0 0 4 3 2 0 0 5 5 5 5 2 5 5 14 16 5 5 5 26 64 100 100 100 79 100 34 100 100 100 100 100 100 100
0 0 0 0 0 0 0 0 0 0 0 0 0 0 0 5 75 53 5 5 5 5 5 5 7 5 15 5 13 33 85 88 100 100 100 87 94 100 100 100 100 100 100 100
0 0 0 0 0 0 0 0 0 5 5 0 0 1 2 0 5 5 5 5 18 9 7 93 5 5 5 29 37 78 100 100 100 96 100 100 100 100 100 100 100 100 100 100
0 0 0 0 0 0 0 0 0 5 5 5 5 5 5 5 5 5 5 18 29 5 30 5 5 5 5 5 9 19 96 92 96 100 100 99 100 100 100 100 100 100 100 100
0 0 0 4 0 0 0 1 5 5 3 2 2 5 5 5 5 5 5 5 26 100 68 5 5 5 5 12 8 69 99 97 97 99 100 100 100 100 100 100 100 100 100 100
7 28 5 5 1 0 0 0 2 5 5 5 5 5 5 5 5 5 7 42 42 18 5 5 18 72 98 84 88 99 91 100 100 100 100 100 100 100 100 100 100 100 100 100
67 79 12 5 8 3 2 5 5 5 5 5 5 33 5 5 5 35 96 92 30 5 22 87 96 100 100 100 100 100 100 100 96 99 97 100 100 100 100 100 100 100 100 100
5 5 5 5 5 5 19 18 5 5 5 6 5 5 30 36 100 100 95 74 76 66 100 100 100 100 59 99 100 94 81 96 88 76 99 100 100 100 100 100 100 100 100 100
5 5 5 5 5 11 99 75 16 43 12 8 5 10 93 100 100 83 59 82 100 100 100 100 97 73 58 100 100 87 100 21 82 100 97 100 96 89 89 96 100 86 60 12
18 5 5 5 9 33 85 100 99 61 64 30 42 100 100 100 98 93 100 100 100 92 75 38 23 89 100 100 100 81 22 49 14 5 5 5 0 0 5 5 5 15 5 33
11 96 28 40 100 79 38 6 34 46 6 80 100 100 100 64 73 62 100 100 84 42 49 90 98 100 100 100 100 95 54 13 8 2 0 0 4 5 5 5 0 5 5 52
41 34 81 100 100 90 6 5 5 5 5 8 96 100 60 20 70 38 21 93 68 80 98 100 100 100 100 100 87 5 8 5 5 0 0 5 5 5 5 4 1 0 0 5
100 100 100 100 100 100 99 69 54 18 16 62 42 41 23 24 66 30 51 70 88 100 100 100 100 100 86 8 5 5 3 0 1 5 5 5 5 5 5 5 5 5 5 5
100 100 100 100 98 89 58 24 18 18 39 24 6 20 10 10 27 91 100 100 100 100 100 100 100 25 5 5 5 3 5 5 5 19 86 91 97 100 100 78 5 5 5 9
100 100 100 92 11 31 5 8 8 42 93 100 56 31 41 88 100 100 100 100 100 100 100 100 100 57 53 36 51 70 74 71 77 89 95 88 38 11 55 100 83 48 21 5
99 54 17 19 36 99 68 48 68 99 86 76 100 100 87 58 98 100 100 100 100 100 100 100 99 100 100 98 94 73 62 42 26 79 99 89 76 84 92 100 97 28 28 5
96 65 96 98 100 100 100 82 78 79 99 100 100 100 96 80 100 100 100 100 100 89 85 59 5 5 3 3 14 47 47 5 5 5 5 34 74 100 100 83 67 100 74 24
100 100 100 100 100 85 78 100 95 96 100 94 81 87 100 100 100 100 100 100 100 100 92 51 19 32 88 85 13 5 5 33 71 95 96 72 70 19 83 84 100 100 99 33
100 100 100 76 87 97 100 100 95 100 100 100 100 100 100 100 100 100 100 100 100 78 61 23 96 10 5 5 5 28 100 98 100 89 100 100 92 79 91 100 100 100 100 100
100 94 96 100 100 99 91 100 100 100 100 100 100 100 100 100 100 100 100 100 100 87 8 100 37 5 5 41 94 88 80 100 98 100 100 100 100 100 93 92 100 100 100 100
100 100 100 100 100 100 100 100 100 100 100 100 100 100 100 100 100 100 100 97 48 5 16 97 57 10 5 45 86 84 94 100 94 100 100 100 100 100 100 100 100 100 100 100
100 100 100 100 100 100 100 100 100 100 100 100 100 100 100 100 100 100 70 68 5 5 5 68 69 5 5 10 93 53 98 100 100 100 100 100 100 100 100 100 100 100 100 100
100 100 100 100 100 100 100 100 100 100 100 100 100 100 100 100 74 9 10 10 36 5 48 6 69 19 5 5 51 80 90 100 100 100 100 100 100 100 100 100 100 100 100 100
100 100 100 100 100 100 100 100 100 100 100 98 69 74 50 84 54 20 42 23 32 18 36 5 46 82 51 33 47 57 92 77 98 85 100 100 100 100 100 100 100 100 100 100
100 100 100 100 100 100 100 98 98 89 61 56 27 15 48 100 100 40 5 28 5 74 72 59 77 66 81 66 62 69 95 22 31 100 79 93 100 100 100 100 100 100 100 100
97 100 100 100 100 98 100 100 82 63 72 58 40 28 94 100 84 20 5 6 40 91 82 92 86 31 18 100 76 88 64 5 5 100 19 9 94 100 100 100 100 100 100 100

GFSNGP_prec_cloud_036.txt.gz
Cloud_Cover
100 80 87 100 100 83 6 10 28 0 0 0 0 0 0 2 0 0 0 0 0 0 4 5 2 75 74 97 93 76 100 100 99 99 82 64 16 100 100 100 80 100 100 96
21 93 85 28 1 0 5 5 5 0 2 0 0 5 4 0 0 0 2 0 2 5 0 0 2 5 18 5 59 28 8 100 100 100 100 100 100 100 100 100 100 100 100 100
4 2 4 0 0 0 0 5 19 38 7 0 0 0 0 1 5 5 0 0 0 0 0 1 1 0 2 8 16 53 30 97 100 100 95 34 98 100 90 100 100 100 100 99
5 1 1 0 0 0 0 0 0 0 0 0 0 0 0 1 5 2 3 5 5 5 3 5 5 5 5 27 55 50 100 100 100 100 100 100 100 100 100 100 96 100 100 100
8 3 0 0 0 0 0 0 0 4 5 0 0 0 0 0 0 0 5 5 5 5 5 5 5 67 96 45 30 34 40 95 100 100 100 100 100 100 81 100 100 100 100 100
21 5 4 0 1 0 0 4 5 5 5 5 5 5 5 5 5 5 5 5 5 5 5 30 100 100 71 28 5 5 15 72 99 100 100 100 100 100 100 96 88 56 97 100
64 5 5 0 3 0 5 48 5 5 5 1 5 5 5 5 5 5 26 16 5 45 81 99 61 44 6 46 56 96 100 100 100 100 100 100 100 100 83 95 92 70 6 5
39 62 5 0 4 5 26 75 5 5 5 5 5 5 6 5 5 8 5 5 16 71 100 35 55 91 100 100 100 100 100 100 100 100 100 100 92 62 83 24 5 5 5 5
5 58 35 5 5 5 5 5 5 42 36 51 92 94 47 63 58 33 8 34 38 98 100 98 100 100 100 100 77 97 100 100 100 100 100 100 79 94 94 5 5 5 3 5
8 83 98 30 5 18 9 5 5 5 6 45 62 44 100 97 68 55 74 58 92 100 100 100 100 100 100 94 84 100 100 100 100 100 100 99 89 31 5 5 5 5 5 5
74 53 17 82 20 15 90 96 74 47 78 100 100 100 100 100 100 79 42 100 100 100 100 100 98 54 22 96 100 99 100 100 100 90 83 89 61 28 5 5 1 5 4 1
43 39 58 43 45 27 45 58 99 100 100 100 100 100 100 100 91 64 78 100 100 100 93 19 7 89 80 67 88 100 100 100 94 79 65 43 70 54 5 0 0 2 3 3
100 99 30 8 6 16 54 60 34 81 100 100 100 100 90 62 16 99 100 90 62 23 5 23 74 43 72 100 100 100 100 100 99 97 97 89 42 24 49 3 5 5 39 28
99 96 100 100 82 67 96 100 100 100 100 100 95 62 15 12 5 5 7 37 10 19 7 46 43 60 98 100 100 100 100 100 100 100 100 94 84 46 46 89 88 49 99 100
72 25 50 73 100 100 100 100 100 100 100 100 71 6 5 32 47 33 42 34 52 75 100 81 21 81 100 100 100 100 78 99 100 85 99 100 100 100 100 100 100 100 91 42
100 89 53 41 64 100 100 100 100 99 49 5 7 16 20 49 55 73 93 100 99 100 99 93 100 100 98 100 100 100 100 100 58 44 5 5 5 5 8 35 97 100 100 76
100 100 100 20 31 39 90 99 99 78 52 90 100 76 87 76 91 100 96 88 100 94 88 97 100 100 100 100 100 100 100 57 12 58 100 91 98 100 100 81 52 16 92 99
96 84 78 100 74 94 100 100 87 99 100 100 100 100 100 100 85 72 91 80 82 64 71 99 100 100 100 97 53 14 34 96 98 97 96 97 99 100 100 100 100 100 100 82
100 100 100 100 100 100 100 100 100 100 100 100 100 100 93 96 87 98 99 100 99 100 100 100 100 100 88 56 90 100 50 64 98 80 74 97 100 100 100 100 100 98 100 100
100 100 100 100 100 80 73 98 100 100 100 99 83 90 98 99 98 100 100 100 100 100 100 100 98 76 67 62 91 21 80 100 49 88 100 100 100 100 100 100 100 100 100 100
100 100 100 100 95 100 100 100 100 100 100 99 100 99 92 100 100 100 100 100 100 100 99 82 53 35 5 36 92 7 98 98 72 100 100 100 100 100 100 100 100 100 100 100
100 100 100 100 100 100 100 100 100 100 100 100 100 89 100 100 100 100 100 100 79 45 30 72 43 34 29 54 71 27 85 97 93 99 100 100 100 100 100 100 100 100 100 100
100 100 100 100 100 100 100 100 100 100 100 100 100 100 100 100 100 99 52 86 5 16 12 80 82 53 46 54 65 79 80 50 97 93 100 98 100 100 100 100 100 100 100 100
100 100 100 100 100 100 100 100 100 100 100 100 100 100 100 100 77 55 45 66 79 78 79 64 91 78 57 64 77 90 100 81 58 98 71 48 100 88 100 100 100 100 100 100
100 100 100 100 100 100 100 100 100 100 100 100 100 96 86 94 72 93 74 66 83 77 57 73 90 98 93 100 100 100 100 74 74 100 80 5 81 99 100 100 100 100 100 100
100 100 100 100 100 100 100 100 100 100 100 70 15 35 89 100 96 82 55 52 56 60 63 96 71 48 62 87 94 100 77 48 68 100 49 17 49 70 94 100 100 100 100 100
100 100 100 100 100 100 100 100 100 99 94 46 13 44 100 100 99 92 81 18 92 79 86 95 81 44 5 71 96 96 66 5 75 66 56 69 30 61 97 100 100 100 100 100

GFSNGP_prec_cloud_039.txt.gz
Cloud_Cover
77 52 38 96 9 3 13 28 5 26 9 5 65 91 23 24 2 5 0 5 5 5 75 37 5 8 23 96 100 69 17 87 82 63 100 100 100 94 100 97 89 100 100 100
56 6 44 100 20 6 17 38 5 5 50 4 0 0 0 0 0 0 5 5 2 5 0 2 5 50 100 98 11 61 66 5 46 85 100 100 100 100 100 100 100 100 100 100
1 0 0 20 94 77 18 0 0 4 2 0 0 0 0 0 0 4 4 0 4 5 5 5 5 5 5 22 99 81 8 64 21 93 100 100 100 100 100 100 100 100 100 100
0 0 3 3 0 4 0 0 0 0 0 0 1 1 2 1 5 1 0 0 1 5 5 3 5 5 5 2 4 5 5 36 94 95 100 100 100 100 100 100 100 100 100 100
0 5 4 5 2 4 0 0 0 5 0 0 0 0 0 0 0 4 5 2 5 2 1 5 5 5 5 5 5 8 70 96 100 100 100 100 100 100 100 100 100 100 100 100
11 5 4 5 2 0 0 5 5 5 0 0 0 0 0 0 0 0 0 5 5 5 5 5 5 5 6 21 92 96 95 100 100 100 100 100 100 100 100 100 100 100 100 87
25 5 5 5 1 4 3 4 0 0 0 0 4 5 2 1 2 5 5 8 9 5 5 5 17 68 91 100 100 100 100 100 100 100 100 100 100 100 100 100 100 100 78 100
0 4 5 1 4 1 0 0 0 0 4 5 5 17 9 8 13 51 57 16 5 5 71 97 100 58 78 100 100 100 100 100 100 91 84 98 100 100 100 100 100 100 100 100
1 5 8 5 5 5 5 5 4 2 0 5 5 12 16 6 5 5 5 5 18 100 100 100 89 100 100 99 100 100 96 99 98 95 100 100 100 100 100 94 100 85 100 99
5 96 65 6 5 5 5 5 5 5 5 7 59 78 26 18 5 7 38 93 100 100 100 100 100 100 100 100 99 85 33 9 71 97 71 19 72 46 74 99 83 100 97 8
90 99 43 72 19 6 5 5 5 5 5 41 95 66 58 83 100 99 77 100 100 100 100 100 100 100 87 71 33 5 5 8 5 5 5 9 86 98 95 99 100 100 43 23
90 60 80 86 87 98 78 44 37 34 48 83 99 100 100 100 100 100 100 100 100 100 100 96 92 54 59 18 5 5 5 5 5 5 10 88 99 100 100 100 100 100 80 100
100 99 38 50 100 100 95 100 100 100 100 100 100 100 100 100 100 100 100 100 100 95 63 40 42 22 5 5 5 8 17 37 31 85 100 100 100 100 90 100 100 100 53 5
100 100 100 100 72 47 33 40 74 98 100 100 100 99 94 93 71 54 56 62 59 96 98 24 6 5 5 5 6 20 38 50 100 100 100 100 96 72 95 66 46 6 23 20
100 100 100 100 100 98 40 21 44 41 58 65 62 49 15 27 66 100 95 97 100 100 41 5 9 6 17 54 80 76 100 100 100 99 86 41 62 92 94 96 99 95 36 5
100 100 91 100 100 100 100 52 72 81 41 24 23 59 61 15 16 72 100 100 100 70 80 91 70 77 32 73 81 100 100 100 100 99 95 96 98 100 99 88 99 100 100 100
100 100 100 99 100 100 100 100 100 84 62 92 92 90 83 95 96 94 99 94 89 99 100 75 78 85 79 100 100 100 100 95 32 74 95 56 72 100 100 100 100 100 100 100
100 100 100 100 100 100 100 100 100 99 100 92 98 92 99 100 100 100 97 91 96 85 100 75 32 77 100 99 80 71 43 100 35 5 73 100 100 100 100 100 100 100 90 100
100 100 100 100 100 100 100 100 100 100 100 99 100 100 100 100 100 100 97 98 84 80 99 50 39 67 52 20 20 6 94 81 7 18 96 100 100 100 100 100 100 100 100 100
100 100 100 100 100 100 100 100 100 100 100 100 100 100 100 100 100 100 100 100 100 93 100 99 100 54 15 14 45 5 89 61 56 60 100 99 100 100 100 100 100 100 100 100
100 100 100 100 100 100 100 100 100 100 100 100 100 100 100 100 100 100 100 100 100 100 100 69 37 6 5 29 37 28 77 76 77 88 100 100 100 100 99 100 100 100 100 100
100 100 100 100 99 100 100 100 100 100 100 100 100 100 100 100 100 100 100 99 92 80 52 40 5 33 24 72 28 80 43 44 84 90 96 81 93 100 100 100 100 100 100 100
100 100 100 98 100 100 100 100 100 100 100 100 100 100 100 100 100 100 100 100 100 75 54 78 71 62 73 63 82 100 93 74 77 100 91 64 57 98 99 100 100 100 100 100
100 100 100 100 100 100 100 100 100 100 100 100 100 100 100 100 100 100 99 77 96 100 83 77 100 84 78 100 100 100 100 84 73 96 18 31 42 24 50 81 100 100 100 100
100 100 100 100 100 100 100 100 100 100 100 100 100 100 100 100 100 100 100 100 93 68 79 85 83 65 100 100 100 100 98 50 90 98 92 70 36 18 42 28 97 100 100 100
100 100 100 100 100 100 100 100 100 100 100 100 100 100 100 100 100 100 100 83 73 74 92 100 70 39 27 100 100 100 86 46 99 98 57 55 34 25 47 53 95 100 100 100
100 100 100 100 100 100 100 100 100 100 100 100 100 100 100 100 100 100 94 94 100 100 100 98 96 63 23 88 100 99 100 63 99 98 64 73 29 63 55 68 74 81 86 98

GFSNGP_prec_cloud_042.txt.gz
Cloud_Cover
0 0 4 5 10 3 59 8 4 10 17 5 5 15 100 100 100 4 0 0 0 0 0 4 10 20 14 5 5 4 4 23 7 5 5 61 96 100 100 99 97 100 91 100
0 0 0 5 4 35 27 5 5 5 18 62 5 6 83 100 71 4 0 0 0 0 0 0 0 0 5 5 5 13 67 81 50 51 100 100 97 46 28 100 100 100 100 100
5 5 5 2 0 34 98 100 59 46 84 0 2 5 2 4 2 0 0 0 0 0 3 5 5 5 6 60 99 100 100 93 91 100 100 100 100 100 100 99 100 100 100 100
5 25 5 0 0 0 0 0 5 5 2 0 0 2 5 3 0 2 1 0 5 15 52 19 5 5 42 75 67 25 64 98 85 92 100 100 100 100 100 100 100 100 100 100
87 5 5 5 0 0 0 0 5 0 0 0 0 0 0 0 0 0 0 0 1 5 5 5 5 5 5 5 43 77 82 78 86 100 100 100 100 100 100 100 100 100 100 100
20 4 4 8 0 0 0 3 0 0 0 0 0 0 0 1 1 3 2 2 4 0 5 5 5 5 5 10 49 24 56 59 78 100 100 100 100 100 100 100 100 100 100 100
21 0 5 7 0 1 26 10 0 0 0 0 0 0 0 0 1 3 5 5 5 5 5 5 5 16 61 44 48 60 82 100 100 100 100 100 100 95 94 80 98 85 61 95
1 5 15 6 0 0 5 5 3 5 5 5 0 0 0 0 5 5 5 5 5 10 10 5 5 10 79 94 86 100 100 100 100 100 100 100 83 43 12 43 35 7 65 100
4 6 78 7 0 0 5 5 5 5 5 5 5 2 0 5 5 5 22 53 31 9 6 5 18 58 77 98 100 100 100 100 100 100 78 86 89 33 12 5 5 75 99 100
5 78 98 7 2 3 5 5 5 5 5 5 5 5 5 5 14 5 5 5 5 5 5 41 52 71 89 100 100 99 100 100 99 56 70 51 7 5 6 12 64 100 100 71
40 100 100 25 28 7 5 5 5 5 5 5 2 0 5 5 5 5 5 5 7 8 79 99 100 100 100 99 97 94 82 80 26 24 14 5 5 20 53 53 53 37 15 23
96 100 100 100 100 98 79 20 8 35 49 19 5 5 5 5 10 16 35 81 92 100 100 100 100 100 98 77 73 72 75 44 53 41 27 33 35 78 32 21 11 5 5 11
100 100 100 100 100 100 100 100 100 100 100 100 82 63 88 94 100 100 100 100 100 100 100 99 100 100 100 100 96 66 84 70 16 19 5 6 5 43 81 53 12 5 5 5
100 100 100 100 100 100 100 100 100 100 100 100 100 100 100 100 100 100 100 100 100 100 100 100 88 70 64 23 5 5 12 12 19 16 6 37 42 81 83 100 89 5 5 71
100 100 100 100 100 100 100 100 98 90 73 95 100 100 100 100 100 100 100 100 92 91 75 92 95 95 52 24 54 43 28 49 59 38 59 10 12 6 42 78 100 95 34 5
100 100 100 100 100 100 100 100 100 100 99 100 100 100 86 93 100 100 100 100 99 97 100 100 100 99 97 87 81 71 54 72 52 59 44 47 84 95 100 100 100 100 100 100
100 100 100 100 100 100 100 100 100 100 100 100 100 100 100 100 100 100 100 100 100 100 100 100 86 86 90 84 100 100 100 98 51 65 62 94 96 100 100 100 100 100 100 100
100 100 100 100 100 100 100 100 100 100 100 100 100 100 100 100 100 100 100 100 100 100 100 100 100 99 100 100 100 95 99 65 34 23 74 93 94 87 100 99 100 100 100 100
97 98 100 91 100 100 100 100 100 100 100 100 100 100 100 100 100 100 100 100 100 100 100 100 100 100 100 100 98 76 99 72 51 26 59 41 50 62 100 86 100 100 100 100
100 100 100 100 100 100 100 100 100 100 100 100 100 100 100 100 100 100 100 100 100 100 100 100 100 100 100 100 89 94 98 54 40 21 65 25 53 70 95 38 82 100 100 100
100 100 100 100 100 100 100 100 100 100 100 100 100 100 100 100 100 100 100 100 100 100 100 100 100 100 100 98 99 81 59 89 97 95 100 97 66 21 79 7 60 98 100 100
100 100 100 100 100 100 100 100 100 100 100 100 100 100 100 100 100 100 100 100 100 100 100 100 100 100 100 80 87 100 80 19 37 90 33 35 11 65 80 30 46 99 96 99
100 100 100 100 99 100 100 100 99 100 100 100 100 100 100 100 100 100 100 100 100 100 100 100 100 100 100 100 100 100 63 13 58 100 91 72 56 40 62 65 63 69 85 95
100 100 100 100 100 100 100 100 100 100 100 100 100 100 100 100 100 100 100 100 100 100 100 100 100 100 100 100 100 100 81 58 73 100 56 18 56 52 5 30 42 5 62 75
100 100 100 100 100 100 100 100 100 100 100 100 100 100 100 100 100 100 100 100 100 100 100 100 100 100 100 100 100 100 100 66 83 100 100 81 46 13 5 10 17 56 78 71
100 100 100 100 100 100 100 100 100 100 100 100 100 100 100 100 100 100 100 100 100 100 100 100 100 96 63 98 100 100 100 96 98 100 94 61 38 7 16 5 25 45 58 65
100 100 100 100 100 100 100 100 100 100 100 100 100 100 100 100 100 100 100 100 100 100 100 100 100 99 60 80 100 100 95 100 100 100 100 67 18 24 35 35 40 50 55 58

GFSNGP_prec_cloud_045.txt.gz
Cloud_Cover
0 1 1 5 7 3 0 1 0 91 31 100 5 26 72 100 70 7 13 5 0 1 4 5 5 1 4 6 5 8 17 58 100 100 94 54 22 78 100 98 75 100 100 100
4 0 0 1 0 0 0 0 2 5 44 11 5 5 9 100 82 64 5 5 5 2 0 0 0 3 5 5 5 5 4 9 55 72 9 90 100 100 100 100 92 99 100 100
2 5 4 2 0 0 0 1 1 5 90 47 5 6 61 11 12 100 98 53 5 5 4 0 0 0 3 4 4 1 0 4 73 98 100 100 100 94 100 98 100 100 100 100
5 3 6 0 0 0 0 0 0 65 97 80 68 47 5 5 2 9 56 25 2 0 0 0 0 0 0 3 2 3 5 5 23 67 71 89 100 100 99 100 100 100 99 100
50 5 5 5 0 0 2 5 0 0 0 5 4 5 5 5 0 4 5 2 2 0 0 0 0 1 4 5 5 9 6 5 6 34 87 97 100 100 100 100 100 74 89 91
5 5 7 6 0 0 0 5 0 0 0 5 0 0 0 5 5 4 1 0 0 1 5 5 5 14 62 59 23 6 10 68 93 100 100 94 100 100 100 99 54 82 60 66
5 20 43 98 1 0 0 1 0 0 4 5 2 0 0 0 0 0 0 3 2 4 5 5 5 7 19 22 67 90 100 97 96 89 100 100 100 89 83 43 77 36 47 53
66 48 84 23 5 1 0 0 5 4 5 17 38 4 2 3 0 3 3 0 5 4 5 5 5 5 30 75 74 42 57 95 94 80 22 7 37 46 66 80 78 90 74 90
63 5 5 66 5 3 0 5 5 3 5 67 62 71 13 5 5 5 5 5 5 5 5 5 5 5 5 38 59 28 71 6 5 10 11 18 37 49 90 51 56 80 35 27
82 39 96 31 44 8 10 10 2 5 0 6 22 18 7 5 5 5 5 5 5 5 5 5 50 51 28 77 71 9 9 53 13 5 5 10 9 55 28 12 14 5 15 31
36 99 98 36 40 48 94 5 5 5 5 5 5 5 5 5 5 9 16 28 21 5 5 38 72 96 99 68 46 23 5 15 27 64 48 21 7 5 5 5 5 5 5 5
99 100 23 86 100 100 84 97 10 77 100 90 19 53 68 53 66 82 76 74 81 99 98 100 100 100 40 5 7 5 33 36 26 7 24 6 5 18 50 5 5 5 5 6
100 100 100 95 97 100 100 99 98 100 100 100 99 26 14 15 48 15 14 31 42 97 100 100 66 14 21 42 32 55 40 37 41 47 42 5 5 5 5 5 5 55 37 51
100 100 100 100 100 100 100 100 66 99 100 83 38 100 100 100 100 100 72 69 97 98 76 72 69 41 54 57 93 75 68 27 58 42 5 5 5 5 5 5 5 5 43 46
100 100 100 100 100 100 100 100 100 100 100 100 100 100 100 100 100 100 100 100 98 91 96 82 56 60 81 88 99 99 80 53 45 47 5 5 5 5 5 5 23 5 5 5
100 100 100 100 100 100 100 100 100 100 100 100 100 100 100 100 100 100 98 71 96 100 99 88 100 98 99 92 78 83 76 59 72 59 5 33 46 5 5 59 33 51 68 94
100 100 100 100 100 100 100 100 100 100 100 100 100 100 100 100 100 100 100 100 100 100 100 99 99 100 100 100 70 100 95 84 90 70 80 66 18 57 72 94 84 85 100 100
100 100 100 100 100 100 100 100 100 100 100 100 100 100 100 100 100 100 100 100 100 100 100 100 100 100 100 78 72 94 100 100 94 97 77 68 14 28 99 94 70 85 96 90
100 100 100 100 100 100 100 100 100 100 100 100 100 100 100 100 100 100 100 100 100 100 100 100 100 98 99 100 97 95 100 100 95 90 67 52 54 70 73 81 76 86 97 90
100 100 100 100 100 100 100 100 100 100 100 100 100 100 100 100 100 100 100 100 100 100 100 100 100 100 100 100 100 100 100 100 97 78 88 100 94 51 71 13 40 77 99 100
100 100 100 100 100 100 100 100 100 100 100 100 100 100 100 100 100 100 100 100 100 100 100 100 100 100 100 100 99 100 100 100 90 100 100 90 77 94 65 74 86 95 100 100
100 100 100 100 100 100 100 100 100 100 100 100 100 100 100 100 100 100 100 100 100 100 100 100 100 100 100 100 100 100 100 100 100 99 100 100 95 83 78 87 98 100 100 100
100 100 100 100 100 100 100 100 100 100 100 100 100 100 100 100 100 100 100 100 100 100 100 100 100 100 100 100 100 100 100 100 100 100 92 100 94 95 57 28 40 100 100 100
100 100 100 100 100 100 100 100 100 100 100 100 100 100 100 100 100 100 100 100 100 100 100 100 100 100 100 100 100 100 100 100 86 74 96 77 100 91 66 14 5 16 93 100
100 100 100 100 100 100 100 100 100 100 100 100 100 100 100 100 100 100 100 100 100 100 100 100 100 100 100 100 100 99 93 100 100 100 100 100 100 100 89 69 65 60 70 100
100 100 100 100 100 100 100 100 100 100 100 100 100 100 100 100 100 100 100 100 100 100 100 100 100 100 100 100 73 31 82 100 100 100 100 100 100 99 94 63 75 88 96 99
100 100 100 100 100 100 100 100 100 100 100 100 100 100 100 100 100 100 100 100 100 100 100 100 100 100 100 98 97 100 100 100 94 100 100 100 100 100 92 86 93 98 100 100

GFSNGP_prec_cloud_048.txt.gz
Cloud_Cover
5 5 5 5 5 18 55 5 4 1 4 11 5 5 9 21 33 27 9 5 5 18 96 100 100 100 50 95 94 68 77 99 98 99 99 100 89 84 77 80 93 100 100 100
100 9 5 5 0 22 91 9 0 0 0 4 5 5 1 5 39 25 21 77 99 5 5 6 58 85 65 21 17 7 36 31 69 88 97 85 48 28 5 8 74 35 45 81
100 5 5 50 1 5 58 60 3 5 0 0 0 5 5 5 5 16 75 77 100 99 44 33 6 5 5 0 3 0 0 0 11 52 27 40 18 5 39 55 89 100 100 96
76 7 51 83 5 3 5 8 5 5 5 1 4 5 54 85 60 48 5 0 90 73 60 45 6 5 0 0 0 0 2 0 0 1 5 25 38 80 89 89 100 100 100 100
16 39 97 100 29 3 5 16 5 5 2 3 0 5 5 5 5 5 5 5 0 0 0 0 0 0 0 2 5 5 5 5 5 5 5 34 36 72 98 100 100 100 100 100
75 100 100 100 5 0 4 45 5 0 0 0 5 0 5 5 5 0 4 5 5 5 2 5 5 5 5 5 5 5 5 5 27 68 81 98 100 100 100 85 57 91 49 48
100 72 100 100 27 5 5 5 3 0 3 0 0 4 2 30 12 6 5 5 5 5 5 5 5 5 9 17 34 38 47 70 93 99 83 100 100 97 89 100 72 69 15 5
99 32 99 100 5 5 9 5 2 1 0 5 4 2 3 5 23 58 56 24 20 5 6 15 6 7 29 69 68 65 79 72 86 100 100 100 100 100 94 53 39 11 5 22
98 82 100 100 98 85 5 5 16 29 0 5 5 5 4 4 5 10 10 16 54 62 48 18 48 56 17 42 48 82 99 100 100 98 96 100 100 77 8 5 5 7 19 5
92 99 100 100 100 92 18 5 100 78 5 5 5 5 5 5 4 5 8 60 81 85 87 85 88 100 100 99 96 84 85 72 89 89 79 48 5 29 62 94 66 93 46 5
70 100 100 100 98 47 38 100 100 100 100 100 9 5 58 5 5 38 35 59 75 84 78 63 40 75 32 34 52 38 39 33 30 9 23 5 8 58 23 8 5 5 5 5
100 100 100 99 95 34 57 100 100 100 100 87 98 12 37 5 5 5 5 5 28 56 71 71 27 30 61 23 6 17 5 5 16 22 14 98 83 6 12 5 5 5 5 5
100 100 100 100 100 100 66 82 86 100 100 98 100 84 16 7 6 5 82 99 100 100 54 71 89 100 21 5 5 5 5 5 23 60 68 81 68 75 53 5 5 29 10 49
100 100 100 100 100 100 73 100 100 97 84 96 100 97 99 100 100 100 100 100 100 100 71 100 98 98 92 94 65 64 76 77 89 81 58 30 45 5 5 5 5 5 14 5
100 100 100 100 100 100 100 100 100 75 98 95 74 81 84 100 100 100 100 74 87 100 100 100 100 100 100 98 100 79 84 100 88 74 40 5 5 5 5 11 10 5 5 5
100 100 100 100 100 100 100 100 100 100 100 100 100 100 100 100 100 100 100 81 100 100 100 100 100 100 100 100 88 99 100 100 96 95 74 53 30 36 52 75 35 38 36 95
100 100 100 100 100 100 100 100 100 100 100 100 100 100 100 100 100 100 100 100 100 100 100 100 100 100 100 100 100 100 100 100 100 94 100 100 94 99 94 74 63 62 94 100
100 100 100 66 58 97 100 100 100 100 100 100 100 100 100 100 100 100 100 100 100 100 100 100 100 100 100 100 100 100 100 100 100 100 100 100 97 84 84 88 80 90 100 98
100 100 100 100 100 100 100 100 100 100 100 100 100 100 100 100 100 100 100 100 100 100 100 100 100 100 100 100 100 100 100 100 100 100 100 100 97 100 100 100 100 100 100 100
100 100 100 100 100 100 100 100 100 100 100 100 100 100 100 100 100 100 100 100 100 100 100 100 100 100 100 100 100 100 100 100 96 100 100 94 100 100 100 81 93 100 100 100
100 100 100 100 100 100 100 100 100 100 100 100 100 100 100 100 100 100 100 100 100 100 100 100 100 100 100 100 100 100 100 100 100 100 100 100 100 100 100 100 100 100 100 100
100 100 100 100 100 100 100 100 100 100 100 100 100 100 100 100 100 100 100 100 100 100 100 100 100 100 100 100 100 100 100 100 100 100 100 100 100 100 100 100 100 100 100 100
100 100 100 100 100 100 100 100 100 100 100 100 100 100 100 100 100 100 100 100 100 100 100 100 100 100 100 100 100 100 100 100 100 100 100 100 100 100 100 100 100 100 100 100
100 100 100 100 100 100 100 100 100 100 100 100 100 100 100 100 100 100 100 100 100 100 100 100 100 100 100 100 100 100 100 100 100 100 100 100 100 100 100 100 100 100 100 100
100 100 100 100 100 100 100 100 100 100 100 100 100 100 100 100 100 100 100 100 100 100 100 100 100 100 100 100 100 100 100 100 100 100 100 100 100 100 100 100 100 100 100 100
100 100 100 100 100 100 100 100 100 100 100 100 100 100 100 100 100 100 100 100 100 100 100 100 100 100 100 100 100 100 100 100 100 100 100 100 100 100 100 100 100 100 100 100
100 100 100 100 100 100 100 100 100 100 100 100 100 100 100 100 100 100 100 100 100 100 100 100 100 99 100 100 100 100 100 100 100 100 100 100 100 100 100 100 100 100 100 100

GFSNGP_prec_cloud_051.txt.gz
Cloud_Cover
100 100 100 100 100 71 100 100 92 36 96 100 98 100 92 96 73 14 100 96 13 4 2 0 0 7 100 100 100 100 82 65 95 100 100 100 100 100 100 100 100 100 100 100
100 100 50 100 100 58 94 99 96 100 98 100 90 0 5 4 2 1 7 82 5 15 22 100 29 10 90 60 83 92 83 69 60 55 83 80 78 78 90 73 85 74 50 55
70 100 46 92 100 91 5 5 22 57 64 49 100 24 4 0 3 0 0 4 5 5 4 0 16 44 7 41 38 52 5 3 0 1 1 2 5 5 45 52 59 86 100 93
100 100 18 100 100 55 5 5 11 81 97 12 18 5 1 2 2 3 5 5 5 4 0 0 5 6 5 7 13 8 5 5 5 5 15 23 40 62 75 87 92 100 100 100
96 96 100 100 100 94 5 5 6 98 60 5 5 0 0 0 0 0 0 0 5 5 0 5 5 5 3 5 7 5 5 20 60 68 75 69 86 98 100 100 95 78 95 100
100 99 57 100 100 98 2 20 1 93 16 65 5 5 5 0 0 0 0 3 5 5 5 5 4 5 5 5 5 5 5 5 5 26 49 100 80 71 100 100 100 95 22 85
100 100 86 100 100 100 7 100 99 28 13 67 64 5 5 0 1 4 5 0 3 13 13 19 5 5 5 5 5 11 9 19 40 87 89 51 99 88 44 65 96 87 98 96
100 92 68 100 100 100 85 12 12 0 21 39 6 4 5 4 5 3 5 5 5 5 7 54 67 72 68 63 62 68 74 79 99 100 99 97 81 97 100 54 58 18 81 51
100 100 100 100 100 100 99 10 5 5 43 95 53 42 59 7 5 5 5 5 5 5 4 5 10 45 85 91 99 100 99 29 68 60 76 71 69 74 46 58 27 5 5 4
100 100 100 100 100 100 100 100 94 5 84 100 65 100 100 100 100 16 5 5 5 6 6 8 39 52 71 80 71 60 11 41 15 11 59 13 56 74 68 8 10 7 8 5
92 100 100 100 100 100 100 95 100 42 44 99 57 74 100 100 100 100 92 16 5 21 10 10 16 69 100 65 41 97 91 62 16 5 10 39 49 5 5 7 16 5 16 32
100 100 100 100 100 100 100 100 77 69 5 5 6 58 100 100 100 100 100 100 22 35 9 5 10 100 100 100 86 6 5 5 28 97 93 55 42 5 6 5 5 26 6 38
100 100 100 100 100 100 100 100 52 22 30 5 9 68 42 89 100 100 100 100 41 69 58 65 100 100 100 98 90 97 100 94 80 88 95 100 90 6 5 33 100 100 100 75
100 100 100 100 100 100 100 99 100 67 99 73 95 64 47 26 100 100 100 91 95 99 22 75 100 96 68 100 89 100 100 100 100 100 100 96 72 58 100 100 100 100 80 34
100 100 100 100 100 100 100 100 100 93 100 86 81 96 88 98 63 100 100 100 100 95 66 97 99 94 100 100 100 100 100 100 100 100 100 100 100 100 100 100 100 93 99 98
100 100 100 100 100 100 100 100 100 98 100 99 100 100 100 100 100 100 100 99 99 99 100 100 100 100 100 100 100 100 100 100 100 100 100 100 100 100 100 100 100 100 98 94
100 100 100 100 100 100 100 100 100 100 100 100 100 100 100 100 100 100 100 100 100 100 100 100 100 100 100 100 100 100 100 100 100 100 100 100 100 100 100 100 100 96 92 100
100 100 100 100 100 100 100 95 100 100 100 100 100 100 100 100 100 100 100 100 100 100 100 100 100 100 100 100 100 100 100 100 100 100 100 100 100 100 100 100 99 100 100 100
100 100 100 100 100 100 100 100 100 100 100 100 100 100 100 100 100 100 100 100 100 100 100 100 100 100 100 100 100 100 100 100 100 100 100 100 100 100 100 100 100 100 100 100
100 100 100 100 100 100 100 100 100 100 100 100 100 100 100 100 100 100 100 100 100 100 100 100 100 100 100 100 100 100 100 100 100 100 100 100 100 100 100 100 100 100 100 100
100 100 100 100 100 100 100 100 100 100 100 100 100 100 100 100 100 100 100 100 100 100 100 100 100 100 100 100 100 100 100 100 100 100 100 100 100 100 100 100 100 100 100 100
100 100 100 100 100 100 100 100 100 100 100 100 100 100 100 100 100 100 100 100 100 100 100 100 100 100 100 100 100 100 100 100 100 100 100 100 100 100 100 100 100 100 100 100
100 100 100 100 100 100 100 100 100 100 100 100 100 100 100 100 100 100 100 100 100 100 100 100 100 100 100 100 100 100 100 100 100 100 100 100 100 100 100 100 100 100 100 100
100 100 100 100 100 100 100 100 100 100 100 100 100 100 100 100 100 100 100 100 100 100 100 100 100 100 100 100 100 100 100 100 100 100 100 100 100 100 100 100 100 100 100 100
100 100 100 100 100 100 100 100 100 100 100 100 100 100 100 100 100 100 100 100 100 100 100 100 100 100 100 100 100 100 100 100 100 100 100 100 100 100 100 100 100 100 100 100
100 100 100 100 100 100 100 100 100 100 100 100 100 100 100 100 100 100 100 100 100 100 100 100 100 100 100 100 100 100 100 100 100 100 100 100 100 100 100 100 100 100 100 100
100 100 100 100 100 100 100 100 100 100 100 100 100 100 100 100 100 100 100 100 100 100 100 100 100 100 100 100 100 100 100 100 100 100 100 100 100 100 100 100 100 100 100 100

GFSNGP_prec_cloud_054.txt.gz
Cloud_Cover
88 100 100 100 100 100 100 100 100 100 85 5 56 93 48 72 56 100 6 35 11 3 40 95 8 0 21 4 90 80 29 58 64 51 100 100 100 100 100 100 100 100 100 100
95 100 100 100 100 100 100 100 98 100 37 5 95 100 73 79 62 26 5 5 5 0 0 13 10 11 0 5 5 5 14 64 99 100 100 100 100 100 100 100 90 45 3 5
100 100 100 70 100 100 100 100 100 100 100 97 71 98 96 36 5 5 5 0 0 2 18 62 41 25 100 66 82 17 5 11 66 84 85 73 81 64 8 18 34 79 81 39
100 100 40 78 100 100 100 100 40 100 74 5 94 57 58 96 10 3 0 0 0 1 0 18 16 13 40 62 76 16 1 4 5 5 5 5 13 48 12 14 22 60 100 100
86 97 64 11 100 100 100 100 74 100 80 45 36 87 6 5 5 5 0 0 0 0 0 0 0 2 1 4 0 4 5 3 5 5 5 8 83 100 100 100 62 100 76 26
100 94 43 99 100 100 100 28 100 100 100 7 82 13 5 5 4 4 1 0 0 0 0 0 0 0 2 45 58 69 49 12 5 5 15 36 90 96 84 21 71 99 11 11
100 89 80 100 100 100 100 98 100 61 77 100 88 5 5 5 5 5 5 5 2 0 5 4 0 5 5 4 1 4 5 10 16 8 43 79 64 49 36 55 36 5 5 5
97 88 35 100 100 100 100 100 96 23 98 100 95 26 5 5 5 12 52 57 90 62 5 5 5 5 5 5 5 5 4 6 12 84 74 62 54 40 15 14 23 30 37 34
100 36 17 99 100 100 100 100 100 94 100 100 100 100 81 34 5 51 63 73 100 100 90 100 100 93 5 5 5 11 10 100 92 36 42 77 71 88 99 73 34 34 14 34
100 80 91 100 100 100 100 50 100 100 100 90 29 100 71 5 5 5 24 33 95 100 79 100 100 90 42 5 6 33 54 74 100 96 67 99 100 80 100 51 16 98 94 89
99 92 100 100 100 100 100 100 96 100 100 100 84 100 16 4 5 5 42 13 44 100 100 100 100 100 88 95 41 56 97 75 82 96 94 68 63 49 100 98 99 92 100 100
97 100 100 100 100 100 100 100 100 100 100 100 100 100 84 5 5 5 8 58 40 100 100 100 100 100 100 79 86 98 100 100 100 94 92 96 100 89 100 100 100 100 100 100
100 100 100 100 100 100 100 100 100 100 100 100 100 100 100 5 5 5 5 39 56 96 100 83 91 100 100 99 100 100 100 78 94 100 100 100 88 100 100 100 100 100 100 100
100 100 100 100 100 100 100 100 100 100 97 100 100 100 100 96 93 81 7 25 56 45 100 100 100 100 100 100 89 100 100 100 100 100 100 100 100 100 100 100 100 100 100 100
100 100 100 100 100 100 100 100 100 100 82 100 100 100 97 100 99 88 39 67 96 100 95 98 100 100 100 98 100 100 100 100 100 100 100 100 100 100 100 100 100 100 100 100
100 100 100 100 100 100 100 100 100 100 100 100 100 100 100 98 89 100 100 98 98 100 100 100 100 100 100 100 100 100 100 100 100 100 100 100 100 100 100 100 100 100 100 100
100 100 100 100 100 100 100 100 100 100 100 100 100 100 100 100 100 100 100 100 100 100 100 100 100 100 100 100 100 100 100 100 100 100 100 100 100 100 100 100 100 100 100 100
100 100 100 100 100 100 100 100 100 100 100 100 100 100 100 100 100 100 100 100 100 100 100 100 100 100 100 100 100 100 100 100 100 100 100 100 100 100 100 100 100 100 100 100
100 100 100 100 100 100 100 100 100 100 100 100 95 100 100 100 100 100 100 100 100 100 100 100 100 100 100 100 100 100 100 100 100 100 100 100 100 100 100 100 100 100 100 100
100 100 100 100 100 100 100 100 100 100 100 100 100 100 100 100 100 100 100 100 100 100 100 100 100 100 100 100 100 100 100 100 100 100 100 100 100 100 100 100 100 100 100 100
100 100 100 100 100 100 100 100 100 100 100 100 100 100 100 100 100 100 100 100 100 100 100 100 100 100 100 100 100 100 100 100 100 100 100 100 100 100 100 100 100 100 100 100
100 100 100 100 100 100 100 100 100 100 100 100 100 100 100 100 100 100 100 100 100 100 100 100 100 100 100 100 100 100 100 100 100 100 100 100 100 100 100 100 100 100 100 96
100 100 100 100 100 100 100 100 100 100 100 100 100 100 100 100 100 100 100 100 100 100 100 100 100 100 100 100 100 100 100 100 100 100 100 100 100 100 100 100 100 100 100 100
100 100 100 100 100 100 100 100 100 100 100 100 100 100 100 100 100 100 100 100 100 100 100 100 100 100 100 100 100 100 100 100 100 100 100 100 100 100 100 100 100 100 100 100
100 100 100 100 100 100 100 100 100 100 100 100 100 100 100 100 100 100 100 100 100 100 100 100 100 100 100 100 100 100 100 100 100 100 100 100 100 100 100 100 100 100 100 100
100 100 100 100 100 100 100 100 100 100 100 100 100 100 100 100 100 100 98 100 100 93 99 100 100 100 100 100 100 100 100 100 100 100 100 100 100 98 100 100 100 100 100 100
100 100 100 100 100 100 100 100 100 100 100 100 100 100 100 100 100 100 100 100 100 100 100 100 100 100 100 100 100 99 100 100 100 100 95 99 100 100 100 100 100 100 95 99

GFSNGP_prec_cloud_057.txt.gz
Cloud_Cover
77 100 100 100 100 100 35 91 66 100 100 100 91 100 100 97 27 89 11 5 0 0 2 5 3 0 0 5 4 28 100 90 100 100 100 100 88 100 100 100 100 100 100 100
32 100 100 100 100 83 75 97 100 100 100 100 100 100 100 75 33 6 29 5 0 0 0 1 0 0 0 5 44 52 79 97 95 100 100 74 96 100 100 100 100 100 100 100
8 100 100 100 100 100 100 100 100 93 100 100 93 100 100 100 67 7 5 6 11 0 0 0 0 4 0 44 4 0 22 50 71 73 83 100 100 100 100 100 100 91 75 8
97 100 97 100 100 100 100 100 100 100 100 100 100 100 99 100 46 5 6 27 0 0 0 0 1 0 0 2 0 1 33 51 100 93 64 100 66 17 8 2 3 2 23 35
96 100 100 100 100 100 100 100 100 100 100 100 100 99 53 100 76 46 5 5 0 0 0 0 1 1 2 0 0 0 13 0 4 0 3 5 5 21 5 5 47 100 95 34
52 20 77 100 100 100 100 100 100 100 100 100 99 28 50 99 63 67 5 2 0 5 0 0 1 5 0 0 0 0 5 4 20 5 24 5 11 80 100 27 33 5 5 13
100 100 11 82 100 100 100 100 100 100 100 85 100 66 99 96 100 67 19 1 0 1 5 5 3 5 1 2 1 0 0 5 4 5 5 4 38 75 10 13 16 37 34 23
100 100 81 100 100 100 100 100 100 100 82 100 100 73 100 64 57 100 100 79 5 5 5 5 5 5 5 13 10 5 4 5 5 5 4 5 5 5 5 5 5 5 5 35
100 58 28 100 82 100 100 100 100 82 10 26 7 34 100 100 100 100 12 99 27 5 5 5 5 5 5 28 5 5 29 26 6 5 5 41 8 67 97 85 98 85 68 25
81 99 100 100 100 100 100 100 100 100 84 100 100 100 100 99 100 52 5 100 99 27 5 5 5 20 8 8 5 35 100 100 100 10 5 29 14 86 96 84 98 100 100 87
44 100 100 100 100 100 100 100 100 100 97 100 100 100 100 100 100 100 100 62 100 100 5 5 6 44 23 51 13 26 100 100 92 44 13 75 98 97 80 93 81 100 98 100
85 100 100 100 99 100 100 100 100 100 99 94 100 100 100 100 100 100 99 100 100 94 22 6 5 36 34 49 77 93 100 100 51 90 100 100 100 99 100 100 100 100 100 100
100 100 100 97 100 88 100 100 100 100 100 100 49 58 97 100 100 73 88 100 100 100 99 100 67 92 100 100 100 98 92 88 100 100 100 100 100 100 100 100 100 100 100 100
23 41 25 98 100 100 100 100 100 100 100 100 100 60 72 94 100 100 100 100 100 100 100 100 100 100 100 100 100 100 100 100 100 100 100 100 100 100 100 100 100 100 100 100
36 100 88 98 100 100 100 100 100 100 100 100 100 98 98 100 100 100 100 100 100 100 97 100 100 100 100 100 100 100 100 100 100 100 100 100 100 100 100 100 100 100 100 100
100 100 100 100 100 100 100 100 100 100 100 100 100 100 100 100 100 100 100 100 100 100 100 100 100 100 100 100 100 100 100 100 100 100 100 100 100 100 100 100 100 100 100 100
100 100 100 100 100 100 100 100 100 100 100 100 100 100 100 100 100 100 100 100 100 100 100 100 100 100 100 100 100 100 100 100 100 100 100 100 100 100 100 100 100 100 100 100
100 100 100 100 100 100 100 100 100 100 100 100 100 100 100 100 100 100 100 100 100 100 100 100 100 100 100 100 100 100 100 100 100 100 100 100 100 100 100 100 100 100 100 100
100 100 100 100 100 100 100 100 100 100 100 100 100 100 100 100 100 100 100 100 100 100 100 100 100 100 100 100 100 100 100 100 100 100 100 100 100 100 100 100 100 100 100 100
100 100 100 100 100 100 100 100 100 100 100 100 100 100 100 100 100 100 100 100 100 100 100 100 100 100 100 100 100 100 100 100 100 100 100 100 100 100 100 100 100 100 100 100
100 100 100 100 100 100 100 100 100 100 100 100 100 100 100 100 100 100 100 100 100 100 100 100 100 100 100 100 100 100 100 100 100 100 100 100 100 100 100 100 100 100 100 100
100 100 100 100 100 100 100 100 100 100 100 100 100 100 100 100 100 100 100 100 100 100 100 100 100 100 100 100 100 100 100 100 100 100 100 100 100 100 100 100 100 100 100 100
100 100 100 100 100 100 100 100 100 100 100 100 100 100 100 100 100 100 100 100 100 100 100 100 100 100 100 100 100 100 100 100 100 100 100 100 100 100 100 94 100 100 100 100
100 100 100 100 100 100 100 100 100 100 100 100 100 100 100 100 100 100 100 100 100 100 100 100 100 100 100 100 100 100 100 100 100 100 100 96 99 100 100 100 100 100 100 100
100 100 100 100 100 100 100 100 100 100 99 98 99 100 100 100 100 100 100 100 100 100 100 100 100 100 100 100 100 100 100 100 100 100 100 100 100 99 88 78 100 100 100 100
100 100 100 100 100 100 100 100 100 100 100 100 100 100 100 100 100 100 100 98 96 100 100 100 100 100 100 100 100 100 80 86 77 85 66 81 81 68 67 82 87 88 88 86
100 100 100 100 100 100 99 100 98 99 100 100 100 100 100 100 100 100 100 89 95 93 75 63 97 91 64 55 64 30 59 31 53 98 94 38 53 98 93 80 58 48 55 53

GFSNGP_prec_cloud_060.txt.gz
Cloud_Cover
100 100 100 100 94 100 100 78 86 98 100 100 22 23 49 48 84 100 100 26 3 15 5 0 0 0 0 0 1 15 100 100 100 100 100 100 100 100 100 100 100 100 100 100
92 100 100 85 82 96 100 100 100 100 100 100 98 40 13 92 100 96 94 71 5 1 0 4 0 1 33 97 47 76 100 100 100 100 100 100 100 100 100 100 100 100 100 100
17 98 100 98 10 64 98 98 100 100 100 100 92 50 33 21 100 18 59 42 84 5 23 3 0 0 7 92 100 80 94 100 100 100 100 100 100 100 100 100 100 100 100 100
100 100 100 99 14 15 86 100 100 100 100 100 98 100 100 50 81 73 57 64 70 53 17 3 0 0 21 72 100 100 100 100 100 100 100 100 100 100 100 100 100 100 100 100
100 100 34 28 100 81 74 100 100 100 100 100 100 96 68 46 72 100 89 88 18 6 93 18 9 11 10 34 66 95 100 100 100 100 100 100 100 100 100 100 93 40 14 1
100 100 100 5 71 100 100 100 100 100 100 100 100 48 79 100 100 100 42 5 37 45 6 5 7 16 5 24 7 34 47 43 66 100 100 99 67 5 5 5 5 19 23 19
100 100 82 68 28 100 91 72 100 100 100 100 100 99 98 94 99 100 93 50 28 5 3 0 29 32 5 7 16 26 45 20 44 58 14 5 5 2 2 3 5 14 21 72
100 100 100 100 100 88 81 100 100 100 100 100 100 39 100 87 95 100 100 99 82 5 0 0 0 4 5 2 7 19 23 5 5 5 3 1 1 33 43 17 4 9 5 11
100 100 100 100 100 100 70 96 100 100 97 100 100 100 100 100 100 100 100 100 100 100 3 5 5 5 100 99 22 5 5 32 21 5 5 6 6 58 30 30 14 7 5 6
100 100 100 100 100 100 100 100 100 100 100 100 100 100 100 100 100 100 100 100 91 93 5 50 98 100 100 100 100 100 70 32 28 24 73 78 48 20 35 29 7 22 99 89
100 100 100 100 98 44 100 69 98 100 100 100 89 71 100 100 100 100 100 100 100 100 71 98 100 100 100 100 100 100 100 100 100 99 100 76 66 100 100 100 100 100 92 100
100 100 100 100 90 94 100 100 100 100 100 100 100 100 100 100 100 100 98 100 100 100 100 100 100 100 100 100 100 100 100 100 100 100 100 100 97 100 100 100 100 100 100 100
100 100 100 100 100 100 100 100 100 100 100 100 100 100 100 100 100 99 100 100 100 100 100 100 100 100 100 100 100 100 100 100 100 100 100 100 100 100 100 100 100 100 100 100
100 100 100 100 100 100 100 100 100 100 100 100 100 77 100 100 99 100 100 100 100 100 100 100 100 100 100 100 100 100 100 100 100 100 100 100 100 100 100 100 100 100 100 100
59 100 100 100 100 84 79 98 95 100 100 100 100 100 100 100 100 100 100 97 100 100 100 100 100 100 100 100 100 100 100 100 100 100 100 100 100 100 100 100 100 100 100 100
100 100 100 100 34 42 32 100 100 100 100 100 100 100 100 100 100 100 100 100 100 100 100 100 100 100 100 100 100 100 100 100 100 100 100 100 100 100 100 100 100 100 100 100
100 100 100 89 100 100 100 100 100 100 100 100 100 100 100 100 100 100 100 100 100 100 100 100 100 100 100 100 100 100 100 100 100 100 100 100 100 100 100 100 100 100 100 100
100 100 100 100 100 100 100 100 96 89 100 100 100 100 100 100 100 100 100 100 100 100 100 100 100 100 100 100 100 100 100 100 100 100 100 100 100 100 100 100 100 100 100 100
100 100 100 100 100 100 100 100 100 100 100 100 100 100 100 100 100 100 100 100 100 100 100 100 100 100 100 100 100 100 100 100 100 100 100 100 100 100 100 100 100 100 100 100
100 100 100 100 100 100 100 100 100 100 100 100 100 100 100 100 100 100 100 100 100 100 100 100 100 100 100 100 100 100 100 100 100 100 100 100 100 100 100 100 100 100 100 100
100 100 100 100 100 100 100 100 100 100 100 100 100 100 100 100 100 100 100 100 100 100 100 100 100 100 100 100 100 100 100 100 100 100 100 100 100 100 100 100 100 100 100 100
100 100 100 100 100 100 100 100 100 100 100 100 100 100 100 100 100 100 100 100 100 100 100 100 100 100 100 100 100 100 100 100 100 100 100 100 100 100 100 100 100 100 100 98
100 100 100 100 100 100 100 100 100 100 100 100 100 100 100 100 100 100 100 100 100 100 100 100 100 100 100 100 100 100 100 100 100 100 100 100 100 100 100 89 96 98 98 98
100 100 100 100 100 100 100 100 100 100 100 100 100 100 100 100 100 100 100 100 100 100 100 100 98 98 99 93 99 100 100 99 100 100 100 94 81 60 98 100 100 88 77 100
100 100 100 100 100 100 100 100 100 100 100 100 100 100 100 100 100 100 100 100 100 100 100 99 95 89 93 100 96 77 100 100 100 98 97 98 100 100 100 100 97 85 83 82
100 100 100 100 100 100 100 100 100 100 100 100 100 100 100 100 100 100 100 100 100 91 100 100 93 96 99 91 92 90 91 99 100 100 100 100 100 100 100 100 99 93 93 100
100 100 100 100 100 100 100 95 98 100 90 77 97 100 99 96 98 95 97 96 99 94 81 67 34 34 39 60 44 74 96 90 30 10 22 90 100 100 98 61 68 83 96 100

GFSNGP_prec_cloud_063.txt.gz
Cloud_Cover
100 100 100 100 100 100 100 100 100 100 100 100 85 99 95 64 48 6 12 5 12 90 66 4 0 0 0 0 0 0 0 58 100 88 77 100 100 100 100 100 100 100 100 100
100 100 100 100 100 100 100 100 100 100 100 100 100 100 100 54 78 5 88 5 5 5 6 5 12 64 0 2 3 0 0 0 76 100 100 100 100 100 100 100 100 100 100 100
16 100 100 96 100 100 100 100 92 19 96 100 100 99 100 80 47 21 47 53 5 9 5 5 5 52 13 4 4 0 0 1 44 100 100 100 100 100 100 100 100 100 100 100
100 100 100 52 67 100 100 88 62 88 100 100 100 100 100 100 100 90 100 100 7 83 26 14 2 9 33 33 21 10 27 58 92 100 100 100 100 100 100 100 100 100 100 100
100 90 14 7 100 100 100 100 99 60 90 100 100 100 100 100 100 86 53 94 7 11 5 5 16 82 99 100 100 100 100 100 100 100 100 100 100 100 100 100 100 100 100 100
100 100 62 4 100 100 100 92 100 100 35 95 64 100 100 100 100 99 100 100 100 100 68 37 52 48 100 100 100 100 100 100 100 100 100 100 100 100 100 100 100 100 100 100
100 98 42 70 100 100 100 74 100 75 6 5 22 100 100 100 100 100 100 100 99 100 100 100 99 28 95 100 100 100 100 100 100 100 100 100 100 100 100 100 100 100 100 100
74 86 100 100 100 100 93 99 100 100 55 23 64 25 99 100 100 100 100 100 100 100 100 100 100 100 100 89 97 100 100 100 100 100 100 100 100 100 100 93 100 100 100 100
2 90 100 100 100 100 100 100 98 100 68 16 85 25 90 100 100 100 100 100 100 100 100 100 100 100 100 99 22 47 91 100 100 100 100 100 89 28 40 54 100 100 100 100
1 0 3 100 100 100 100 100 97 100 72 84 59 87 95 100 100 100 100 100 100 100 100 100 100 100 100 74 54 72 100 100 100 100 100 90 100 100 100 100 95 86 84 82
0 76 100 100 100 100 100 100 100 100 100 100 100 100 100 100 100 100 100 100 100 100 100 100 83 99 100 100 100 100 100 100 100 100 100 100 100 100 100 100 94 94 90 100
0 79 100 100 100 100 100 100 100 100 100 99 100 100 100 77 88 100 100 100 100 100 100 100 100 100 100 100 100 100 100 100 100 100 100 100 100 100 100 100 100 100 100 100
100 98 100 100 100 100 100 100 100 100 100 100 100 100 100 100 100 100 100 100 100 100 100 100 100 100 100 100 100 100 100 100 100 100 100 100 100 100 100 100 100 100 100 100
75 27 100 100 100 100 100 100 100 100 96 97 100 100 100 100 100 100 100 100 100 100 99 100 100 100 100 100 100 100 100 100 100 100 100 100 100 100 100 100 100 100 100 100
98 100 100 100 100 100 100 100 100 100 100 100 100 100 100 100 100 100 100 100 100 100 100 100 100 100 100 100 100 100 100 100 100 100 100 100 100 100 100 100 100 100 100 100
100 100 100 100 100 100 100 100 100 100 61 96 100 100 100 100 100 100 100 100 100 100 100 100 100 100 100 100 100 100 100 100 100 100 100 100 100 100 100 100 100 100 100 100
100 100 100 100 100 100 100 100 100 100 100 100 100 100 100 100 100 100 100 100 100 100 100 100 100 100 100 100 100 100 100 100 100 100 100 100 100 100 100 100 100 100 100 100
100 100 100 100 100 100 100 100 100 100 100 100 100 97 96 100 100 100 100 100 100 100 100 100 100 100 100 100 100 100 100 100 100 100 100 100 100 100 100 100 100 100 100 100
100 100 100 100 100 100 100 100 100 100 100 100 100 100 100 100 100 100 100 100 100 100 100 100 100 100 100 100 100 100 100 100 100 100 100 100 100 100 100 100 99 99 100 100
100 100 100 100 100 100 100 100 100 100 100 100 100 100 100 100 100 100 100 100 100 100 100 100 100 100 100 100 100 100 100 100 100 100 100 100 100 100 100 96 100 100 100 100
100 100 100 100 100 100 100 100 100 100 100 100 100 100 100 100 100 100 100 100 100 100 100 100 100 100 100 100 100 100 100 100 100 100 100 100 100 100 100 100 100 100 100 100
100 100 100 100 100 100 100 100 100 100 100 100 100 100 100 100 100 100 100 100 100 100 100 100 100 100 100 100 100 100 100 100 100 100 100 100 100 100 100 100 100 100 100 100
100 100 100 100 100 100 100 100 100 100 100 100 100 100 100 100 100 100 100 100 100 100 100 100 100 100 100 100 100 100 100 100 100 100 100 100 100 100 100 100 100 100 100 96
100 100 100 100 100 100 100 100 100 100 100 100 100 100 100 100 100 100 100 100 100 100 100 100 100 96 99 100 100 100 98 100 100 100 100 97 100 100 100 100 100 100 100 94
100 100 100 100 100 100 100 100 100 100 100 100 100 100 100 100 100 100 100 100 98 88 96 80 100 100 100 100 100 100 100 100 100 100 100 100 100 100 100 100 100 99 100 100
100 100 100 100 100 100 100 100 100 100 100 100 100 100 100 100 100 100 94 91 97 100 100 100 98 80 68 81 100 100 100 93 100 100 100 100 100 100 100 78 86 78 91 100
100 100 100 100 100 100 100 100 100 100 100 100 100 100 100 100 100 79 84 87 39 42 72 82 33 9 32 87 100 100 75 53 57 50 99 100 100 100 100 100 100 100 100 100

GFSNGP_prec_cloud_069.txt.gz
Cloud_Cover
100 100 100 81 33 86 100 27 5 81 5 34 100 100 100 100 100 19 100 100 100 100 33 33 11 11 5 5 5 12 25 5 5 0 0 6 54 45 37 60 10 94 81 100
100 100 100 100 100 100 100 37 9 5 80 14 69 100 100 100 100 96 100 100 100 100 100 93 100 98 26 69 6 9 26 5 5 5 5 3 1 71 90 14 11 6 66 50
100 100 100 100 100 100 100 100 100 100 100 100 100 96 100 100 100 100 100 100 100 100 100 100 100 98 95 100 62 9 5 68 4 5 6 7 6 1 0 12 74 100 92 100
83 89 53 100 100 100 100 100 100 100 100 100 100 100 100 100 100 100 100 100 100 100 100 100 100 100 99 55 33 60 30 86 96 26 9 14 38 59 60 100 100 100 100 100
48 73 54 96 100 100 100 99 86 10 100 100 6 21 100 100 100 100 100 100 100 100 98 100 100 100 100 100 99 98 78 32 32 17 100 44 82 100 100 100 100 100 100 100
100 28 17 84 100 98 100 100 100 100 28 5 32 100 100 100 100 100 100 100 100 100 100 100 100 100 100 100 100 100 100 99 77 92 50 100 100 100 100 100 100 100 100 100
90 68 4 5 4 8 51 77 10 93 100 98 5 16 70 100 100 100 100 100 100 87 100 100 100 100 100 100 100 100 100 99 98 100 100 100 100 100 100 100 100 100 100 100
84 73 47 0 0 2 0 2 1 1 4 7 12 32 100 39 100 99 97 100 100 100 100 100 100 100 100 100 100 100 100 100 100 100 100 100 100 100 100 100 100 100 100 100
7 2 0 0 10 1 0 0 0 0 5 5 50 61 92 100 100 92 25 51 100 100 100 100 100 100 100 100 100 100 100 100 100 100 100 100 100 100 100 100 100 100 100 100
0 0 0 0 0 0 0 0 0 0 5 20 5 100 11 26 40 92 100 100 90 100 100 100 100 100 100 100 100 100 100 100 100 100 100 100 100 100 100 100 100 100 100 100
0 0 0 0 0 43 0 0 0 0 0 0 6 94 96 100 67 100 100 100 100 100 100 100 100 100 100 100 100 100 100 100 100 100 100 100 100 100 100 100 100 100 100 100
0 46 98 85 3 88 5 5 0 0 3 3 5 90 98 98 100 100 100 100 100 100 100 100 100 100 100 100 100 100 100 100 100 100 100 100 100 100 100 100 100 100 100 100
74 90 46 83 93 100 96 10 4 2 5 7 15 100 100 100 87 100 100 100 100 100 100 100 100 100 100 100 100 100 100 100 100 100 100 100 100 100 100 100 100 100 100 100
100 99 100 100 100 100 87 34 3 16 43 68 100 100 100 100 100 100 100 100 100 100 100 100 100 100 100 100 100 100 100 100 100 100 100 100 100 100 100 100 100 100 100 100
100 100 100 100 100 95 100 99 98 61 98 100 100 100 100 100 100 100 100 100 100 100 100 100 100 100 100 100 100 100 100 100 100 100 100 100 100 100 100 100 100 100 100 100
78 90 100 100 100 100 100 100 100 96 100 100 100 100 100 100 100 100 100 100 100 100 100 100 100 100 100 100 100 100 100 100 100 100 100 100 100 100 100 100 100 100 100 100
100 100 100 100 96 100 100 100 100 100 100 100 100 100 100 100 100 100 100 100 100 100 100 100 100 100 100 100 100 100 100 100 100 100 100 100 100 100 100 100 100 100 100 100
93 100 100 100 100 100 100 100 100 100 100 100 100 100 100 100 100 100 100 100 100 100 100 100 100 100 100 100 100 100 100 100 100 100 100 100 100 100 100 100 100 100 100 100
100 100 100 100 100 100 100 100 100 100 100 100 100 100 100 100 100 100 100 100 100 100 100 100 100 100 100 100 100 100 100 100 100 100 100 100 100 100 100 100 100 100 100 100
100 100 100 100 100 100 100 100 100 100 100 100 100 91 99 100 100 100 100 100 100 100 100 100 100 100 100 100 100 100 100 100 100 100 100 100 100 100 100 100 100 100 100 100
100 100 100 100 100 100 100 100 100 100 100 100 98 100 100 100 100 100 100 100 100 100 100 100 100 100 100 100 96 100 100 100 100 100 100 100 100 100 100 100 100 100 100 100
100 100 100 100 100 100 100 100 100 100 100 100 100 100 100 100 100 100 100 100 100 100 100 100 100 100 100 100 100 100 100 100 100 100 100 100 100 97 100 100 100 100 100 100
100 100 100 100 100 100 100 100 100 100 100 100 100 100 100 100 100 100 100 100 100 99 100 100 100 100 100 100 100 100 100 100 100 100 100 100 100 100 100 97 100 100 92 74
100 100 100 100 100 100 100 100 100 100 100 100 100 100 100 100 100 100 100 100 100 100 100 100 100 100 100 100 100 100 100 100 100 100 100 100 100 100 100 94 100 74 73 56
100 100 100 100 100 100 100 100 100 100 100 100 100 100 100 100 100 100 100 100 100 100 100 100 100 100 100 100 100 100 93 72 93 98 98 100 100 100 99 94 73 57 67 84
100 100 100 100 100 100 100 100 100 100 100 100 100 100 100 100 100 100 100 100 100 100 100 100 100 100 100 100 100 66 29 29 11 29 75 98 100 99 82 63 55 62 77 88
100 100 100 100 100 100 100 100 100 100 100 100 100 100 100 100 100 100 97 72 53 41 43 73 90 95 97 92 90 90 93 93 76 93 100 99 90 83 62 65 75 83 94 97

GFSNGP_prec_cloud_072.txt.gz
Cloud_Cover
100 100 100 100 100 100 100 77 86 100 100 100 100 100 100 100 100 100 100 100 87 22 5 40 100 99 93 34 5 5 10 53 5 5 5 1 0 1 46 13 5 5 5 47
100 100 100 100 100 100 100 100 100 100 100 14 81 100 100 100 100 100 100 100 100 30 42 100 94 100 75 100 100 11 5 5 5 27 6 5 4 0 1 3 11 5 5 5
100 100 100 100 98 100 100 100 100 100 85 18 6 47 94 100 90 98 99 14 100 100 100 100 100 100 100 58 76 42 25 6 6 25 36 6 18 45 25 17 26 6 11 31
100 100 100 100 100 100 100 100 100 100 86 5 5 37 54 72 100 91 100 98 51 100 100 100 100 100 100 100 100 100 97 69 17 67 97 28 23 5 28 36 66 59 55 56
67 100 100 100 100 100 100 100 100 100 100 100 98 99 100 87 100 100 98 100 100 100 97 100 100 100 100 100 100 100 100 97 99 94 99 100 100 95 64 93 92 97 100 100
100 75 100 100 100 100 100 100 100 55 8 5 16 100 100 100 100 100 100 100 100 100 100 100 100 100 100 100 100 100 100 100 100 100 100 100 100 100 100 100 100 100 100 100
98 97 94 55 80 98 91 78 16 22 7 13 10 21 17 84 88 100 100 100 100 100 100 100 100 100 100 100 100 100 100 100 100 99 99 99 100 100 100 100 100 100 100 100
95 100 99 5 6 59 71 91 100 80 15 6 5 5 5 5 4 56 100 100 100 100 100 100 100 100 100 100 100 100 100 100 100 100 99 100 100 100 100 100 100 100 100 100
53 92 25 13 2 6 4 5 2 4 5 5 0 0 0 4 6 47 5 8 70 99 100 100 100 100 100 100 100 100 100 100 100 100 100 100 100 100 100 100 100 100 100 100
34 6 3 4 0 0 0 0 0 0 0 0 0 0 0 0 1 4 5 8 92 100 100 100 100 100 100 100 100 100 100 100 100 100 100 100 100 100 100 100 100 100 100 100
4 5 5 0 0 0 0 0 0 0 0 0 0 0 1 31 5 9 58 11 100 100 100 100 100 100 100 100 100 100 100 100 100 100 100 100 100 100 100 100 100 100 100 100
5 5 1 0 4 53 10 35 21 0 0 0 0 0 0 14 73 78 97 100 100 100 100 100 100 100 100 100 100 100 100 100 100 100 100 100 100 100 100 100 100 100 100 100
7 53 99 99 98 100 100 79 10 4 0 1 9 57 74 85 78 41 64 100 100 100 100 100 100 100 100 100 100 100 100 100 100 100 100 100 100 100 100 100 100 100 100 100
57 54 34 99 100 100 100 95 54 52 38 52 89 100 100 100 90 97 100 100 100 100 100 100 100 100 100 100 100 100 100 100 100 100 100 100 100 100 100 100 100 100 100 100
100 99 100 100 100 100 100 100 100 100 97 83 100 97 100 100 100 100 100 100 100 100 100 100 100 100 100 100 100 100 100 100 100 100 100 100 100 100 100 100 100 100 100 100
43 62 100 100 100 100 92 100 100 100 100 100 100 100 100 100 100 100 100 100 100 100 100 100 100 100 100 100 100 100 100 100 100 100 100 100 100 100 100 100 100 100 100 100
78 82 76 94 94 88 91 100 100 100 100 100 100 100 100 100 100 100 100 100 100 100 100 100 100 100 100 100 100 100 100 100 100 100 100 100 100 100 100 100 100 100 100 100
100 100 100 100 100 96 100 100 100 100 100 100 100 100 100 100 100 100 100 100 99 100 100 100 100 100 100 100 100 100 100 100 100 100 100 100 100 100 100 100 100 100 100 100
100 100 100 100 99 100 100 100 100 100 100 100 100 100 100 100 100 100 100 100 100 100 100 100 100 100 100 100 100 100 100 100 100 100 100 100 100 100 100 100 100 100 100 100
100 100 100 100 100 100 100 100 100 100 100 100 100 100 100 100 100 100 100 100 100 100 100 100 100 100 100 100 100 100 100 100 100 100 100 100 100 100 100 100 100 100 100 100
100 100 100 100 100 100 100 100 100 100 100 100 100 100 100 100 100 100 100 100 100 100 100 100 100 100 100 100 88 100 100 100 100 100 100 100 100 100 100 100 100 100 100 100
100 100 100 100 100 100 100 100 100 100 100 100 100 100 100 100 100 100 99 99 100 99 98 88 72 85 92 100 99 94 100 98 100 100 100 100 100 100 100 100 100 100 100 100
100 100 100 100 100 100 100 100 100 100 100 100 100 100 100 100 100 99 93 93 92 90 88 94 98 94 96 100 99 99 100 100 100 100 100 100 100 100 100 100 100 100 100 100
100 100 100 100 100 100 100 100 100 100 100 100 100 100 100 100 100 100 99 94 86 87 76 91 92 95 100 100 100 100 100 100 100 100 100 100 100 100 100 100 100 100 100 100
100 100 100 100 100 100 100 100 100 100 100 100 100 100 100 100 100 100 100 96 99 100 72 51 82 100 100 100 100 100 100 100 99 100 100 100 100 100 100 100 100 100 100 100
100 100 100 100 100 100 100 100 100 100 100 100 100 100 100 100 100 100 100 100 100 100 100 100 100 100 100 100 100 100 100 100 100 100 100 100 100 100 100 100 100 100 100 100
100 100 100 100 100 100 100 100 100 100 100 100 100 100 100 100 100 100 100 100 100 100 100 100 100 92 100 100 100 100 100 100 64 99 100 100 100 100 100 100 100 100 100 100

GFSNGP_prec_cloud_075.txt.gz
Cloud_Cover
100 100 100 100 100 100 100 100 100 100 100 100 100 100 100 100 100 100 100 100 95 19 57 90 47 5 5 11 15 18 44 19 15 5 5 0 5 7 41 3 0 0 3 2
100 100 100 100 100 100 100 100 100 100 100 100 100 98 100 100 100 100 100 100 100 100 20 92 95 86 36 5 6 7 100 100 85 5 5 5 4 5 8 30 5 5 5 1
100 100 100 100 100 100 100 100 100 100 100 97 98 91 100 100 100 100 100 100 100 100 100 100 80 93 100 100 39 89 100 100 100 100 92 23 4 5 38 7 5 6 6 5
100 100 100 100 100 100 100 100 100 100 100 78 37 59 100 100 100 100 100 100 100 92 100 100 95 74 99 100 100 43 100 100 100 100 68 50 7 5 5 5 12 95 57 53
100 100 100 76 100 100 100 100 100 100 100 100 98 100 100 74 100 100 100 100 100 100 100 100 100 100 61 97 100 28 100 100 100 100 100 69 34 91 58 24 18 91 100 99
100 100 100 100 100 100 100 81 100 100 100 100 100 100 100 100 100 100 75 100 100 100 100 100 100 100 100 100 100 100 100 100 100 100 100 100 100 100 61 100 100 98 100 100
100 100 100 100 100 100 100 100 99 99 100 100 100 100 100 94 91 99 100 98 100 100 100 100 100 100 100 100 100 100 100 100 100 100 100 100 100 100 100 98 100 100 100 100
100 100 100 100 100 90 61 92 100 100 100 100 100 60 8 80 100 100 100 100 100 100 100 100 100 100 100 100 100 100 100 100 100 100 100 100 100 100 100 100 100 100 100 100
100 100 100 97 96 92 62 40 19 5 5 6 6 5 4 5 3 4 9 11 5 28 96 100 100 100 100 100 100 100 100 100 100 100 100 100 100 100 100 100 100 100 100 100
92 99 98 100 96 71 10 5 5 5 5 2 2 3 2 0 33 0 0 0 0 21 63 100 100 100 100 100 100 100 100 100 100 100 100 100 100 100 100 100 100 100 100 100
81 88 84 100 33 23 1 1 18 10 23 0 0 0 0 0 0 5 8 20 50 80 89 73 100 90 100 100 100 100 100 100 100 100 100 100 100 100 100 100 100 100 100 100
88 68 8 61 20 21 4 47 99 49 46 14 15 6 15 55 72 71 84 99 99 100 69 90 100 100 100 100 100 100 100 100 100 100 100 100 100 100 100 100 100 100 100 100
35 93 64 0 33 29 11 19 100 100 53 29 73 95 99 100 100 100 100 100 100 100 100 100 82 100 100 100 100 100 100 100 100 100 100 100 100 100 100 100 100 100 100 100
31 11 9 15 80 64 39 7 63 96 74 77 88 91 100 100 100 100 100 100 100 100 100 100 100 100 100 100 100 100 100 100 100 100 100 100 100 100 100 100 100 100 100 100
100 100 76 98 100 100 97 96 37 43 74 94 91 98 100 100 100 100 100 100 100 100 100 100 100 100 100 100 100 100 100 100 100 100 100 100 100 100 100 100 100 100 100 100
100 100 100 100 100 98 95 88 81 98 100 100 99 99 100 100 100 100 100 100 100 100 100 100 100 100 100 100 97 100 100 100 100 100 100 100 100 100 100 100 100 100 100 100
97 97 80 100 100 100 100 100 100 100 100 99 100 100 100 100 100 100 100 100 100 100 100 100 100 100 100 100 100 100 100 100 100 100 100 100 100 100 100 100 100 100 100 100
100 100 100 100 100 100 100 100 100 100 100 100 100 100 100 100 100 100 100 100 100 100 100 100 100 100 100 100 100 100 100 100 100 100 100 100 100 100 100 100 100 100 100 100
100 100 100 100 100 100 100 100 100 100 100 100 100 100 100 100 100 100 100 100 100 100 100 100 100 100 100 100 100 100 100 100 100 100 100 100 100 100 100 100 100 100 100 100
100 100 100 100 100 100 100 100 100 100 100 100 100 100 100 100 100 100 100 100 100 100 100 100 100 100 100 100 100 100 100 100 100 100 100 100 100 100 100 100 100 100 100 100
100 100 100 100 100 100 100 100 100 100 100 100 100 100 100 100 100 100 100 100 99 96 97 77 80 67 14 6 52 100 100 100 100 100 100 100 100 100 100 100 100 100 100 100
100 100 100 100 100 100 100 100 100 100 100 100 100 100 100 100 100 100 99 96 87 65 63 43 59 90 79 77 96 100 100 100 100 100 100 100 100 100 100 100 100 100 100 100
100 100 100 100 100 100 100 100 100 100 100 100 100 100 100 100 100 100 99 88 99 100 100 100 100 100 100 100 100 100 100 100 100 100 100 100 100 100 100 100 100 100 100 100
100 100 100 100 100 100 100 100 100 100 100 100 100 100 100 100 100 100 100 100 100 100 100 100 100 100 100 100 100 100 100 100 100 100 100 100 100 100 100 100 100 100 100 98
100 100 100 100 100 100 100 100 100 100 100 100 100 100 100 100 100 100 100 100 98 100 100 98 100 100 100 100 100 100 100 100 100 100 100 100 100 100 100 100 100 100 100 100
100 100 100 100 100 100 100 100 100 100 100 100 100 100 100 100 100 100 100 100 100 100 100 100 100 100 100 100 100 100 100 100 100 100 100 100 100 100 100 100 100 100 100 100
100 100 100 100 100 100 100 100 100 100 100 100 100 100 100 100 100 100 100 100 100 100 100 100 100 100 100 100 100 100 100 100 100 90 100 100 100 100 100 100 100 100 100 100

GFSNGP_prec_cloud_078.txt.gz
Cloud_Cover
100 100 100 100 100 100 100 100 100 100 100 100 100 100 100 100 100 100 100 97 48 98 79 100 100 84 62 5 5 3 5 5 4 5 5 72 86 3 1 8 18 8 19 8
100 100 100 100 100 100 100 100 100 100 100 100 100 100 100 77 100 85 100 100 100 100 98 100 100 92 76 12 5 5 5 5 5 5 5 34 100 100 100 5 0 2 12 41
100 100 100 100 100 100 100 100 100 100 100 100 100 57 100 100 92 100 100 100 100 100 100 100 100 100 86 21 22 5 5 6 5 5 85 100 72 100 100 100 11 5 5 23
100 100 100 100 100 100 100 100 100 100 100 100 100 99 99 100 62 100 100 100 100 100 100 100 100 100 100 99 100 46 83 100 99 88 50 96 93 71 100 95 100 99 15 5
100 100 100 100 100 100 100 100 100 100 100 100 100 100 100 100 100 100 100 100 89 61 100 100 100 100 100 100 100 95 50 85 100 100 97 100 69 100 100 87 100 99 57 61
98 100 100 100 100 100 100 100 98 100 100 100 100 100 100 100 100 100 100 83 100 100 60 100 95 72 58 84 100 100 100 97 100 100 100 96 96 100 100 100 100 100 100 100
100 96 100 100 99 100 100 100 100 100 100 100 100 100 100 100 100 100 100 100 100 100 100 100 100 100 85 100 100 100 95 96 100 85 100 100 98 89 94 100 100 100 100 100
100 90 100 100 100 100 100 100 100 100 100 100 100 100 100 100 100 100 100 100 100 100 100 100 100 100 100 100 100 100 100 100 100 100 98 100 100 100 96 95 100 100 100 100
100 100 100 100 100 100 100 100 100 99 94 100 100 86 44 88 100 100 100 100 100 100 100 100 100 100 100 100 100 100 100 100 100 100 100 100 100 100 100 100 100 100 100 100
100 100 100 100 100 100 100 100 100 100 100 100 100 100 100 100 100 100 100 100 100 100 100 100 100 100 100 100 100 100 100 100 100 100 100 100 100 100 100 100 100 100 100 100
100 100 100 100 100 100 100 100 100 100 100 91 93 94 79 73 42 48 58 80 100 100 100 100 100 100 100 100 100 100 100 100 100 100 100 100 100 100 100 100 100 100 100 100
100 100 100 100 100 100 100 61 32 66 47 24 6 25 68 96 100 100 100 100 100 100 100 100 100 100 100 100 99 54 98 100 100 100 100 100 100 100 100 100 100 100 100 100
100 100 100 94 100 100 100 100 86 10 5 5 25 56 100 100 99 100 100 100 98 100 100 100 100 100 100 100 100 79 96 100 100 100 100 100 100 100 100 100 100 100 100 100
100 100 57 98 79 69 85 81 56 44 33 31 76 85 90 100 100 100 100 100 100 100 100 100 100 100 100 100 100 100 98 96 100 100 100 100 100 100 100 100 100 100 100 100
100 100 100 100 100 100 65 9 61 49 79 85 96 97 98 100 98 100 100 100 94 97 100 100 100 100 100 100 100 99 94 100 100 100 100 100 100 100 100 100 100 100 100 100
100 100 100 100 100 95 87 99 97 100 100 100 100 100 100 100 100 100 100 100 99 98 100 100 100 100 100 100 100 90 100 100 100 100 100 100 100 100 100 100 100 100 100 100
100 100 100 100 100 100 100 100 100 100 100 100 100 100 100 100 100 99 100 100 100 100 100 100 100 100 100 100 100 100 100 100 100 100 100 100 100 100 100 100 100 100 100 100
99 94 100 100 100 100 100 100 100 100 100 100 100 96 98 100 100 100 98 100 100 100 100 100 100 100 100 100 100 100 100 100 100 100 100 100 100 100 100 100 100 100 100 100
100 100 100 100 100 100 100 100 100 100 100 96 99 100 100 100 100 99 97 87 92 100 100 100 100 100 100 100 100 100 100 100 100 99 92 98 100 100 100 100 100 100 100 100
100 100 100 100 100 100 99 100 99 98 100 95 96 100 100 100 100 88 88 91 73 100 100 100 100 100 100 100 100 100 100 100 100 98 84 80 96 100 100 100 100 100 100 100
99 99 100 99 88 92 100 97 95 100 100 91 96 100 100 100 100 100 94 100 100 100 100 100 100 100 100 100 100 71 99 85 66 98 100 100 97 88 98 76 82 87 93 100
100 100 98 96 100 99 99 100 100 100 100 100 100 100 100 100 100 100 100 100 100 100 100 100 100 100 100 100 84 63 58 70 93 81 69 85 87 86 93 51 83 87 99 99
100 100 99 100 99 100 100 100 100 100 100 100 100 100 100 100 100 100 100 100 100 100 100 96 92 73 88 98 99 100 99 94 97 98 97 85 97 88 43 91 100 96 15 98
100 100 100 100 100 100 100 100 100 100 100 100 100 100 100 100 100 100 100 100 100 100 100 100 100 100 100 100 100 100 100 100 100 100 100 100 100 100 96 98 98 97 100 99
96 94 96 99 100 100 100 100 100 100 100 100 100 100 100 100 100 100 100 100 100 100 100 100 100 100 100 100 99 99 100 87 79 97 100 100 100 100 100 100 100 82 100 100
100 100 99 95 100 100 100 100 100 100 100 100 100 100 100 100 100 100 100 100 100 100 100 100 100 93 92 100 100 95 100 88 29 77 100 100 100 100 100 100 100 100 100 100
99 100 100 100 100 100 100 100 100 100 97 100 100 100 100 100 74 100 93 100 100 100 100 100 97 70 50 87 100 100 100 100 100 77 100 100 100 100 100 98 100 100 100 100

GFSNGP_prec_cloud_081.txt.gz
Cloud_Cover
100 100 100 100 100 100 100 100 100 100 100 100 100 100 100 100 100 100 100 100 100 24 29 42 51 15 53 100 100 56 5 7 6 10 5 12 6 5 0 0 4 5 4 11
100 100 100 100 100 100 100 100 100 100 100 100 100 100 100 100 100 71 100 100 100 94 100 100 99 90 100 100 100 96 95 72 29 13 32 20 8 8 5 1 13 36 100 100
100 100 100 100 100 100 100 100 100 100 100 100 100 100 100 100 98 97 100 95 100 100 100 97 53 98 57 95 40 74 100 94 60 35 5 5 69 83 82 80 23 5 64 100
100 100 100 100 100 100 100 100 100 100 64 100 100 100 81 95 71 100 100 100 100 100 100 99 100 11 49 69 18 7 5 73 100 95 56 26 5 5 5 5 5 5 25 8
100 100 100 100 100 100 100 100 100 100 89 91 100 100 100 100 100 100 100 100 93 100 67 28 56 61 92 100 92 56 60 94 99 87 100 100 98 78 90 54 60 91 88 100
96 100 100 100 100 100 100 100 100 100 100 100 100 100 100 100 94 100 100 100 100 100 100 100 100 100 100 100 100 100 100 100 100 100 100 100 100 100 100 100 100 100 100 100
32 86 100 100 100 100 100 96 72 100 100 100 100 100 100 100 100 100 100 100 100 100 100 100 100 100 100 100 100 100 89 99 100 100 100 100 100 89 99 100 93 100 100 100
85 94 97 100 100 100 100 100 100 83 100 100 100 100 100 100 100 100 100 100 100 100 100 100 100 100 100 100 100 100 97 95 100 100 100 100 100 100 100 90 100 100 100 100
48 83 70 100 100 100 100 100 100 100 100 100 100 100 100 100 100 100 100 100 100 100 100 100 100 100 100 100 100 100 100 100 100 100 48 98 100 100 100 100 100 100 100 100
100 87 100 100 100 100 100 100 100 100 100 100 100 100 100 100 97 100 100 100 100 100 100 100 100 100 100 100 100 100 100 100 100 100 100 100 100 100 100 100 100 100 100 100
100 100 100 100 100 100 100 100 100 100 100 100 100 100 100 100 100 100 100 100 100 98 100 100 100 100 100 100 100 100 100 99 100 99 88 100 100 100 100 100 100 100 100 100
100 100 100 100 100 100 100 100 100 91 100 94 96 100 100 100 100 100 100 100 100 100 100 100 100 100 100 100 100 100 100 100 98 97 100 100 100 100 100 100 100 100 100 100
100 100 100 100 100 100 100 98 99 100 100 100 96 75 87 99 100 100 100 100 100 98 96 100 100 99 100 100 100 100 100 100 92 95 100 100 100 98 100 100 100 100 100 100
100 100 100 100 100 100 100 100 100 100 100 100 92 91 72 87 80 100 100 100 100 100 86 98 93 92 100 97 99 100 96 85 95 93 97 100 100 100 100 100 100 100 100 100
100 100 98 100 100 100 100 100 100 100 100 100 100 100 100 98 100 100 96 86 92 94 100 100 99 100 99 90 94 100 100 94 90 98 100 100 100 100 100 100 100 100 100 100
92 100 100 100 100 95 71 99 100 100 100 100 100 100 100 99 100 100 100 100 100 100 100 100 94 100 100 93 75 76 94 91 91 100 100 100 100 100 100 100 100 100 100 100
100 100 82 100 99 100 95 96 100 100 100 100 100 99 90 84 82 92 100 100 100 100 100 100 100 100 93 87 94 99 91 84 100 100 100 100 100 100 100 100 100 100 100 100
93 99 94 93 100 100 100 100 100 100 100 100 100 100 100 100 100 99 95 99 100 99 98 79 73 61 68 82 74 89 96 100 100 100 100 100 100 100 100 100 100 100 100 100
97 100 98 99 82 78 93 99 100 98 96 87 83 95 98 100 100 99 96 91 94 96 89 85 82 72 63 89 100 100 100 100 100 100 100 97 100 100 100 100 100 100 100 100
86 66 81 100 90 72 98 93 79 84 87 71 69 73 97 100 100 100 100 100 97 91 100 100 97 100 100 77 100 100 100 100 100 100 100 100 100 100 100 100 100 100 96 100
86 75 88 98 100 79 77 79 81 89 96 90 83 100 96 100 100 100 100 100 100 100 100 100 100 100 100 100 96 100 100 100 100 100 100 100 100 69 82 75 84 89 98 90
58 60 72 69 80 91 84 89 100 99 86 90 97 100 97 99 100 100 100 100 100 100 100 100 100 100 100 100 92 100 100 100 100 100 100 90 72 75 92 40 31 84 98 95
100 96 96 98 97 100 100 89 88 97 93 92 97 100 100 100 100 100 100 100 100 100 100 100 100 100 100 100 100 100 100 100 100 100 100 100 100 100 100 100 84 28 71 67
72 67 76 90 99 98 97 94 98 99 100 100 100 100 100 100 100 100 100 100 100 100 100 99 100 100 100 100 100 100 100 100 100 100 100 100 100 95 100 100 92 96 93 88
92 94 91 88 84 76 70 89 98 93 91 97 100 100 100 100 100 100 100 100 100 100 100 100 100 100 100 100 100 100 100 100 100 100 100 100 100 100 100 100 98 97 79 40
87 92 95 98 100 100 100 100 100 100 100 100 98 97 93 99 92 98 100 100 100 100 100 98 96 77 50 50 67 85 94 90 60 62 92 82 80 99 70 49 62 72 91 68
100 100 100 100 100 100 100 100 100 100 70 63 68 100 100 98 96 98 98 90 84 82 100 100 89 91 52 89 27 29 70 57 7 5 67 99 96 97 61 50 7 5 54 77

GFSNGP_prec_cloud_084.txt.gz
Cloud_Cover
21 34 100 100 100 100 100 100 100 100 98 100 100 100 100 100 100 100 98 100 97 100 100 100 100 100 100 100 100 100 100 100 100 68 12 31 5 12 30 43 5 39 30 57
5 93 100 100 100 100 100 100 100 100 100 100 100 100 100 100 100 100 100 100 99 100 100 96 100 100 100 100 100 100 100 100 100 100 100 100 40 38 5 56 29 32 13 16
5 100 100 100 100 100 100 100 100 100 100 100 100 100 100 100 100 100 100 99 100 99 100 92 100 96 83 99 90 38 17 85 97 100 100 100 100 99 61 66 83 56 55 69
100 100 100 100 100 100 100 100 100 100 100 100 100 100 100 100 100 100 100 100 100 100 100 95 100 96 91 82 87 98 88 97 93 74 98 100 100 100 100 100 100 100 100 71
26 100 100 100 100 100 100 100 100 100 100 100 100 100 98 100 100 100 100 100 100 100 100 100 100 100 100 76 80 98 72 92 99 100 100 99 100 100 100 100 100 100 100 100
5 20 100 100 100 100 100 100 100 78 100 100 100 100 100 100 100 100 100 100 100 100 75 74 100 100 60 96 100 100 100 97 100 100 100 100 100 100 100 100 100 100 100 100
5 68 83 100 100 100 100 100 100 98 100 100 100 100 100 100 100 100 100 100 100 100 100 100 100 99 100 100 100 100 46 93 100 100 100 100 100 100 100 100 100 100 100 100
78 85 60 100 100 100 100 100 100 100 100 100 100 99 100 100 100 100 100 100 100 100 91 100 100 99 42 80 100 100 82 69 39 56 75 98 100 100 100 100 100 100 100 100
100 4 97 100 100 100 100 100 100 100 100 100 84 76 81 100 100 100 100 100 100 100 100 79 100 100 100 100 100 100 100 99 69 97 100 100 98 81 97 100 100 100 100 100
88 100 100 100 99 100 100 100 100 100 100 100 100 100 100 100 48 99 100 100 100 100 100 100 100 100 100 100 100 100 100 100 100 100 93 100 100 100 100 100 100 100 100 100
100 100 100 100 100 100 100 100 100 100 100 100 100 100 100 100 100 100 100 100 100 100 100 100 100 100 100 100 100 100 100 100 100 100 100 100 100 100 100 100 100 100 100 100
100 100 100 100 100 100 100 100 100 100 100 100 100 100 100 100 100 100 100 100 100 100 100 100 100 100 100 100 100 100 99 100 100 100 100 100 100 91 90 94 97 91 100 100
100 100 100 100 100 100 100 100 100 100 100 100 100 100 100 100 100 100 100 100 100 100 100 100 100 99 96 75 69 82 89 94 100 99 98 99 98 98 100 63 73 100 100 100
100 100 100 100 100 100 100 100 100 100 100 100 100 100 99 100 100 100 100 100 100 100 100 100 100 100 100 100 100 100 96 98 98 100 100 99 100 100 100 98 87 98 100 100
100 100 100 100 100 100 100 100 100 100 100 99 100 100 100 100 100 100 100 87 70 70 100 100 99 100 91 19 85 90 96 99 93 87 83 77 89 90 92 96 97 100 100 100
96 100 100 100 100 95 80 100 100 100 100 100 100 100 100 100 100 100 99 98 95 98 100 99 96 100 97 15 52 85 92 69 81 79 68 77 85 86 83 94 91 100 100 100
82 93 100 100 100 100 94 84 88 100 100 100 100 99 100 85 72 80 92 84 64 87 95 100 100 88 72 75 81 66 83 70 64 90 100 100 100 100 100 100 100 100 100 100
93 98 100 100 100 100 100 100 100 98 97 100 100 100 94 86 98 97 96 97 93 83 63 78 87 68 64 39 58 78 98 100 100 100 100 100 100 100 100 100 100 100 100 100
95 100 100 99 100 100 100 98 98 100 100 100 98 92 96 98 97 93 82 72 69 78 98 72 79 83 82 82 78 77 76 86 100 100 100 99 100 100 100 100 100 100 100 100
100 100 100 100 97 93 93 95 92 91 95 98 100 100 100 100 100 100 95 96 98 100 90 93 96 100 100 100 100 96 99 100 100 100 100 100 99 100 100 100 100 100 100 100
97 76 85 80 89 88 87 82 79 88 100 100 100 100 100 100 100 100 100 100 91 76 72 69 85 91 95 100 100 100 89 100 100 100 100 96 98 98 100 100 100 100 100 98
98 100 100 98 91 100 98 100 100 100 100 100 100 100 100 100 100 100 100 100 100 99 89 97 98 100 100 100 100 100 100 100 96 78 86 94 86 88 69 83 98 96 100 100
99 83 52 60 68 92 93 100 100 100 100 100 100 100 100 100 100 100 100 100 100 100 100 100 100 100 100 100 100 100 99 94 86 90 92 88 77 98 89 70 100 98 97 95
99 92 70 45 75 90 97 100 100 100 100 100 100 99 86 72 93 100 100 100 100 100 100 100 100 100 100 100 100 100 100 100 100 100 100 80 73 66 40 44 98 95 95 74
61 73 73 85 95 100 100 100 100 100 100 100 100 100 100 100 100 100 96 73 75 96 99 100 100 100 100 100 100 99 99 99 93 91 88 99 80 81 100 100 100 95 100 82
91 86 92 94 92 100 100 100 100 100 100 100 100 100 98 100 100 95 96 95 87 74 74 48 19 6 18 11 68 60 5 5 20 92 94 100 96 60 84 90 63 90 100 100
96 96 100 100 100 92 91 100 100 100 100 95 80 53 34 6 37 45 64 39 39 71 83 94 99 90 80 75 75 82 93 87 72 47 97 92 94 96 96 59 61 82 100 100

GFSNGP_prec_cloud_087.txt.gz
Cloud_Cover
100 5 31 7 49 72 100 100 100 100 100 100 100 100 100 100 100 100 100 77 100 100 100 100 100 100 100 100 100 100 100 100 100 100 100 100 100 100 99 83 58 12 6 33
100 25 5 5 88 75 100 100 100 100 100 100 100 100 100 100 100 100 100 100 100 100 100 100 100 100 100 100 100 100 100 100 100 100 100 100 100 100 100 100 94 83 48 45
53 13 5 5 91 100 99 100 100 100 100 100 100 100 100 100 100 100 100 100 100 100 100 100 100 100 100 100 100 94 100 100 100 100 100 100 100 100 100 100 100 100 100 99
82 17 5 13 97 99 100 100 100 100 100 100 100 100 100 100 100 100 100 100 100 100 100 100 100 100 100 100 100 100 100 100 100 100 100 100 100 100 100 100 100 100 100 100
52 7 5 67 85 72 100 100 100 100 100 100 100 100 100 100 100 100 100 100 100 100 100 100 100 100 100 100 100 100 100 100 98 86 59 97 100 100 100 100 100 100 100 100
98 54 13 100 78 93 100 100 100 100 100 100 100 100 100 100 100 100 100 100 100 100 100 100 100 100 100 100 100 100 100 100 100 100 100 100 96 100 100 100 100 100 100 100
75 82 7 99 31 100 73 100 100 100 100 100 100 100 100 100 100 100 100 100 100 100 100 100 100 100 100 100 100 100 100 100 100 100 100 99 98 99 91 100 100 100 100 100
85 98 72 100 8 100 47 96 100 100 100 100 100 100 100 100 100 100 100 100 100 100 100 100 100 100 100 100 100 100 89 73 99 93 100 100 100 100 100 95 100 100 100 100
100 100 65 40 98 97 100 89 100 100 100 100 100 100 100 100 100 100 100 100 100 100 100 93 100 100 100 100 100 54 61 99 60 88 100 100 100 100 100 100 100 100 100 99
100 96 100 100 100 98 100 100 97 100 100 100 100 100 100 100 100 100 100 100 100 100 100 100 100 100 100 94 100 87 65 90 59 98 85 96 100 100 100 100 100 100 100 89
100 100 100 100 100 100 99 100 100 100 100 100 100 100 100 100 100 100 100 100 100 100 100 100 100 100 100 98 99 100 100 100 86 88 90 96 100 100 100 100 100 100 100 99
100 100 100 100 100 100 100 100 100 100 100 100 100 100 100 100 100 100 100 100 100 100 100 100 100 100 100 100 100 100 100 100 86 100 83 86 96 99 100 100 100 100 100 100
100 100 100 100 100 100 100 100 100 100 100 100 100 100 100 100 100 100 100 100 100 100 100 100 100 100 100 100 100 100 100 100 100 100 100 100 100 100 100 100 100 100 100 100
100 100 100 100 100 100 100 100 100 100 100 100 100 100 100 100 100 100 100 100 100 100 100 100 100 99 99 79 73 93 97 100 100 100 100 96 100 98 96 100 100 100 100 100
100 100 100 100 100 99 100 100 100 100 100 100 100 100 100 100 100 100 100 100 91 78 99 100 99 100 96 68 92 100 100 99 76 76 68 67 67 83 81 95 100 100 52 28
100 100 100 100 100 89 100 100 100 100 100 100 100 100 100 100 100 100 100 100 100 98 100 100 100 100 100 99 70 85 85 50 70 82 68 70 75 90 95 100 100 100 100 100
100 100 100 72 78 66 97 100 96 100 100 87 100 100 100 100 91 77 78 68 63 97 100 100 100 77 57 5 77 94 94 85 65 94 100 100 100 100 100 100 100 100 100 100
100 100 100 100 97 97 100 100 100 100 100 100 99 99 96 89 95 95 97 88 94 95 98 95 89 71 50 9 24 32 91 100 100 100 100 100 100 96 99 98 98 98 94 66
100 100 95 99 100 98 100 99 99 95 88 85 77 78 82 81 84 89 88 84 86 87 100 75 22 5 45 66 6 65 22 39 78 92 84 84 96 99 97 93 99 99 100 100
100 100 100 100 96 82 98 88 82 81 90 98 100 100 100 100 98 98 98 100 100 100 92 75 78 81 91 86 70 47 52 60 66 70 71 88 98 100 100 100 100 100 100 100
95 77 81 80 98 80 75 76 83 87 86 77 83 83 83 80 84 90 95 84 92 58 60 73 79 75 79 80 78 83 93 100 100 94 93 88 100 100 100 100 100 100 99 88
80 100 100 100 100 100 100 100 90 63 67 78 80 81 85 84 79 80 77 84 81 63 65 71 74 76 83 92 96 100 100 100 100 100 100 100 100 100 100 100 100 100 100 100
99 90 77 64 64 97 81 59 70 58 66 69 65 68 71 74 74 83 87 88 88 83 80 86 80 63 60 77 99 100 100 100 99 96 98 100 100 100 100 100 100 100 100 100
75 59 75 70 67 64 84 91 67 67 65 72 87 96 100 100 100 100 100 100 100 100 100 100 99 98 97 90 84 81 90 96 98 100 100 100 100 100 100 100 100 100 100 100
51 64 67 82 93 100 100 98 99 98 88 95 100 100 100 100 96 86 83 78 84 83 82 80 84 78 77 78 78 71 79 93 100 100 100 91 94 100 100 100 100 100 100 89
88 84 95 100 100 98 88 90 98 100 100 94 86 80 41 46 60 59 56 81 55 29 5 26 10 62 56 53 99 53 36 29 92 100 100 100 100 100 100 91 86 99 100 100
81 80 83 91 93 97 94 93 100 100 100 100 99 70 35 38 58 61 63 69 97 97 90 96 83 88 91 75 94 97 95 96 79 68 100 100 100 100 100 66 58 87 100 100

GFSNGP_prec_cloud_090.txt.gz
Cloud_Cover
100 100 100 100 100 97 6 38 70 61 72 98 100 100 100 100 100 100 100 100 100 100 100 100 100 100 100 100 100 100 100 100 100 100 100 100 100 100 100 99 99 100 98 87
100 100 100 100 100 5 5 46 5 20 98 100 100 100 100 100 100 100 100 100 100 100 100 100 100 100 100 100 100 100 100 100 100 100 100 100 100 100 100 100 100 100 93 100
100 100 57 100 49 5 5 5 74 48 100 100 100 100 100 100 100 100 100 100 100 100 100 100 100 100 100 100 100 100 100 100 100 100 100 100 100 100 100 100 100 100 100 100
100 100 98 100 34 5 5 5 10 100 100 100 100 100 100 100 100 100 100 100 100 100 100 100 100 100 100 100 100 100 100 100 100 100 100 100 100 100 100 100 100 100 100 100
100 100 100 100 100 46 5 0 7 100 100 100 100 100 100 100 100 100 100 100 100 100 100 100 100 100 100 100 100 100 100 100 100 100 100 100 100 100 100 100 100 100 100 100
100 100 100 100 100 92 5 5 31 100 100 100 100 100 100 100 100 100 100 100 100 100 100 100 100 100 100 100 100 100 100 100 100 100 100 100 100 100 100 100 100 100 100 100
100 100 96 100 100 12 0 57 91 100 100 100 100 100 100 100 100 100 100 100 100 100 100 100 100 100 100 100 100 100 100 100 100 100 100 100 100 100 100 100 100 100 100 100
100 100 100 100 97 92 56 100 98 100 100 100 100 100 100 100 100 100 100 100 100 100 100 100 100 100 100 100 100 100 100 100 100 100 100 100 100 100 100 100 100 100 100 100
66 91 100 99 100 100 100 100 100 100 100 100 100 100 100 100 100 100 100 100 100 100 100 100 100 100 100 100 100 100 100 100 100 100 100 100 100 100 100 100 100 100 100 100
100 100 100 100 100 100 100 100 100 98 100 100 100 100 100 100 100 100 100 100 100 100 100 100 100 100 100 100 100 100 100 100 100 100 100 100 95 100 100 100 100 100 100 100
100 100 100 100 100 100 100 100 99 100 93 100 100 100 100 100 100 100 100 100 100 100 98 100 100 100 100 100 100 100 100 98 98 100 99 99 99 100 100 100 100 100 100 100
100 100 100 100 100 100 100 100 100 100 99 92 100 100 100 100 100 100 100 100 100 100 100 100 100 100 99 97 100 100 100 100 100 100 100 100 100 100 100 100 100 100 100 100
100 100 100 100 100 100 100 100 100 100 100 99 98 99 100 100 100 100 100 100 100 100 100 100 100 100 100 100 88 87 94 96 94 82 100 92 80 96 100 100 100 100 100 100
100 100 100 100 100 100 100 100 92 98 100 100 100 100 100 100 100 100 100 100 100 100 100 100 100 100 98 97 97 100 100 100 100 93 87 80 90 100 100 100 100 96 97 100
100 100 100 100 100 100 100 100 100 98 100 100 100 100 100 100 100 100 100 100 100 100 100 86 91 100 100 100 100 87 74 73 75 97 100 96 66 70 73 89 100 100 99 88
100 100 100 100 100 100 100 100 99 100 100 100 100 100 100 100 100 100 100 100 100 100 100 100 100 95 85 85 82 68 76 96 86 57 57 50 51 66 70 76 87 100 100 100
100 100 100 100 100 100 100 100 100 100 92 84 100 95 100 86 99 100 100 100 100 91 97 94 98 94 83 63 65 85 80 60 56 76 96 97 100 99 89 89 100 100 100 92
100 100 100 100 100 100 100 100 100 100 90 100 100 100 100 100 100 100 99 100 100 100 100 98 100 93 78 77 68 68 75 80 80 97 77 76 80 66 61 60 76 84 78 39
78 100 99 100 99 97 100 100 100 97 98 100 99 98 100 100 100 100 100 100 100 99 99 98 100 98 87 82 72 74 74 70 74 72 84 81 78 78 68 38 51 55 52 62
26 32 20 87 58 56 98 85 71 78 80 87 88 92 93 97 99 100 100 100 100 100 100 100 100 100 98 92 83 82 74 66 65 57 54 64 78 81 68 59 73 85 86 79
100 96 87 79 100 86 87 60 44 84 87 50 45 65 81 80 81 84 90 98 99 100 100 100 100 97 88 86 87 93 100 100 96 81 76 59 60 64 65 57 47 57 85 48
68 88 94 81 100 100 100 100 100 100 100 100 100 90 81 73 50 41 78 86 83 92 96 98 100 100 100 100 100 100 100 100 98 93 85 72 60 76 100 62 87 100 100 84
99 100 88 86 82 97 80 70 78 62 88 83 60 59 62 75 62 33 51 67 69 75 73 78 78 79 81 88 99 100 100 100 97 88 84 88 92 94 95 100 100 93 92 47
74 58 80 69 64 60 65 83 59 60 57 60 64 78 86 97 100 100 100 100 100 100 100 100 99 100 100 100 100 100 97 99 99 79 60 77 85 100 100 100 100 100 100 93
48 68 67 70 56 71 8 14 33 52 49 38 39 6 43 27 38 35 55 22 6 14 22 34 95 91 70 49 8 6 72 100 100 100 100 98 98 100 100 100 100 100 100 100
78 84 88 100 88 93 87 90 90 81 93 93 81 64 36 60 58 32 74 97 77 79 12 32 58 80 68 74 100 80 66 46 97 100 100 99 100 100 100 99 99 82 100 100
89 67 75 77 78 83 74 84 100 100 100 100 100 96 73 60 98 60 80 100 100 99 100 100 100 97 100 99 100 100 100 100 100 88 100 100 100 100 100 100 97 72 100 100

GFSNGP_prec_cloud_093.txt.gz
Cloud_Cover
99 86 100 100 100 47 5 14 100 85 100 100 59 21 100 100 100 100 100 100 100 100 100 100 100 100 100 100 100 100 100 100 100 100 100 100 100 100 100 100 100 100 100 100
97 74 92 100 33 97 9 74 100 100 46 96 5 16 100 100 100 100 100 100 100 100 100 100 100 100 100 100 100 100 100 100 100 100 100 100 100 100 100 100 100 100 100 76
96 82 100 100 100 100 100 100 100 86 48 99 54 100 100 100 100 100 100 100 100 100 100 100 100 100 100 100 100 100 100 100 100 100 100 100 100 100 100 100 100 100 100 100
84 100 100 100 100 100 100 100 96 5 14 41 87 100 100 100 100 100 100 100 100 100 100 100 100 100 100 100 100 100 100 100 100 100 100 100 100 100 100 100 100 100 100 100
100 100 100 100 100 100 100 75 46 43 20 98 100 100 100 100 100 100 100 100 100 100 100 100 100 100 100 100 100 100 100 100 100 100 100 100 100 100 100 100 100 100 100 100
100 100 100 100 99 98 18 96 88 82 42 98 100 100 100 100 100 100 100 100 100 100 100 100 100 100 100 100 100 100 100 100 100 100 100 100 100 100 100 100 100 100 100 100
100 100 100 100 22 5 5 30 100 98 100 98 100 100 100 100 100 100 100 100 100 100 100 100 100 100 100 100 100 100 100 100 100 100 100 100 100 100 100 100 100 100 100 100
100 100 100 100 7 30 77 100 100 100 100 100 100 100 100 100 100 100 100 100 100 100 100 100 100 100 100 100 100 100 100 100 100 100 100 100 100 100 100 100 100 100 100 100
100 100 100 100 100 100 100 100 100 100 100 100 100 100 100 100 100 100 100 100 100 100 100 100 100 100 100 100 100 100 100 100 100 100 100 100 100 100 100 100 100 100 100 100
100 100 100 100 100 100 100 100 100 100 100 100 100 100 100 100 100 100 100 100 100 100 100 100 100 100 100 100 100 100 100 100 100 100 100 100 100 100 100 100 100 100 100 100
100 100 100 99 100 100 100 100 100 100 100 100 100 100 100 100 100 100 100 100 100 100 100 100 100 100 100 100 100 100 100 100 100 100 100 100 100 100 100 100 99 100 100 100
100 100 100 100 100 100 100 100 100 100 99 100 100 100 100 100 100 100 100 100 100 100 100 100 99 100 95 93 100 100 99 96 100 100 100 100 97 100 100 100 100 100 100 100
100 100 100 100 100 99 100 100 100 84 98 97 91 87 100 100 100 100 100 100 100 100 100 100 100 98 100 100 100 100 100 100 100 100 100 100 99 100 100 99 100 100 100 100
100 100 100 100 97 100 100 98 76 89 98 96 98 100 99 100 100 100 100 100 100 100 100 100 100 100 100 98 78 86 92 93 100 100 100 100 100 100 100 100 100 100 100 100
100 100 99 99 100 100 100 100 83 98 100 100 100 99 100 100 100 100 100 100 100 100 100 100 100 100 100 98 91 100 97 95 98 100 100 100 100 100 100 100 100 100 100 84
100 100 100 100 100 100 100 100 98 100 100 100 100 100 100 100 100 100 100 99 92 98 100 100 100 100 100 94 100 98 99 91 66 99 99 98 100 97 89 95 96 100 100 100
100 100 100 100 100 100 100 100 100 100 100 100 100 100 100 100 100 100 100 100 99 100 100 100 100 89 84 75 99 100 100 99 63 99 100 100 100 96 90 80 69 74 97 100
100 100 100 100 100 100 100 100 100 100 100 100 95 77 83 89 100 100 100 28 8 5 98 100 86 68 95 90 82 95 99 100 97 97 94 99 82 72 75 57 23 44 76 19
100 100 100 100 100 100 100 100 99 98 91 85 64 93 98 99 100 100 92 94 94 89 86 96 93 81 86 98 24 79 78 88 80 95 80 90 79 61 56 57 56 70 72 80
98 98 100 100 92 68 99 93 72 91 100 69 75 83 92 75 70 69 85 99 100 100 99 85 84 78 85 92 95 98 99 98 70 95 96 90 98 100 83 59 79 93 99 100
87 73 86 99 100 88 75 45 63 76 85 33 55 52 61 64 57 52 49 59 100 61 59 65 69 69 71 69 71 83 89 84 87 96 94 100 98 99 100 100 100 100 100 100
100 100 100 89 89 100 76 56 88 98 99 75 49 38 34 40 50 87 97 96 99 40 50 68 76 81 92 98 100 100 100 100 100 100 100 100 100 100 100 100 100 100 100 100
76 69 73 74 64 96 94 73 88 97 99 100 100 100 100 100 100 100 100 100 100 100 100 100 100 100 100 100 100 100 100 100 100 100 100 100 100 100 100 100 100 100 100 100
78 55 51 76 87 98 71 92 78 84 82 79 77 71 64 64 70 71 74 79 95 97 98 100 100 100 100 100 100 100 100 100 100 99 79 55 78 73 86 89 98 100 100 91
99 85 78 86 96 84 65 70 67 72 63 69 58 58 26 5 5 80 15 6 5 5 5 89 96 95 49 17 6 5 62 86 91 98 100 98 96 100 98 83 60 48 54 92
78 79 83 96 100 100 100 100 100 100 100 100 100 82 42 6 23 71 96 93 83 74 38 26 50 72 56 76 94 99 97 86 78 66 64 84 96 99 100 100 95 65 23 67
99 91 100 100 100 89 55 35 92 100 100 100 100 100 69 76 83 72 68 86 94 97 98 100 100 95 90 78 94 100 100 100 96 100 100 100 100 100 100 100 100 100 96 79

GFSNGP_prec_cloud_096.txt.gz
Cloud_Cover
100 100 100 100 100 100 100 72 50 86 94 6 65 53 96 100 100 100 86 57 100 100 100 100 100 100 100 100 100 100 100 100 100 100 100 100 100 100 100 100 100 100 100 100
100 100 100 100 100 100 87 54 25 66 66 100 69 93 97 100 100 100 100 100 100 100 100 100 100 100 100 100 100 100 100 100 100 100 100 100 100 100 100 100 100 100 100 100
100 100 100 100 99 100 31 7 28 48 76 99 96 100 100 100 100 100 100 100 100 100 100 100 100 100 100 100 100 100 100 100 100 100 100 100 100 100 100 100 100 100 100 100
100 100 100 61 35 80 45 65 62 75 97 100 98 100 100 100 100 100 100 100 100 100 100 100 100 100 100 100 100 100 100 100 100 100 100 100 100 100 100 100 100 100 100 100
88 98 89 83 91 53 26 58 77 92 100 100 100 100 100 100 100 100 100 100 100 100 100 100 100 100 100 100 100 100 100 100 100 100 100 100 100 100 100 100 100 100 100 100
100 100 100 99 99 100 100 100 100 100 100 100 100 100 100 100 100 100 100 100 100 100 100 100 100 100 100 100 100 100 100 100 100 100 100 100 100 100 100 100 100 100 100 100
100 100 90 90 48 93 100 75 100 100 100 100 100 100 100 100 100 100 100 100 100 100 100 100 100 100 100 100 100 100 100 100 100 100 100 100 100 100 100 100 100 100 100 100
100 100 100 100 59 99 100 100 100 100 100 100 100 100 100 100 100 100 100 100 100 100 100 100 100 100 100 100 100 100 100 100 100 100 100 100 100 100 100 100 100 100 100 100
100 100 100 100 100 100 100 100 100 100 100 100 100 99 100 100 100 100 100 99 91 100 100 100 100 100 100 100 100 100 100 100 100 100 100 100 100 100 100 100 100 100 100 100
100 100 100 100 100 100 100 100 100 100 100 100 100 99 89 100 100 100 100 98 91 80 97 100 100 100 100 100 100 100 100 100 100 100 100 100 100 100 100 100 100 100 100 100
100 100 100 100 100 100 100 100 100 100 100 100 86 90 97 100 100 100 100 100 96 98 98 100 100 100 100 100 100 100 100 100 100 100 100 100 100 100 100 100 100 100 100 100
100 100 100 100 100 100 96 95 100 100 100 84 88 88 87 100 100 100 100 100 100 100 97 96 100 100 100 100 100 100 100 100 100 100 100 100 100 100 100 100 100 100 100 100
100 100 100 96 99 100 100 97 99 90 82 96 87 98 90 99 100 100 100 100 100 100 100 100 100 100 100 100 100 100 100 100 100 100 100 100 100 100 100 100 100 100 100 100
100 100 100 100 100 100 88 93 78 89 98 97 99 95 100 99 100 98 100 100 100 100 100 100 100 100 100 100 100 98 91 100 100 100 100 100 100 100 100 100 100 100 100 100
100 100 100 100 90 97 90 89 98 98 100 96 99 99 99 100 100 100 100 99 99 99 100 100 100 100 100 100 98 100 100 100 100 100 100 100 100 100 100 100 100 100 100 100
100 100 100 100 99 99 100 100 100 100 100 100 100 100 100 100 100 100 100 98 96 99 100 100 100 100 100 98 100 100 94 91 98 100 100 100 100 100 100 100 100 100 100 100
99 100 100 100 100 99 97 100 100 100 100 100 100 100 100 100 100 100 100 100 100 100 100 100 100 100 100 100 100 100 100 100 90 100 100 100 100 100 100 100 100 100 75 83
80 99 100 100 100 100 100 100 100 100 100 100 100 100 100 100 100 100 100 100 100 87 100 100 100 100 100 100 96 99 100 100 100 100 100 100 99 100 98 57 6 19 73 22
91 99 99 100 100 100 100 100 100 100 100 100 100 100 100 100 100 100 99 96 94 92 99 100 100 100 97 95 60 100 100 100 100 100 100 73 96 89 100 95 93 98 94 94
96 96 100 97 93 97 100 100 100 100 100 100 100 100 81 33 74 90 92 94 99 100 100 82 83 81 81 6 12 81 100 100 96 100 100 100 100 100 94 61 96 100 100 100
100 100 100 100 100 100 100 100 100 100 100 95 54 46 56 100 100 100 96 76 100 87 75 77 66 10 52 48 28 100 100 100 100 100 100 100 100 100 100 100 100 100 100 100
100 100 100 100 100 100 100 100 93 87 58 57 48 51 62 81 48 69 78 77 97 16 34 76 72 26 26 22 89 100 100 100 100 100 100 100 100 100 100 100 100 100 100 100
100 100 100 100 100 100 100 100 100 98 87 77 93 99 100 100 100 100 99 100 100 71 99 100 17 5 13 100 100 100 100 100 100 100 100 100 100 100 100 100 100 100 100 100
100 93 97 100 100 99 100 100 99 61 10 9 5 10 47 100 99 98 100 35 12 48 86 82 53 5 34 100 100 100 100 100 100 100 100 40 100 100 100 100 100 100 100 93
97 98 99 100 98 99 97 100 98 100 90 100 99 97 58 64 100 100 100 96 16 58 100 60 5 5 100 100 100 100 100 100 100 100 100 100 100 100 100 100 100 100 100 100
100 99 100 100 100 100 100 100 100 100 100 100 100 100 100 100 100 97 100 83 100 82 100 100 100 100 100 100 100 100 100 100 100 100 90 100 100 100 100 100 100 100 100 100
98 66 100 100 100 100 92 94 100 100 100 100 100 100 100 100 98 84 85 100 100 100 100 100 100 100 100 100 100 100 100 100 100 100 100 100 100 100 100 100 100 100 100 100

GFSNGP_prec_cloud_099.txt.gz
Cloud_Cover
100 100 100 100 100 100 100 100 100 100 100 100 93 100 100 100 100 100 95 95 100 100 100 100 100 100 100 100 100 100 100 100 100 100 100 100 80 71 100 100 100 81 99 91
100 100 100 100 100 100 100 100 100 100 100 100 100 100 100 100 100 100 100 100 100 100 100 100 100 100 100 100 100 100 100 100 100 100 100 100 100 100 96 100 100 100 100 100
100 100 100 100 100 100 100 100 100 100 100 100 100 100 100 100 100 100 100 100 100 100 100 100 100 100 100 100 100 100 100 100 100 100 100 100 100 100 100 100 100 100 100 100
100 100 100 100 100 100 100 100 100 100 100 81 81 100 100 100 100 100 100 100 100 100 100 100 100 100 100 100 100 100 100 100 100 100 100 100 100 100 100 100 100 100 100 100
100 100 100 100 100 100 100 100 100 100 100 100 98 100 100 100 100 100 100 100 100 100 100 100 100 100 100 100 100 100 100 100 100 100 100 100 100 100 100 100 100 100 100 100
100 100 100 100 100 100 100 100 100 94 82 98 100 100 100 100 100 100 100 100 100 100 100 100 100 100 100 100 100 100 100 100 100 100 100 100 100 100 100 100 100 100 100 100
78 87 88 99 98 77 75 100 100 96 92 98 100 100 100 100 100 100 100 100 100 100 100 100 100 100 100 100 100 100 100 100 100 100 100 100 100 100 100 100 100 100 100 100
98 84 99 97 91 82 100 100 100 100 100 100 100 100 100 100 100 100 100 100 100 100 100 100 100 100 100 100 100 100 100 100 100 100 100 100 100 100 100 100 100 100 100 100
94 100 100 100 100 100 100 100 100 100 100 100 100 100 100 100 100 100 100 100 95 100 100 100 100 100 100 100 100 100 100 100 100 100 100 100 100 100 100 100 100 100 100 100
100 100 100 100 100 100 100 100 100 100 100 99 100 100 100 100 85 82 100 99 100 100 100 100 100 100 100 100 100 100 100 100 100 100 100 100 100 100 100 100 100 100 100 100
100 100 100 100 100 100 100 100 100 100 96 100 100 100 95 85 80 92 100 100 100 98 100 100 100 100 100 100 100 100 100 100 100 100 100 100 100 100 100 100 100 100 100 100
100 100 94 100 100 95 74 74 73 81 83 99 91 90 99 92 91 89 93 100 100 100 100 100 100 100 100 100 100 100 100 100 100 100 100 100 100 100 100 100 100 100 100 100
100 100 100 100 100 100 95 90 100 100 81 73 78 80 95 100 100 99 97 98 98 100 100 100 100 100 100 100 100 100 100 100 100 100 100 100 100 100 100 100 100 100 100 100
100 100 100 100 99 92 85 92 96 30 31 86 90 95 100 100 100 100 100 100 100 100 100 100 100 100 100 100 100 100 100 100 100 100 100 100 100 100 100 100 100 100 100 100
100 100 100 96 94 95 100 100 96 93 98 88 99 99 100 100 100 100 100 100 100 99 100 100 100 100 100 100 99 92 100 100 100 100 100 100 100 100 100 100 100 100 100 100
100 100 100 98 100 80 89 92 79 100 100 100 99 99 100 100 100 100 100 100 95 99 100 100 100 100 100 96 100 100 100 99 100 100 100 100 100 100 100 100 100 100 100 100
100 100 100 100 100 100 100 96 100 100 100 100 100 100 100 100 100 100 100 100 100 100 100 100 100 100 100 94 100 100 100 100 100 100 100 100 100 100 100 100 100 100 97 72
60 77 93 97 100 100 100 100 100 100 100 100 100 100 100 100 100 100 100 100 100 79 77 97 82 90 86 99 91 100 100 100 100 100 100 100 100 100 100 100 100 100 100 67
94 95 99 99 100 100 100 100 100 100 100 100 100 100 100 100 100 98 85 88 95 100 100 89 82 76 53 5 23 100 100 100 100 100 100 95 100 100 100 100 100 100 100 100
94 93 100 100 100 100 100 100 100 100 100 100 100 100 87 56 67 80 97 94 83 98 100 37 81 69 32 5 19 95 100 100 100 99 100 100 100 100 94 40 100 100 100 100
100 100 100 100 100 100 100 100 100 100 100 100 100 100 100 99 99 85 96 100 95 52 73 79 74 79 37 6 34 100 100 100 100 100 100 100 100 100 100 100 100 100 100 100
100 100 100 100 100 100 100 100 100 100 67 44 42 37 59 100 51 68 7 32 100 7 54 100 91 5 18 40 100 100 100 100 100 100 100 100 100 100 100 100 100 100 100 100
100 100 100 100 100 100 100 100 100 100 80 44 68 99 88 89 100 100 100 81 100 50 97 100 23 5 19 100 100 100 100 100 100 100 100 100 100 100 100 100 100 100 100 100
100 100 100 100 100 100 100 100 100 98 71 68 37 6 58 100 100 100 100 89 48 44 87 83 58 5 83 100 100 100 100 100 100 100 100 45 100 100 100 100 100 100 100 99
100 100 100 100 99 100 94 100 100 100 94 100 99 100 100 100 100 100 100 100 64 57 100 70 6 4 100 100 100 100 100 100 100 98 100 100 100 100 100 100 100 100 100 100
100 100 100 98 100 100 100 100 100 100 100 100 100 100 100 100 100 100 100 84 100 90 100 100 100 99 100 100 100 100 100 100 100 100 86 100 100 100 100 100 100 100 100 100
98 47 100 100 100 100 100 92 100 100 100 100 100 100 100 100 100 82 97 100 100 100 100 100 100 100 100 100 100 100 100 100 100 100 100 100 100 100 100 100 100 100 100 100

GFSNGP_prec_cloud_102.txt.gz
Cloud_Cover
100 100 100 100 100 100 100 100 100 100 100 100 100 100 100 100 100 100 100 100 100 100 100 100 100 100 100 100 100 100 100 100 100 100 100 100 100 100 100 100 100 100 100 92
100 100 100 100 100 100 100 100 100 100 100 100 100 100 100 100 100 100 100 100 100 100 100 100 100 100 100 100 100 100 100 100 100 100 100 100 100 100 100 100 100 100 100 100
100 100 100 100 100 100 100 100 100 100 100 100 100 100 100 100 100 100 100 100 100 100 100 100 100 100 100 100 100 100 100 100 100 100 100 100 100 100 100 100 100 100 100 100
100 100 100 100 100 100 100 100 100 100 100 100 100 100 100 100 100 100 100 92 82 97 100 100 100 100 100 100 100 100 100 100 100 100 100 100 100 100 100 100 100 100 100 100
100 100 100 100 100 100 100 100 100 100 100 100 100 100 100 100 100 100 100 99 72 84 100 100 100 100 100 100 100 100 100 100 100 100 100 100 100 100 100 100 100 100 100 100
100 100 100 100 100 100 100 100 100 100 100 100 100 100 100 100 100 100 93 62 34 57 87 98 100 100 100 100 100 100 100 100 100 100 100 100 100 100 100 100 100 100 100 100
100 100 100 100 100 100 100 100 100 100 100 100 100 100 100 99 99 100 99 88 16 46 76 100 100 100 100 100 100 100 100 100 100 100 100 100 100 100 100 100 100 100 100 100
100 94 100 100 100 100 100 100 100 100 100 100 100 100 100 100 100 98 82 100 97 55 83 100 100 100 100 100 100 100 100 100 100 100 100 100 100 100 100 100 100 100 100 100
100 100 100 100 100 100 100 100 100 100 100 100 100 100 97 100 100 100 98 100 97 85 99 100 100 100 100 100 100 100 100 100 100 100 100 100 100 100 100 100 100 100 100 100
100 100 100 100 100 100 100 100 100 100 100 100 100 74 85 92 81 87 78 100 100 81 100 100 100 100 100 100 100 100 100 100 100 100 100 100 100 100 100 100 100 100 100 100
100 100 100 100 100 100 100 100 100 100 100 100 100 100 100 100 92 96 92 100 100 93 100 100 100 100 100 100 100 100 100 100 100 100 100 100 100 100 100 100 100 100 100 100
100 100 89 100 100 99 85 81 81 84 81 74 90 98 98 94 97 98 99 100 100 100 100 100 100 100 100 100 100 100 100 100 100 100 100 100 100 100 100 100 100 100 100 100
100 98 75 86 100 100 96 90 86 96 100 98 84 95 99 95 100 100 100 100 100 100 100 100 100 100 100 100 100 100 100 100 100 100 100 100 100 100 100 100 100 100 100 100
100 100 99 97 100 100 100 100 100 100 100 94 98 97 100 100 100 100 100 100 99 100 100 100 100 98 99 98 99 100 100 100 100 100 100 100 100 100 100 100 100 100 100 100
100 99 100 79 90 99 100 100 100 100 99 97 100 100 100 100 100 100 90 99 100 100 100 99 99 95 83 97 97 70 97 100 100 100 100 100 100 100 100 100 100 100 100 100
94 99 86 86 100 99 98 89 86 95 98 100 100 100 100 100 100 100 100 90 98 99 100 67 91 6 5 46 99 100 98 100 100 100 100 100 100 100 100 100 77 83 100 100
100 100 99 100 100 94 86 100 99 99 100 100 98 87 98 100 100 100 100 98 26 20 31 26 45 51 5 5 60 77 84 70 100 100 100 100 100 100 100 100 100 100 100 100
85 73 91 96 99 99 100 100 100 100 100 100 98 94 86 62 100 96 63 91 99 100 6 5 9 86 5 5 8 100 100 100 75 60 5 37 98 95 99 100 100 100 94 100
97 98 100 100 100 100 100 100 100 100 100 100 98 96 32 6 5 5 5 5 20 61 28 5 60 48 5 5 7 90 98 46 100 88 100 100 42 66 99 100 99 100 100 100
100 100 100 96 92 100 99 99 99 99 97 95 98 50 36 24 14 7 19 80 11 5 5 5 5 16 5 5 26 99 61 98 93 50 25 71 100 94 77 31 86 96 100 96
90 80 87 100 96 68 79 45 78 94 18 5 5 5 5 5 5 5 5 100 70 3 3 85 52 5 5 5 35 99 100 94 99 96 97 99 99 100 100 100 100 100 100 100
99 96 72 78 100 99 99 96 44 11 5 5 5 5 5 41 82 44 14 30 90 5 44 100 5 4 3 52 95 97 95 87 100 100 100 100 99 100 100 100 100 100 100 100
98 97 88 46 67 72 38 5 5 5 5 5 20 38 64 51 89 61 82 41 45 6 83 52 5 5 5 81 100 100 100 100 100 100 100 100 100 97 100 91 80 100 100 95
96 96 92 85 12 74 97 87 12 85 5 5 5 5 2 45 60 100 100 41 12 5 10 20 5 4 5 92 99 100 100 100 100 96 98 10 93 97 100 80 77 84 98 87
94 81 59 51 100 100 80 97 73 100 97 60 100 88 11 83 7 16 19 30 76 5 89 94 72 6 48 100 100 100 100 100 77 5 69 100 100 100 100 100 100 88 40 6
93 100 100 68 50 55 79 98 100 88 100 100 99 99 100 100 86 24 98 100 98 81 41 100 100 52 20 100 100 96 100 100 100 100 99 63 70 100 100 100 100 100 100 100
100 100 100 82 100 100 88 5 23 81 40 29 54 14 100 100 100 81 74 32 98 100 100 100 100 100 97 42 12 94 100 100 100 100 100 35 60 98 100 100 100 99 95 100

GFSNGP_prec_cloud_105.txt.gz
Cloud_Cover
100 100 100 100 100 100 100 100 100 100 100 100 100 100 100 100 100 100 100 100 100 100 100 100 100 100 100 100 100 100 100 100 100 100 100 100 100 100 100 100 100 100 100 100
100 100 100 100 100 100 100 100 100 100 100 100 100 100 100 100 100 100 100 100 100 100 100 100 100 100 100 100 100 100 100 100 100 100 100 100 100 100 100 100 100 100 100 100
100 100 100 100 100 100 100 100 100 100 100 100 100 100 100 100 100 100 100 100 100 100 100 100 100 100 100 100 100 100 100 100 100 100 100 100 100 100 100 100 100 100 100 100
100 100 100 100 100 100 100 100 100 100 100 100 100 100 100 100 100 100 100 100 100 100 100 100 100 100 100 100 100 100 100 100 100 100 100 100 100 100 100 100 100 100 100 100
100 100 100 100 100 100 100 100 100 100 100 100 100 100 100 100 100 100 100 100 100 100 100 100 100 100 100 100 100 100 100 100 100 100 100 100 100 100 100 100 100 100 100 100
100 100 100 100 100 100 100 100 100 100 100 100 100 100 100 100 100 100 100 61 53 34 98 100 100 100 56 94 80 100 100 100 100 100 100 100 100 100 100 100 100 100 100 100
100 100 100 100 100 100 100 100 100 100 100 100 100 100 100 100 100 100 100 95 100 90 86 100 100 99 74 86 92 100 100 100 100 100 100 100 100 100 100 100 100 100 100 100
100 100 100 100 100 100 100 100 100 100 100 100 100 100 100 100 100 100 100 100 99 95 77 100 100 96 30 68 100 100 100 100 100 100 100 100 100 100 100 100 100 100 100 100
100 100 100 100 100 100 100 100 100 100 100 100 100 100 100 98 95 95 100 100 100 90 52 85 100 91 97 100 100 100 100 100 100 100 100 100 100 100 100 100 100 100 100 100
100 100 100 100 100 99 98 100 100 100 100 100 100 100 100 100 51 12 49 40 22 18 92 94 97 98 100 100 100 100 100 100 100 100 100 100 100 100 100 100 100 100 100 100
100 100 100 100 100 93 58 86 100 100 100 100 100 100 100 81 56 55 73 78 68 94 97 100 100 99 100 98 100 100 100 100 100 100 100 100 100 100 100 100 100 100 100 100
99 99 97 100 100 86 72 98 100 100 100 87 62 87 72 68 73 57 65 72 78 98 92 100 100 100 100 98 98 100 100 100 100 100 100 100 100 100 100 100 100 100 100 100
98 100 68 87 81 100 95 98 79 98 100 89 83 58 91 84 83 88 70 14 72 93 81 93 97 100 100 100 100 100 100 100 97 99 100 100 100 100 100 100 100 100 100 100
100 94 100 100 94 97 99 93 100 100 100 100 78 82 100 76 84 98 89 98 6 5 78 5 8 40 92 76 96 100 100 100 100 100 100 100 96 97 100 100 100 100 100 100
100 97 99 98 100 100 99 96 92 66 77 92 100 100 100 100 100 100 100 93 46 21 5 5 11 14 78 92 82 57 98 99 96 100 100 99 98 84 75 98 100 100 100 100
100 100 92 98 48 55 82 48 35 54 26 73 95 100 100 100 100 100 81 36 49 88 13 34 5 5 48 60 7 96 87 78 100 100 94 99 100 87 46 74 97 19 77 99
100 100 100 80 35 6 5 5 53 97 35 22 17 57 92 98 44 38 38 61 48 6 5 5 5 5 5 70 84 86 100 80 62 67 90 97 100 83 71 5 52 5 72 100
96 99 93 90 70 9 81 94 59 35 37 5 37 5 5 12 70 22 5 100 100 68 5 5 5 5 5 25 72 75 90 100 96 8 5 99 73 75 90 73 74 11 37 72
5 5 5 8 40 9 7 22 44 26 49 28 7 10 5 6 5 5 23 5 8 5 5 5 5 5 5 5 64 97 36 85 100 95 86 96 77 98 80 62 80 88 59 51
42 39 11 30 7 5 56 20 12 67 83 71 47 5 5 5 5 5 34 97 16 5 5 12 4 0 3 5 79 84 61 99 97 53 94 92 83 64 66 91 99 88 97 74
45 6 5 14 56 31 6 38 36 50 5 5 5 5 5 5 5 18 7 94 83 24 5 28 23 5 0 46 71 86 36 89 99 100 100 99 100 100 100 100 98 100 100 100
21 42 58 52 52 68 79 24 11 12 5 5 5 5 20 16 42 20 61 64 5 5 5 5 5 16 7 63 89 37 23 76 98 100 100 100 100 100 100 100 98 100 90 96
18 39 24 28 79 16 7 12 24 8 5 5 5 6 8 21 26 29 73 5 5 5 5 5 5 5 5 5 63 48 97 94 95 96 94 98 91 100 100 100 100 100 97 100
47 63 69 98 80 16 22 62 33 5 5 5 34 5 57 70 52 32 7 5 5 5 5 5 5 5 5 79 76 22 88 100 100 100 98 70 90 87 82 49 34 98 69 69
98 36 28 70 58 100 100 90 81 99 79 88 93 94 100 100 77 99 70 55 5 8 50 5 42 5 5 59 100 69 5 68 98 57 29 92 100 100 100 100 95 52 59 54
74 100 99 94 100 90 25 13 28 56 56 73 65 95 100 100 100 100 51 42 6 8 85 89 57 31 48 56 65 46 58 79 93 91 79 23 70 80 100 98 83 83 67 80
97 78 67 98 96 99 71 18 10 45 16 21 5 6 5 58 100 100 100 93 76 80 87 99 100 100 100 100 100 78 29 99 100 100 100 92 23 44 100 100 93 78 94 98

GFSNGP_prec_cloud_111.txt.gz
Cloud_Cover
100 100 100 100 100 100 100 100 100 100 100 100 100 100 100 100 100 100 100 100 100 100 100 100 100 100 100 94 100 100 100 100 100 100 100 100 100 100 100 100 100 100 100 100
100 100 100 100 100 100 100 100 100 100 100 100 100 100 100 100 100 100 100 100 100 100 100 100 100 100 100 100 100 100 100 100 100 100 100 100 100 100 100 100 100 100 100 100
100 100 100 100 100 100 100 100 100 100 100 100 100 100 100 100 100 100 100 100 100 100 100 100 100 100 100 100 100 100 100 98 100 100 100 100 89 100 100 100 100 100 100 100
100 100 100 100 100 100 100 100 100 100 100 100 100 100 100 100 100 100 100 93 100 100 100 100 100 76 88 100 100 100 100 100 100 100 100 100 100 100 100 100 100 100 100 100
100 100 100 100 100 100 100 100 100 100 100 100 100 100 100 100 100 100 100 96 100 100 100 96 100 100 92 100 100 97 94 100 100 100 100 100 100 100 100 100 100 100 100 100
100 100 100 100 100 100 100 100 100 100 100 100 100 100 100 100 100 100 100 100 100 100 100 100 100 100 100 100 100 100 100 100 100 100 100 97 98 100 100 100 100 100 100 100
100 100 100 100 100 100 100 100 100 100 100 100 100 100 100 100 100 96 100 100 100 99 100 100 84 100 100 100 100 100 100 100 100 100 100 100 100 100 99 99 100 100 100 100
100 100 100 95 92 98 100 100 99 96 92 74 90 100 100 97 84 41 10 100 100 100 100 100 98 100 100 100 100 100 27 21 80 99 100 100 100 100 97 90 86 100 100 100
100 100 100 100 100 100 100 98 100 100 100 100 100 100 100 100 96 53 38 88 98 84 72 77 91 98 100 100 99 46 5 7 20 51 80 84 80 43 61 78 98 100 100 100
100 100 100 100 100 92 86 100 100 100 100 100 100 98 84 59 93 98 92 87 72 69 86 99 89 90 100 100 70 68 99 5 5 40 83 91 91 100 89 79 99 100 100 100
100 100 100 100 100 100 97 87 100 72 84 91 88 71 66 74 83 65 70 51 5 80 99 99 77 87 95 98 88 94 57 100 20 5 5 45 92 100 97 100 100 100 100 100
100 100 100 100 100 97 98 100 96 78 93 100 100 99 78 99 96 5 52 46 37 6 37 67 61 69 80 82 96 81 93 93 95 77 10 5 5 52 96 96 96 100 100 100
100 100 100 100 100 100 100 61 60 51 5 23 36 66 68 88 100 100 59 8 5 9 14 31 5 5 10 47 78 95 100 92 92 77 88 5 32 39 57 53 80 94 100 100
100 100 100 100 100 100 100 97 56 5 5 5 5 5 5 28 14 38 93 90 5 5 5 5 5 5 12 27 5 60 44 85 99 94 76 77 86 63 61 70 78 55 81 100
100 100 99 90 100 100 76 47 17 20 36 49 6 5 5 5 38 16 5 5 5 5 5 5 5 5 5 18 19 27 35 72 76 83 85 95 95 66 60 55 69 81 53 20
100 100 100 99 97 88 76 12 40 96 69 62 79 34 5 20 48 21 10 14 5 63 10 32 5 5 5 12 24 12 48 30 6 66 75 89 68 38 19 58 73 67 59 76
100 97 100 99 98 94 70 5 5 5 19 25 92 98 7 5 5 5 5 25 54 5 31 48 23 5 5 6 80 76 81 79 31 58 70 88 67 47 57 64 95 100 100 92
84 88 99 94 75 46 70 55 5 5 80 39 5 5 5 17 63 55 71 12 6 5 5 5 5 5 5 7 37 31 61 54 72 70 74 64 83 96 83 72 68 93 100 76
5 8 11 5 5 5 5 13 53 24 36 7 5 40 56 56 51 17 63 68 5 5 5 5 5 5 5 6 41 5 62 37 32 68 78 78 80 85 95 92 85 70 70 60
5 5 5 5 5 5 50 62 52 62 87 52 56 31 6 6 53 71 59 19 5 5 5 5 4 0 0 15 80 66 64 66 51 86 88 86 98 100 96 97 92 90 94 81
57 23 27 11 94 67 53 63 34 5 8 24 5 5 5 5 24 72 32 69 5 5 5 5 5 2 4 42 97 100 70 93 82 91 86 88 100 99 100 99 98 100 100 100
60 53 82 65 59 95 93 61 15 8 5 8 5 46 38 38 45 75 6 23 5 5 40 8 5 5 9 79 100 83 58 76 89 83 76 95 100 100 100 100 100 100 97 99
55 49 67 84 68 55 60 41 64 34 49 34 13 6 23 8 47 86 80 5 5 5 12 45 5 10 5 40 75 77 93 98 72 99 100 77 89 83 100 100 100 100 94 90
59 95 99 81 34 58 70 9 26 54 20 8 5 66 90 77 32 66 100 100 99 28 5 10 55 7 5 11 100 82 74 100 9 70 90 100 98 98 100 100 100 95 71 100
100 100 47 79 59 51 6 36 34 65 19 16 55 9 64 34 94 21 100 100 100 80 8 5 71 46 5 5 48 100 96 94 100 93 97 93 88 99 92 88 100 100 87 84
82 56 47 60 40 48 57 78 72 66 88 88 77 59 26 23 57 91 98 100 100 100 81 5 5 5 54 31 44 96 92 55 95 99 100 88 100 98 100 78 96 100 100 100
56 56 69 71 65 52 27 90 100 100 100 84 54 24 15 34 15 94 91 84 88 88 87 79 91 100 95 79 52 67 73 74 65 94 100 100 99 66 69 100 70 98 100 100

GFSNGP_prec_cloud_114.txt.gz
Cloud_Cover
100 100 100 100 100 100 100 96 100 100 100 100 100 100 100 100 100 100 100 100 100 100 100 100 100 100 100 100 100 100 100 100 100 100 100 100 100 100 100 100 100 100 100 100
100 100 100 100 100 100 100 100 100 100 100 100 100 100 100 100 100 100 100 100 100 100 100 100 100 100 100 100 100 100 97 100 100 100 100 100 100 100 100 100 100 100 100 100
100 100 100 100 100 100 100 100 100 100 100 100 100 100 100 100 100 100 100 100 100 100 100 100 100 100 100 100 100 100 100 100 94 100 100 100 100 100 100 100 100 100 100 100
100 100 100 100 100 100 100 100 100 100 100 100 100 100 100 100 100 100 100 100 100 100 100 100 100 100 100 100 100 100 100 100 100 93 99 99 100 100 100 100 100 100 100 100
100 100 100 100 100 100 100 100 100 100 100 100 100 100 100 100 100 100 100 100 100 100 100 100 100 100 100 100 100 100 100 100 100 100 100 100 99 100 100 100 100 100 100 100
100 100 100 100 100 100 95 99 100 100 100 100 100 100 100 100 100 99 96 100 100 100 100 100 100 100 87 42 48 77 100 100 100 100 100 100 99 100 100 100 100 100 100 100
100 100 100 100 100 100 100 90 99 100 94 100 99 100 96 89 84 17 77 97 96 98 99 100 100 100 100 100 99 100 100 100 100 100 100 100 100 100 100 100 100 100 100 100
100 100 100 100 100 100 100 100 36 75 98 99 89 95 89 78 70 44 96 37 52 68 100 100 100 97 100 100 100 100 100 100 100 100 100 100 100 100 100 100 100 100 100 100
100 100 100 100 100 100 100 100 100 89 38 39 20 58 22 100 96 100 82 99 52 26 56 73 99 98 100 100 97 100 27 99 100 100 100 100 100 100 100 100 100 100 100 100
100 100 100 100 100 100 100 100 100 100 90 71 65 59 59 47 64 40 17 12 68 80 83 93 76 99 100 100 97 88 100 68 5 22 78 100 100 100 100 100 100 100 100 96
100 100 100 100 100 100 100 100 100 100 100 100 70 41 69 84 78 64 27 100 73 66 97 88 65 73 100 98 99 90 100 100 84 5 5 31 80 100 100 100 100 100 100 100
100 100 100 100 100 100 100 100 100 100 100 63 39 69 44 97 100 100 100 98 31 6 6 49 48 8 5 15 97 100 99 99 95 93 5 5 5 8 76 100 100 100 100 100
100 100 100 100 100 100 100 100 100 100 94 85 49 22 61 94 100 99 86 5 5 5 5 5 5 5 5 12 63 94 98 85 86 81 94 90 26 5 45 5 24 94 99 100
100 100 100 100 100 100 100 100 98 62 47 46 63 12 5 10 19 20 14 5 5 5 5 5 5 5 5 9 54 49 56 44 99 93 86 66 56 59 62 80 77 27 10 86
100 100 100 100 100 100 100 100 79 46 12 15 5 5 5 5 55 62 5 5 4 5 5 5 5 5 5 30 21 53 10 34 68 87 91 85 57 44 63 56 54 44 9 6
100 100 100 100 100 100 77 16 18 85 59 71 5 32 34 22 5 5 9 17 5 41 5 32 5 5 5 24 6 30 57 30 60 73 98 72 52 56 58 57 54 56 60 82
100 100 100 100 100 100 99 35 5 5 6 52 100 94 57 16 12 6 5 67 56 5 5 54 5 5 5 21 76 77 70 65 69 62 68 92 93 70 63 66 92 100 100 90
93 100 100 100 100 100 86 38 65 37 57 5 7 14 5 5 5 5 8 29 5 5 5 5 5 5 5 13 68 65 76 60 82 81 57 66 91 100 100 75 74 86 96 56
28 6 39 30 18 26 48 49 36 5 19 5 5 18 49 46 50 37 58 46 5 5 5 5 4 4 2 7 95 15 78 75 71 63 29 57 86 98 100 96 81 97 63 47
5 5 5 5 5 5 51 69 52 72 97 28 73 15 5 5 44 93 88 60 12 5 5 5 4 0 0 5 81 70 68 70 60 74 85 82 93 100 100 100 90 92 98 87
54 21 5 5 68 59 53 59 38 27 42 74 5 4 5 5 25 96 76 59 5 5 5 5 5 5 4 22 42 67 73 99 99 100 100 100 86 92 100 100 100 98 100 99
69 64 82 78 32 98 95 57 26 17 5 5 18 32 30 5 5 40 22 54 8 5 5 56 12 5 7 83 27 79 57 76 82 73 79 100 100 99 93 97 100 100 100 100
39 29 54 66 49 43 75 53 67 39 46 27 25 5 39 36 58 84 55 50 94 84 51 5 52 56 5 5 97 77 99 100 100 90 96 95 99 100 100 97 98 94 99 98
59 60 55 38 53 59 10 5 18 5 40 8 10 58 60 82 59 15 7 46 98 100 100 91 11 79 5 5 60 100 100 100 100 75 56 89 100 98 100 100 100 100 76 100
14 55 55 63 61 69 38 49 51 37 33 13 34 7 6 65 94 25 81 82 98 100 100 99 34 58 72 50 52 67 99 100 100 100 96 82 96 100 100 100 97 72 93 100
55 59 52 27 60 78 67 80 98 70 70 41 16 39 11 38 17 7 46 96 83 82 92 76 80 99 69 72 90 64 37 76 92 100 100 100 100 100 100 98 99 88 98 100
54 70 68 74 90 79 74 42 33 60 71 60 78 41 63 44 46 26 82 100 100 100 86 61 64 69 86 91 84 100 100 100 100 100 95 100 100 100 100 85 76 97 76 100

GFSNGP_prec_cloud_117.txt.gz
Cloud_Cover
100 100 100 100 100 100 100 100 100 100 100 100 100 100 100 100 100 100 100 100 100 100 100 100 100 100 100 100 100 99 96 100 100 100 100 100 100 100 100 100 100 100 100 100
98 100 100 100 100 100 100 100 100 100 100 100 100 100 100 100 100 100 100 100 100 100 100 100 100 100 100 100 100 100 100 100 100 93 100 100 100 100 100 100 100 100 100 100
73 100 100 100 100 100 100 100 100 100 100 100 100 100 100 100 100 100 100 100 100 100 100 100 100 100 100 100 100 100 100 100 100 100 90 100 100 100 100 100 100 100 100 100
66 100 100 100 100 100 100 100 100 100 100 100 100 100 100 100 100 100 100 100 100 100 100 100 100 100 100 100 100 100 100 100 100 100 100 100 100 100 100 100 100 100 100 100
97 100 100 100 100 100 100 100 100 100 100 100 100 100 100 100 100 100 100 100 100 100 100 100 100 100 100 100 100 100 100 100 100 100 100 100 100 100 100 100 100 100 100 100
88 100 100 100 100 100 100 100 100 100 100 100 100 100 100 100 100 100 100 100 100 100 100 100 100 100 100 100 100 100 100 100 100 100 100 92 100 100 100 100 100 100 100 100
98 100 100 100 100 100 100 82 100 100 99 100 100 100 100 100 100 100 100 100 100 100 100 100 100 100 100 100 100 100 100 100 100 100 100 100 100 100 100 100 100 100 100 100
98 100 100 100 100 100 100 94 94 85 95 95 100 100 100 100 100 100 100 100 100 91 100 100 100 100 100 100 100 100 100 93 95 99 100 100 100 100 100 100 100 100 100 100
100 100 100 100 100 100 100 100 98 80 100 100 98 87 97 100 100 100 100 100 100 93 88 98 100 100 99 100 100 100 87 60 56 90 92 97 100 100 100 99 100 100 100 100
100 100 100 100 100 100 100 100 100 95 99 98 97 97 99 100 98 97 94 98 75 88 94 96 76 72 97 95 100 92 96 93 76 69 87 94 100 100 100 100 100 100 100 100
100 100 100 100 100 100 100 100 100 100 100 100 95 98 100 100 99 77 56 40 21 47 60 73 24 68 83 100 98 100 99 100 98 87 72 40 83 99 100 100 100 100 100 100
100 100 100 100 100 100 100 100 100 100 100 100 100 100 96 100 99 95 14 10 7 42 75 56 5 55 73 93 99 92 72 85 80 99 98 56 5 16 58 99 100 98 100 100
100 100 100 100 100 100 100 100 100 100 100 100 99 100 100 100 97 57 58 73 62 52 36 17 7 5 76 100 95 90 72 51 76 88 100 63 5 5 5 6 43 30 92 98
100 100 100 100 100 100 100 100 100 100 100 100 100 100 80 49 72 92 92 94 93 91 73 35 5 5 20 94 80 71 16 25 14 98 100 66 8 54 87 82 67 5 6 79
100 100 100 100 100 100 100 100 100 100 100 100 90 10 50 50 61 82 44 46 33 21 5 5 5 4 15 75 67 100 98 84 56 91 100 15 16 61 63 28 33 33 5 5
100 100 100 100 100 100 100 100 100 100 100 100 58 40 6 5 5 6 56 15 4 5 5 5 5 5 2 74 82 79 58 26 53 99 99 98 80 82 72 75 76 82 52 52
100 100 100 100 100 100 100 100 100 100 83 54 89 80 5 5 5 5 5 7 7 5 5 7 5 5 5 15 100 100 100 100 68 100 100 100 100 100 100 100 100 100 93 49
100 100 100 100 100 100 100 100 100 100 92 63 62 5 5 5 5 5 5 9 5 5 5 5 5 4 4 15 100 100 100 100 100 100 100 100 100 100 100 100 100 100 100 63
25 39 80 97 100 100 100 100 100 94 33 6 5 5 5 5 5 14 65 12 5 5 4 5 4 1 2 7 87 100 100 100 100 100 98 91 100 100 100 100 100 100 100 100
28 45 34 19 6 5 25 16 5 33 66 5 5 5 5 5 51 79 82 40 5 5 5 5 5 5 5 5 47 96 99 100 99 99 98 97 100 100 100 100 100 100 100 100
42 6 5 5 27 17 9 25 26 37 68 67 31 18 46 40 5 35 14 7 62 25 42 7 5 4 5 2 5 46 10 50 87 100 100 100 100 100 100 100 100 100 100 100
50 52 52 52 69 74 69 71 77 80 90 98 80 31 6 5 50 20 5 17 5 84 100 100 40 5 5 4 3 5 6 60 61 82 100 98 98 100 100 100 100 100 100 100
69 36 29 22 39 79 81 74 78 77 57 47 84 78 30 59 64 42 5 5 61 92 100 100 97 33 5 5 5 5 5 5 25 80 92 98 99 100 100 100 100 100 100 100
32 20 30 61 63 75 92 88 44 9 40 53 38 6 30 5 5 5 5 5 58 87 94 100 99 76 99 35 34 40 6 68 75 72 68 74 99 100 100 100 100 100 100 98
27 22 64 74 69 53 15 5 31 51 72 8 5 18 9 17 12 5 5 6 45 92 100 83 100 100 100 100 100 100 100 100 100 100 100 94 65 97 100 100 100 100 100 100
50 56 56 41 25 12 28 41 55 47 10 5 5 11 5 30 67 81 81 80 94 91 100 100 100 100 100 99 99 100 100 100 100 100 100 100 96 67 95 97 100 100 93 100
49 36 39 28 43 55 57 71 53 57 18 19 14 58 86 84 39 22 43 76 90 98 100 100 100 100 100 100 89 99 100 100 97 100 100 100 100 100 90 87 100 100 89 100

GFSNGP_prec_cloud_120.txt.gz
Cloud_Cover
80 91 100 81 97 99 100 100 100 100 98 100 100 100 100 100 100 100 100 100 100 100 100 100 100 100 100 100 94 100 100 100 100 100 100 100 100 100 100 100 100 100 100 100
64 76 100 37 87 96 100 100 100 100 100 100 100 100 100 100 100 100 100 100 100 100 100 100 100 100 100 100 100 100 100 100 100 100 100 100 100 100 100 100 100 100 100 100
100 88 100 98 100 92 98 100 100 100 100 100 100 100 100 100 100 100 100 100 100 100 100 100 100 100 100 100 100 100 100 100 100 100 100 99 100 100 100 100 92 100 100 100
92 92 98 100 98 100 91 100 100 100 100 100 100 100 100 100 100 100 100 100 100 100 100 100 100 100 100 100 100 100 100 100 100 100 100 100 100 100 100 100 100 100 100 100
90 100 92 100 100 100 100 100 100 100 100 100 100 100 100 100 100 100 100 100 100 100 100 100 100 100 100 100 100 100 100 100 100 100 100 100 100 100 100 100 100 100 100 100
95 100 100 100 100 98 100 100 100 100 100 100 100 100 100 100 100 100 100 100 100 100 100 100 94 100 100 94 100 100 100 100 100 100 100 100 100 100 100 100 100 100 100 100
100 96 98 100 100 100 100 100 99 100 97 100 100 99 100 100 100 100 100 100 100 100 100 100 100 100 100 100 100 100 100 100 100 100 100 100 100 100 100 100 100 100 100 100
100 100 100 95 100 100 100 100 99 90 84 100 100 100 100 100 100 100 100 100 95 100 100 100 100 100 100 100 100 100 100 100 100 100 100 100 100 100 100 100 100 100 100 100
98 99 99 100 100 100 100 100 100 100 100 88 100 100 100 100 100 100 100 100 100 100 100 100 99 76 77 90 100 100 86 78 92 100 100 100 100 100 100 100 100 100 100 100
91 100 100 100 100 100 100 100 100 100 100 100 100 100 100 98 95 99 95 84 100 100 100 100 100 41 20 74 62 10 5 5 5 6 5 25 5 77 96 98 100 100 100 100
100 100 100 100 100 100 100 100 100 100 100 100 98 100 100 99 61 72 73 63 82 98 76 65 86 100 68 75 91 59 12 59 12 13 5 5 13 27 66 99 99 100 100 100
100 100 100 100 100 100 100 100 100 100 100 100 100 100 96 96 97 88 60 40 5 5 5 5 12 21 63 75 53 5 9 5 32 66 5 5 5 5 34 9 73 97 99 100
100 100 100 100 100 100 100 100 100 100 100 100 100 100 100 100 97 75 91 86 30 5 28 33 20 5 15 100 99 91 98 60 83 80 98 95 81 94 91 100 96 53 22 92
100 100 100 100 100 100 100 100 100 100 100 100 100 100 87 94 100 100 20 5 5 13 22 30 12 5 5 22 97 100 100 100 100 100 100 100 100 100 100 100 100 100 91 22
100 100 100 100 100 100 100 100 100 100 100 100 100 99 98 100 100 30 8 4 5 5 5 4 5 5 0 4 8 82 92 100 100 100 100 96 100 100 100 100 100 100 100 87
100 100 100 100 100 100 100 100 100 100 100 100 100 100 100 100 55 5 5 5 5 4 5 5 5 5 0 5 28 78 99 100 100 100 100 100 100 100 100 100 100 100 100 100
99 100 100 100 100 100 100 100 100 100 100 100 100 100 100 89 42 48 24 10 5 5 5 38 5 5 5 19 87 99 100 100 95 100 100 100 100 100 100 100 100 100 100 78
36 99 100 100 100 100 100 100 100 100 100 100 82 72 21 5 5 5 5 52 32 5 5 5 5 5 5 7 66 96 100 100 100 100 100 100 100 100 100 100 100 100 100 100
39 27 100 100 100 100 100 100 100 100 100 94 44 58 5 5 24 64 83 75 54 54 77 5 5 5 5 4 3 89 100 100 100 100 100 100 100 100 100 100 100 100 100 100
5 41 82 38 89 100 100 100 100 100 86 79 8 5 5 6 69 86 57 15 30 50 8 5 5 21 5 5 2 93 100 100 100 100 100 100 100 100 100 100 100 100 100 100
74 67 56 39 64 22 9 5 5 5 5 9 42 75 94 57 54 58 35 86 100 75 58 81 64 97 56 5 12 99 100 100 100 100 100 100 100 100 100 100 100 100 100 100
95 90 5 28 66 73 46 46 36 61 74 74 70 39 53 49 84 77 49 17 48 48 83 100 100 100 59 5 93 100 100 100 100 100 100 100 100 100 100 100 100 100 100 100
76 36 52 48 41 47 58 83 100 74 48 45 11 52 75 94 100 72 67 92 74 50 88 100 100 100 84 48 100 100 100 100 100 100 100 100 100 100 100 100 100 100 100 100
61 29 58 66 71 81 85 70 45 25 9 54 55 5 47 88 93 100 100 94 85 64 90 97 99 100 100 100 100 100 100 100 100 100 100 100 100 100 100 100 100 100 100 100
65 62 65 68 58 57 72 71 83 100 86 100 97 98 58 65 100 96 100 100 100 98 100 100 100 100 99 100 100 100 100 100 100 100 100 100 100 100 100 100 100 100 100 100
75 69 52 49 85 78 75 75 99 100 100 100 100 100 100 100 100 100 100 100 100 100 100 100 100 100 100 100 100 100 100 100 100 100 100 100 100 100 100 100 100 100 100 100
74 64 58 72 64 83 99 98 100 100 90 100 100 100 100 100 100 98 97 100 100 100 100 100 100 100 100 100 100 100 100 100 100 100 100 100 100 100 100 100 100 100 100 100

GFSNGP_prec_cloud_123.txt.gz
Cloud_Cover
100 98 60 82 66 55 100 100 92 100 100 100 100 100 98 100 100 100 100 100 100 100 100 100 100 100 100 100 100 100 100 100 100 100 100 100 100 100 100 100 100 100 100 100
100 99 100 100 44 81 100 100 86 100 100 100 100 100 100 100 89 94 100 100 100 100 100 100 100 100 100 100 100 100 100 100 100 82 98 76 89 100 99 100 100 100 100 100
100 90 85 100 48 13 72 95 94 100 100 100 100 100 100 100 99 99 100 100 100 100 100 100 100 100 100 100 100 100 100 100 100 100 100 100 100 100 100 100 100 100 100 100
100 100 91 88 55 76 74 93 100 82 100 100 100 100 99 100 100 100 100 100 100 100 100 100 100 100 100 99 92 100 100 100 100 100 100 100 100 100 100 100 100 100 100 100
100 99 96 100 90 73 96 87 100 100 100 100 96 100 99 100 100 100 100 100 100 100 100 100 100 100 100 100 100 100 100 100 100 100 100 100 100 100 100 100 100 100 100 100
100 100 100 100 100 88 100 100 98 100 100 100 100 100 94 100 100 100 100 100 100 100 100 100 100 100 100 100 100 100 100 100 100 100 100 100 100 100 100 100 100 100 100 100
100 73 91 100 100 83 100 94 66 100 100 100 100 98 100 91 93 100 100 94 100 100 100 100 100 100 100 100 100 100 100 100 100 100 100 100 100 100 100 100 100 100 100 100
99 88 100 95 100 98 97 100 100 100 100 100 99 100 100 100 98 94 100 100 100 96 100 100 100 100 100 100 100 100 100 100 100 100 100 100 100 100 100 100 100 100 100 100
48 96 95 100 100 86 100 100 100 100 100 100 100 99 100 100 96 76 43 96 100 100 100 100 100 100 90 100 100 100 99 99 95 100 100 100 100 100 100 100 100 100 100 100
80 100 100 98 100 100 100 100 100 100 100 100 100 100 96 97 100 62 98 70 52 73 64 94 100 100 100 98 96 57 62 50 11 10 14 24 94 100 100 100 100 100 98 99
97 100 93 100 100 100 100 100 100 100 100 100 100 100 100 44 61 88 98 76 86 90 73 55 97 100 100 100 100 100 100 90 53 66 76 26 24 6 56 80 80 66 91 100
99 94 99 100 100 100 100 100 100 100 100 100 100 100 100 100 100 100 100 100 72 76 70 68 54 45 16 54 100 93 82 94 100 100 100 64 38 79 85 38 6 15 13 74
100 76 100 100 100 100 100 100 100 100 100 100 100 100 100 100 100 100 94 79 9 18 25 9 5 5 5 6 6 67 89 90 76 99 100 100 100 100 100 99 100 92 13 77
100 89 100 100 100 100 100 100 100 100 100 100 100 100 100 100 100 100 100 100 96 98 43 5 2 5 5 5 5 73 80 98 100 100 100 100 100 100 100 100 100 100 100 79
100 97 100 100 100 100 100 100 100 100 100 100 100 100 100 100 100 100 100 100 98 37 5 1 5 5 1 5 5 98 90 100 100 100 100 100 100 100 100 100 100 100 100 100
100 98 100 100 100 100 100 100 100 100 100 100 100 100 100 100 100 100 100 98 8 5 5 14 5 5 5 30 51 78 97 89 98 100 100 100 100 100 100 100 100 100 100 100
83 78 100 100 100 100 100 100 100 100 100 100 100 100 100 100 100 100 100 97 47 5 11 82 5 5 5 10 44 97 100 100 100 100 100 100 100 100 100 100 100 100 100 86
91 79 100 100 100 100 100 100 100 100 100 100 100 100 100 100 97 27 24 40 5 5 13 32 5 5 42 10 5 64 99 100 100 100 100 100 100 100 100 100 100 100 100 100
100 97 97 99 100 100 100 100 100 100 100 100 100 100 99 72 21 22 50 12 5 64 100 61 60 42 100 46 2 54 100 100 100 100 100 100 100 100 100 100 100 100 100 100
93 93 83 85 100 100 100 100 100 100 100 100 100 100 59 14 5 5 8 48 80 96 81 100 99 100 100 97 7 36 100 100 100 100 100 100 100 100 100 100 100 100 100 100
42 32 67 100 95 63 57 98 100 94 75 23 10 5 8 5 5 7 78 88 100 36 19 23 95 100 100 67 26 99 100 100 100 100 100 100 100 100 100 100 100 100 100 100
92 92 90 66 35 77 92 90 86 66 34 5 6 6 5 44 94 72 38 52 100 86 78 100 100 100 59 18 100 100 100 100 100 100 100 100 100 100 100 100 100 100 100 100
96 89 90 16 40 85 83 100 90 92 71 35 7 55 92 84 100 100 100 95 100 98 86 100 100 100 94 98 100 100 100 100 100 100 100 100 100 100 100 100 100 100 100 100
100 72 60 49 58 44 75 87 77 57 19 90 92 18 57 100 100 100 100 100 99 53 99 100 100 100 100 100 100 100 100 100 100 100 100 100 100 100 100 100 100 100 100 100
100 90 74 35 64 67 57 42 49 100 99 100 97 100 100 100 96 100 100 100 100 85 100 100 88 100 100 100 100 100 100 100 100 100 100 100 100 100 100 100 100 100 100 100
61 65 55 57 64 66 69 59 100 100 100 100 100 100 100 100 100 100 100 100 100 100 100 100 100 100 100 100 100 100 100 100 100 100 100 100 100 100 100 100 100 100 100 100
60 58 59 65 68 78 99 100 100 100 86 100 98 100 100 100 100 100 100 100 100 100 100 100 100 100 100 100 100 100 100 100 100 100 100 100 100 100 100 100 100 100 93 100

GFSNGP_prec_cloud_126.txt.gz
Cloud_Cover
100 100 100 100 100 100 55 71 91 73 84 100 100 100 100 99 100 100 100 100 100 100 100 100 100 100 100 100 100 100 100 100 100 100 100 100 100 100 100 100 100 100 100 100
100 100 100 100 100 94 99 21 60 33 71 100 100 100 99 100 100 100 99 96 100 100 100 100 100 100 100 100 100 100 100 100 100 100 100 100 100 100 100 100 100 100 100 100
100 100 100 100 100 100 76 51 61 93 58 62 100 100 99 96 100 100 99 98 71 100 100 100 100 100 100 100 100 100 100 100 100 100 100 100 100 100 100 100 100 100 100 100
100 100 100 100 100 50 96 95 37 5 14 68 69 100 100 100 98 100 100 98 90 34 100 100 100 100 100 100 100 100 100 100 100 100 100 100 100 100 100 100 100 100 100 100
100 100 100 100 96 100 100 100 19 56 87 39 84 96 99 100 100 100 100 100 100 98 82 100 100 100 100 100 100 100 100 95 100 100 100 100 100 100 100 100 100 100 100 100
100 100 100 100 100 100 100 97 7 73 100 90 99 100 100 99 100 94 100 100 100 100 90 97 31 99 100 100 100 100 100 100 100 100 100 100 100 100 100 100 100 100 100 100
100 100 100 100 100 100 96 89 89 100 100 100 100 100 100 100 99 63 100 100 100 100 100 100 100 100 88 99 96 100 100 100 100 100 100 100 66 84 100 75 27 72 100 100
100 100 100 100 100 100 80 86 100 91 100 100 100 100 100 100 95 100 62 100 100 100 100 100 100 100 100 100 100 86 100 100 100 100 100 94 82 100 100 100 96 48 82 100
100 100 100 100 100 91 100 77 82 100 100 100 100 100 100 100 94 64 86 93 98 100 100 100 100 100 100 100 100 100 100 100 100 100 100 100 100 100 100 100 100 100 100 100
100 100 99 100 100 100 100 99 100 100 100 100 100 100 100 100 99 88 86 65 99 39 86 100 100 100 100 100 100 100 100 100 100 95 100 100 100 100 100 100 100 100 97 90
100 96 100 100 100 100 100 100 100 100 100 100 100 100 100 100 100 100 89 93 92 99 98 73 10 45 100 100 100 100 100 100 100 100 100 92 88 29 8 55 81 86 96 100
92 11 68 94 100 94 94 100 100 100 100 100 100 100 100 100 100 100 100 100 94 100 92 62 62 7 5 5 10 39 35 87 100 100 100 100 94 100 65 18 8 64 85 28
91 74 72 100 100 95 98 100 100 100 100 100 100 100 100 100 100 100 100 100 100 100 92 5 5 5 5 5 5 66 75 96 12 6 93 63 43 100 81 42 95 100 98 62
97 87 100 92 89 100 100 100 100 100 100 100 100 100 100 100 100 100 100 100 100 88 92 100 100 59 5 5 5 5 10 91 5 21 35 87 98 92 95 96 88 86 100 94
98 86 28 72 95 99 100 100 100 100 100 100 100 100 100 100 100 100 100 100 100 100 100 33 65 14 5 5 5 5 24 72 5 10 16 90 59 77 86 78 100 99 100 60
99 70 76 77 76 100 100 100 100 100 100 100 100 100 100 100 100 100 100 100 100 100 66 55 92 60 5 5 5 5 5 45 5 5 81 46 5 56 9 5 98 86 98 95
98 54 13 16 66 100 100 100 100 100 100 100 100 100 100 100 100 100 100 100 99 93 100 100 36 5 5 5 5 5 8 98 10 5 20 84 59 5 6 92 77 67 81 100
64 38 40 5 18 100 100 100 100 100 100 100 100 100 100 100 100 94 71 99 100 99 33 53 26 5 5 83 4 2 38 37 5 14 79 21 19 41 100 68 57 100 75 81
94 76 64 72 28 100 100 100 100 100 100 100 100 100 100 97 100 100 100 100 69 99 88 74 94 5 12 90 7 0 1 57 45 82 47 89 12 90 97 67 99 100 100 100
97 100 100 100 97 99 100 100 100 100 100 100 100 100 100 100 100 94 64 22 58 89 5 5 5 8 26 98 41 5 5 75 89 96 90 94 99 100 100 98 100 99 100 100
93 92 42 17 15 45 99 100 100 100 100 100 100 100 97 83 8 5 5 62 79 5 5 5 40 92 100 93 99 96 24 20 100 100 100 100 100 100 100 100 100 100 100 100
6 82 85 54 54 77 62 64 40 38 100 94 54 46 70 28 21 21 10 18 28 40 5 5 88 94 32 5 5 66 94 100 100 100 100 100 100 100 100 100 100 74 9 5
92 19 20 43 23 57 22 75 100 100 100 100 100 91 68 30 8 52 89 85 97 31 5 5 96 66 66 21 56 89 99 100 100 100 100 100 100 100 100 99 100 100 100 77
84 92 99 100 46 61 100 100 100 100 97 79 47 17 9 58 45 100 90 98 89 31 41 100 74 91 45 60 100 94 69 78 94 98 100 100 100 100 100 100 87 59 92 100
100 100 100 100 100 100 100 100 90 60 36 100 88 8 48 70 47 52 13 66 89 60 14 100 87 69 19 100 100 62 14 93 100 92 99 100 98 90 84 99 100 100 100 100
100 100 100 100 100 100 100 39 68 96 86 96 93 100 94 54 77 54 90 84 91 96 100 99 94 74 97 95 64 57 99 78 99 100 78 7 10 64 100 99 82 52 63 100
100 100 100 100 100 100 100 61 100 97 80 62 74 100 98 64 78 73 78 83 68 91 88 22 82 93 100 27 97 87 95 100 99 89 18 71 100 98 96 34 5 91 100 100

GFSNGP_prec_cloud_129.txt.gz
Cloud_Cover
100 100 100 100 100 100 100 100 100 100 100 96 100 100 100 98 21 30 73 100 100 100 100 99 100 100 100 99 100 100 100 100 100 100 100 100 100 100 100 100 100 100 100 100
100 100 100 100 100 100 100 69 100 100 100 92 99 85 99 41 61 51 99 100 100 100 100 100 100 100 100 100 100 100 100 100 100 100 100 100 100 100 100 100 100 100 100 100
100 100 100 100 100 100 100 82 100 100 100 100 100 83 100 97 99 79 96 100 100 100 100 100 100 100 100 100 100 100 100 100 100 100 100 100 100 100 100 100 100 100 100 100
100 100 99 100 100 100 100 100 100 100 100 100 22 96 100 94 99 100 96 100 100 100 100 100 100 100 100 100 100 100 100 100 100 100 100 100 100 100 100 100 100 100 100 100
100 100 100 100 100 100 100 100 100 100 100 100 81 86 100 100 100 100 100 100 100 100 100 100 100 100 100 100 100 100 100 100 100 100 100 100 100 100 100 100 100 100 100 100
100 100 100 100 100 100 100 100 100 100 100 94 100 100 98 100 100 100 100 100 100 100 100 100 100 100 100 100 100 100 100 100 100 100 100 100 100 100 100 100 100 100 100 100
100 100 100 100 100 100 100 100 100 100 100 52 69 92 100 100 100 100 100 100 100 100 100 100 100 93 100 100 100 100 100 100 100 100 100 97 100 99 100 100 100 100 100 100
100 100 100 100 100 100 100 100 100 100 98 99 100 100 100 100 100 100 100 100 100 100 100 100 100 100 70 85 100 100 100 100 100 100 77 96 100 100 100 83 100 100 100 100
100 100 100 100 100 100 100 100 100 51 86 98 100 100 100 100 100 100 100 100 100 100 99 100 100 100 100 100 100 100 100 100 100 100 100 88 71 69 100 99 69 43 83 100
100 100 100 100 100 100 100 100 56 91 100 100 100 100 100 100 100 100 100 100 100 100 75 100 100 100 100 100 100 100 100 100 100 100 100 100 98 99 100 100 100 100 100 100
100 100 100 100 100 100 100 100 81 91 100 100 100 100 100 100 100 100 100 100 100 100 96 100 99 93 98 100 100 100 100 100 90 98 100 100 100 100 99 83 84 82 88 76
100 100 100 100 100 100 100 100 83 88 100 100 100 100 100 100 100 100 100 100 100 100 100 100 100 100 95 52 100 100 100 100 96 37 56 19 5 11 86 97 96 99 98 97
100 100 100 90 100 83 89 63 70 79 100 100 100 100 100 100 100 100 100 100 100 100 100 100 100 100 94 9 7 5 84 100 99 100 100 99 98 68 9 9 42 100 100 15
100 78 100 100 100 94 18 73 87 100 100 100 100 100 100 100 100 100 100 100 100 100 100 100 100 100 100 98 67 5 6 20 5 5 5 5 5 5 5 35 58 57 100 70
42 13 29 87 100 66 63 58 95 100 100 100 100 100 100 100 100 100 100 100 100 100 100 100 100 100 100 97 24 6 5 5 5 5 5 20 5 5 5 5 90 68 42 50
92 33 84 78 10 5 58 88 100 100 100 100 100 100 100 100 100 100 100 100 100 100 100 100 100 99 97 19 5 5 5 5 5 5 5 5 5 5 5 5 10 5 43 82
100 98 76 6 27 53 20 79 100 100 100 100 100 100 100 100 100 100 100 100 100 100 100 100 33 59 13 5 5 5 5 5 5 5 5 5 5 5 9 5 5 5 5 58
99 28 9 42 5 5 20 69 100 100 98 100 100 100 100 100 100 100 100 100 100 100 100 100 87 20 5 5 5 5 5 2 6 6 5 5 5 5 7 18 5 24 14 6
28 32 26 5 5 5 5 47 90 90 100 100 100 100 100 100 100 100 100 100 100 91 58 53 5 5 5 5 5 5 22 5 5 5 14 5 5 6 35 31 11 10 23 36
100 100 89 64 19 5 12 18 100 100 100 100 100 100 100 100 100 100 100 100 96 62 5 5 4 5 98 88 89 88 36 12 5 5 5 81 22 49 5 32 9 22 55 52
100 95 77 76 73 35 5 5 99 100 100 100 100 100 100 100 100 100 100 81 98 83 5 5 32 13 79 50 5 7 5 8 43 9 60 99 99 100 95 63 83 99 99 86
8 34 70 87 100 88 93 96 100 100 100 100 100 100 97 73 68 50 78 100 100 75 30 48 58 48 16 18 5 46 88 99 100 100 100 97 97 100 99 88 93 100 100 86
9 12 19 27 92 91 83 100 100 96 69 50 98 100 98 88 99 100 96 100 100 98 23 63 71 10 5 12 67 34 5 13 88 97 84 97 100 99 100 100 100 99 100 100
51 13 69 87 100 100 100 99 84 99 100 100 100 100 100 95 100 100 100 100 74 29 59 73 45 56 24 66 32 5 5 50 64 98 99 54 36 47 81 100 100 84 79 98
42 99 100 100 100 100 100 100 100 100 100 100 100 99 53 52 24 53 69 76 43 5 11 55 7 13 36 5 5 53 5 42 97 87 5 5 13 98 100 98 46 26 73 97
92 100 100 100 100 100 100 100 100 100 99 100 100 100 100 100 100 98 79 58 6 37 5 5 9 18 5 5 49 5 32 60 94 5 5 37 100 87 43 5 8 28 99 100
100 100 100 100 100 100 100 100 100 100 93 100 98 100 99 80 74 68 60 7 5 5 5 5 5 9 5 45 59 34 47 86 34 5 9 100 97 49 5 18 98 100 100 84